Time,TemperatureF,DewpointF,PressureIn,WindDirection,WindDirectionDegrees,WindSpeedMPH,WindSpeedGustMPH,Humidity,HourlyPrecipIn,Conditions,Clouds,dailyrainin,SolarRadiationWatts/m^2,SoftwareType,DateUTC
2013-04-28 00:00:00,44.3,32.9,30.02,WSW,248,2.0,3.0,64,0.00,,,0.00,0,MyOwnSoftware,2013-04-27 23:00:00,
2013-04-28 00:01:00,44.3,32.9,30.02,West,270,1.0,3.0,64,0.00,,,0.00,0,MyOwnSoftware,2013-04-27 23:01:00,
2013-04-28 00:02:00,44.3,33.0,30.02,SW,229,2.0,-999.0,64,-99.99,,,0.00,0,weatherlink.com 1.10,2013-04-27 23:02:00,
2013-04-28 00:03:00,44.3,32.9,30.02,West,270,0.0,2.0,64,0.00,,,0.00,0,MyOwnSoftware,2013-04-27 23:03:00,
2013-04-28 00:04:00,44.2,32.8,30.02,West,270,1.0,2.0,64,0.00,,,0.00,0,MyOwnSoftware,2013-04-27 23:04:00,
2013-04-28 00:05:00,44.2,32.8,30.02,West,270,3.0,7.0,64,0.00,,,0.00,0,MyOwnSoftware,2013-04-27 23:05:00,
2013-04-28 00:06:00,44.2,32.8,30.02,SW,225,2.0,5.0,64,0.00,,,0.00,0,MyOwnSoftware,2013-04-27 23:06:00,
2013-04-28 00:07:00,44.2,32.8,30.02,NW,315,2.0,5.0,64,0.00,,,0.00,0,MyOwnSoftware,2013-04-27 23:07:00,
2013-04-28 00:08:00,44.2,32.8,30.02,West,270,2.0,8.0,64,0.00,,,0.00,0,MyOwnSoftware,2013-04-27 23:08:00,
2013-04-28 00:09:00,44.2,32.8,30.02,SW,225,4.0,8.0,64,0.00,,,0.00,0,MyOwnSoftware,2013-04-27 23:09:00,
2013-04-28 00:10:00,44.3,32.9,30.02,SW,225,3.0,8.0,64,0.00,,,0.00,0,MyOwnSoftware,2013-04-27 23:10:00,
2013-04-28 00:11:00,44.3,32.9,30.02,North,0,3.0,7.0,64,0.00,,,0.00,0,MyOwnSoftware,2013-04-27 23:11:00,
2013-04-28 00:12:00,44.3,32.9,30.02,WSW,248,2.0,5.0,64,0.00,,,0.00,0,MyOwnSoftware,2013-04-27 23:12:00,
2013-04-28 00:13:00,44.3,32.9,30.02,NW,315,1.0,2.0,64,0.00,,,0.00,0,MyOwnSoftware,2013-04-27 23:13:00,
2013-04-28 00:14:00,44.3,32.9,30.02,SSE,158,3.0,6.0,64,0.00,,,0.00,0,MyOwnSoftware,2013-04-27 23:14:00,
2013-04-28 00:15:00,44.3,32.9,30.00,WNW,292,2.0,5.0,64,0.00,,,0.00,0,MyOwnSoftware,2013-04-27 23:15:00,
2013-04-28 00:16:00,44.2,32.8,30.02,NW,315,2.0,5.0,64,0.00,,,0.00,0,MyOwnSoftware,2013-04-27 23:16:00,
2013-04-28 00:17:00,44.3,33.3,30.00,WSW,248,2.0,5.0,65,0.00,,,0.00,0,MyOwnSoftware,2013-04-27 23:17:00,
2013-04-28 00:18:00,44.3,33.3,30.00,SSW,202,1.0,2.0,65,0.00,,,0.00,0,MyOwnSoftware,2013-04-27 23:18:00,
2013-04-28 00:19:00,44.3,33.3,30.00,WSW,248,2.0,5.0,65,0.00,,,0.00,0,MyOwnSoftware,2013-04-27 23:19:00,
2013-04-28 00:20:00,44.3,33.3,30.00,WNW,292,1.0,3.0,65,0.00,,,0.00,0,MyOwnSoftware,2013-04-27 23:20:00,
2013-04-28 00:21:00,44.3,33.3,30.00,NW,315,3.0,6.0,65,0.00,,,0.00,0,MyOwnSoftware,2013-04-27 23:21:00,
2013-04-28 00:22:00,44.3,33.3,30.00,WSW,248,2.0,5.0,65,0.00,,,0.00,0,MyOwnSoftware,2013-04-27 23:22:00,
2013-04-28 00:23:00,44.3,32.9,30.00,NW,315,3.0,5.0,64,0.00,,,0.00,0,MyOwnSoftware,2013-04-27 23:23:00,
2013-04-28 00:24:00,44.3,32.9,30.00,WNW,292,2.0,3.0,64,0.00,,,0.00,0,MyOwnSoftware,2013-04-27 23:24:00,
2013-04-28 00:25:00,44.3,32.9,30.00,WNW,292,2.0,5.0,64,0.00,,,0.00,0,MyOwnSoftware,2013-04-27 23:25:00,
2013-04-28 00:26:00,44.3,32.9,30.00,SSW,202,2.0,6.0,64,0.00,,,0.00,0,MyOwnSoftware,2013-04-27 23:26:00,
2013-04-28 00:27:00,44.3,32.9,30.00,NW,315,2.0,3.0,64,0.00,,,0.00,0,MyOwnSoftware,2013-04-27 23:27:00,
2013-04-28 00:28:00,44.3,32.9,30.00,ESE,112,3.0,6.0,64,0.00,,,0.00,0,MyOwnSoftware,2013-04-27 23:28:00,
2013-04-28 00:29:00,44.3,32.9,30.00,NNW,338,1.0,3.0,64,0.00,,,0.00,0,MyOwnSoftware,2013-04-27 23:29:00,
2013-04-28 00:30:00,44.3,32.9,29.99,WSW,248,3.0,6.0,64,0.00,,,0.00,0,MyOwnSoftware,2013-04-27 23:30:00,
2013-04-28 00:31:00,44.3,33.0,29.99,West,270,1.0,-999.0,64,-99.99,,,0.00,0,weatherlink.com 1.10,2013-04-27 23:31:00,
2013-04-28 00:32:00,44.3,32.9,29.99,West,270,3.0,6.0,64,0.00,,,0.00,0,MyOwnSoftware,2013-04-27 23:32:00,
2013-04-28 00:33:00,44.3,32.9,29.99,West,270,4.0,7.0,64,0.00,,,0.00,0,MyOwnSoftware,2013-04-27 23:33:00,
2013-04-28 00:34:00,44.3,32.9,29.99,NNW,338,4.0,7.0,64,0.00,,,0.00,0,MyOwnSoftware,2013-04-27 23:34:00,
2013-04-28 00:35:00,44.2,32.8,29.99,WNW,292,4.0,6.0,64,0.00,,,0.00,0,MyOwnSoftware,2013-04-27 23:35:00,
2013-04-28 00:36:00,44.2,32.8,29.99,North,0,5.0,7.0,64,0.00,,,0.00,0,MyOwnSoftware,2013-04-27 23:36:00,
2013-04-28 00:37:00,44.2,32.8,29.99,SW,225,3.0,8.0,64,0.00,,,0.00,0,MyOwnSoftware,2013-04-27 23:37:00,
2013-04-28 00:38:00,44.3,32.9,30.00,NNW,338,1.0,3.0,64,0.00,,,0.00,0,MyOwnSoftware,2013-04-27 23:38:00,
2013-04-28 00:39:00,44.2,32.8,29.99,SW,225,2.0,3.0,64,0.00,,,0.00,0,MyOwnSoftware,2013-04-27 23:39:00,
2013-04-28 00:40:00,44.2,32.8,29.99,NW,315,2.0,3.0,64,0.00,,,0.00,0,MyOwnSoftware,2013-04-27 23:40:00,
2013-04-28 00:41:00,44.2,32.8,29.99,West,270,3.0,6.0,64,0.00,,,0.00,0,MyOwnSoftware,2013-04-27 23:41:00,
2013-04-28 00:42:00,44.2,32.8,29.99,West,270,3.0,6.0,64,0.00,,,0.00,0,MyOwnSoftware,2013-04-27 23:42:00,
2013-04-28 00:43:00,44.2,33.2,29.99,NNW,338,2.0,5.0,65,0.00,,,0.00,0,MyOwnSoftware,2013-04-27 23:43:00,
2013-04-28 00:44:00,44.2,33.2,29.99,North,0,2.0,5.0,65,0.00,,,0.00,0,MyOwnSoftware,2013-04-27 23:44:00,
2013-04-28 00:45:00,44.2,33.2,29.98,West,270,4.0,7.0,65,0.00,,,0.00,0,MyOwnSoftware,2013-04-27 23:45:00,
2013-04-28 00:46:00,44.2,33.0,29.98,WNW,282,1.0,-999.0,65,-99.99,,,0.00,0,weatherlink.com 1.10,2013-04-27 23:46:00,
2013-04-28 00:47:00,44.2,33.2,29.98,WNW,292,1.0,3.0,65,0.00,,,0.00,0,MyOwnSoftware,2013-04-27 23:47:00,
2013-04-28 00:48:00,44.2,33.2,29.98,North,0,3.0,6.0,65,0.00,,,0.00,0,MyOwnSoftware,2013-04-27 23:48:00,
2013-04-28 00:49:00,44.2,33.2,29.98,North,0,1.0,3.0,65,0.00,,,0.00,0,MyOwnSoftware,2013-04-27 23:49:00,
2013-04-28 00:50:00,44.2,33.2,29.98,NW,315,0.0,2.0,65,0.00,,,0.00,0,MyOwnSoftware,2013-04-27 23:50:00,
2013-04-28 00:51:00,44.2,33.2,29.98,SSE,158,5.0,10.0,65,0.00,,,0.00,0,MyOwnSoftware,2013-04-27 23:51:00,
2013-04-28 00:52:00,44.2,33.2,29.98,West,270,6.0,11.0,65,0.00,,,0.00,0,MyOwnSoftware,2013-04-27 23:52:00,
2013-04-28 00:53:00,44.1,33.1,29.98,WSW,248,3.0,7.0,65,0.00,,,0.00,0,MyOwnSoftware,2013-04-27 23:53:00,
2013-04-28 00:54:00,44.1,33.1,29.98,SW,225,2.0,7.0,65,0.00,,,0.00,0,MyOwnSoftware,2013-04-27 23:54:00,
2013-04-28 00:55:00,44.1,33.1,29.98,West,270,3.0,6.0,65,0.00,,,0.00,0,MyOwnSoftware,2013-04-27 23:55:00,
2013-04-28 00:56:00,44.2,33.2,29.98,WNW,292,1.0,3.0,65,0.00,,,0.00,0,MyOwnSoftware,2013-04-27 23:56:00,
2013-04-28 00:57:00,44.1,33.1,29.98,SSW,202,6.0,13.0,65,0.00,,,0.00,0,MyOwnSoftware,2013-04-27 23:57:00,
2013-04-28 00:58:00,44.1,33.1,29.98,WSW,248,5.0,9.0,65,0.00,,,0.00,0,MyOwnSoftware,2013-04-27 23:58:00,
2013-04-28 00:59:00,44.1,33.1,29.98,SSW,202,5.0,8.0,65,0.00,,,0.00,0,MyOwnSoftware,2013-04-27 23:59:00,
2013-04-28 01:00:00,44.1,33.1,29.97,WSW,248,4.0,7.0,65,0.00,,,0.00,0,MyOwnSoftware,2013-04-28 00:00:00,
2013-04-28 01:01:00,44.1,33.0,29.97,West,277,2.0,-999.0,65,-99.99,,,0.00,0,weatherlink.com 1.10,2013-04-28 00:01:00,
2013-04-28 01:02:00,44.1,33.1,29.97,West,270,2.0,3.0,65,0.00,,,0.00,0,MyOwnSoftware,2013-04-28 00:02:00,
2013-04-28 01:03:00,44.1,33.1,29.97,WSW,248,2.0,4.0,65,0.00,,,0.00,0,MyOwnSoftware,2013-04-28 00:03:00,
2013-04-28 01:04:00,44.1,33.1,29.97,SSW,202,2.0,5.0,65,0.00,,,0.00,0,MyOwnSoftware,2013-04-28 00:04:00,
2013-04-28 01:05:00,44.1,33.1,29.97,SSW,202,2.0,4.0,65,0.00,,,0.00,0,MyOwnSoftware,2013-04-28 00:05:00,
2013-04-28 01:06:00,44.1,33.1,29.97,NNW,338,4.0,11.0,65,0.00,,,0.00,0,MyOwnSoftware,2013-04-28 00:06:00,
2013-04-28 01:07:00,44.1,33.5,29.97,WNW,292,2.0,5.0,66,0.00,,,0.00,0,MyOwnSoftware,2013-04-28 00:07:00,
2013-04-28 01:08:00,44.1,33.5,29.97,SSW,202,5.0,11.0,66,0.00,,,0.00,0,MyOwnSoftware,2013-04-28 00:08:00,
2013-04-28 01:09:00,44.1,33.5,29.97,SW,225,4.0,6.0,66,0.00,,,0.00,0,MyOwnSoftware,2013-04-28 00:09:00,
2013-04-28 01:10:00,44.1,33.5,29.97,NW,315,3.0,6.0,66,0.00,,,0.00,0,MyOwnSoftware,2013-04-28 00:10:00,
2013-04-28 01:11:00,44.1,33.5,29.97,SSE,158,2.0,3.0,66,0.00,,,0.00,0,MyOwnSoftware,2013-04-28 00:11:00,
2013-04-28 01:12:00,44.1,33.5,29.97,SSW,202,6.0,13.0,66,0.00,,,0.00,0,MyOwnSoftware,2013-04-28 00:12:00,
2013-04-28 01:13:00,44.1,33.5,29.97,WNW,292,4.0,8.0,66,0.00,,,0.00,0,MyOwnSoftware,2013-04-28 00:13:00,
2013-04-28 01:14:00,44.1,33.5,29.97,SSW,202,6.0,9.0,66,0.00,,,0.00,0,MyOwnSoftware,2013-04-28 00:14:00,
2013-04-28 01:15:00,44.1,33.5,29.96,SW,225,4.0,6.0,66,0.00,,,0.00,0,MyOwnSoftware,2013-04-28 00:15:00,
2013-04-28 01:16:00,44.1,34.0,29.96,SSW,200,6.0,-999.0,67,-99.99,,,0.00,0,weatherlink.com 1.10,2013-04-28 00:16:00,
2013-04-28 01:17:00,44.1,33.9,29.96,West,270,4.0,7.0,67,0.00,,,0.00,0,MyOwnSoftware,2013-04-28 00:17:00,
2013-04-28 01:18:00,44.1,33.9,29.96,WSW,248,5.0,8.0,67,0.00,,,0.00,0,MyOwnSoftware,2013-04-28 00:18:00,
2013-04-28 01:19:00,44.1,33.9,29.96,SW,225,5.0,8.0,67,0.00,,,0.00,0,MyOwnSoftware,2013-04-28 00:19:00,
2013-04-28 01:20:00,44.1,33.9,29.96,SW,225,4.0,6.0,67,0.00,,,0.00,0,MyOwnSoftware,2013-04-28 00:20:00,
2013-04-28 01:21:00,44.1,33.9,29.96,WSW,248,4.0,7.0,67,0.00,,,0.00,0,MyOwnSoftware,2013-04-28 00:21:00,
2013-04-28 01:22:00,44.1,33.9,29.96,SSW,202,6.0,11.0,67,0.00,,,0.00,0,MyOwnSoftware,2013-04-28 00:22:00,
2013-04-28 01:23:00,44.1,34.2,29.96,SW,225,5.0,8.0,68,0.00,,,0.00,0,MyOwnSoftware,2013-04-28 00:23:00,
2013-04-28 01:24:00,44.1,34.2,29.96,NNW,338,3.0,6.0,68,0.00,,,0.00,0,MyOwnSoftware,2013-04-28 00:24:00,
2013-04-28 01:25:00,44.1,34.2,29.96,West,270,3.0,7.0,68,0.00,,,0.00,0,MyOwnSoftware,2013-04-28 00:25:00,
2013-04-28 01:26:00,44.1,34.2,29.96,WSW,248,3.0,7.0,68,0.00,,,0.00,0,MyOwnSoftware,2013-04-28 00:26:00,
2013-04-28 01:27:00,44.1,34.2,29.96,North,0,5.0,8.0,68,0.00,,,0.00,0,MyOwnSoftware,2013-04-28 00:27:00,
2013-04-28 01:28:00,43.9,34.0,29.96,West,270,1.0,3.0,68,0.00,,,0.00,0,MyOwnSoftware,2013-04-28 00:28:00,
2013-04-28 01:29:00,43.9,34.0,29.96,WNW,292,3.0,5.0,68,0.00,,,0.00,0,MyOwnSoftware,2013-04-28 00:29:00,
2013-04-28 01:30:00,43.9,34.0,29.95,WNW,292,5.0,8.0,68,0.00,,,0.00,0,MyOwnSoftware,2013-04-28 00:30:00,
2013-04-28 01:31:00,43.9,34.0,29.95,SW,223,2.0,-999.0,69,-99.99,,,0.00,0,weatherlink.com 1.10,2013-04-28 00:31:00,
2013-04-28 01:32:00,43.9,34.4,29.95,WSW,248,4.0,7.0,69,0.00,,,0.00,0,MyOwnSoftware,2013-04-28 00:32:00,
2013-04-28 01:33:00,43.9,34.4,29.95,SSW,202,5.0,8.0,69,0.00,,,0.00,0,MyOwnSoftware,2013-04-28 00:33:00,
2013-04-28 01:34:00,43.9,34.4,29.95,South,180,3.0,6.0,69,0.00,,,0.00,0,MyOwnSoftware,2013-04-28 00:34:00,
2013-04-28 01:35:00,43.9,34.4,29.95,NW,315,3.0,6.0,69,0.00,,,0.00,0,MyOwnSoftware,2013-04-28 00:35:00,
2013-04-28 01:36:00,43.8,34.3,29.95,SE,135,2.0,5.0,69,0.00,,,0.00,0,MyOwnSoftware,2013-04-28 00:36:00,
2013-04-28 01:37:00,43.8,34.3,29.95,West,270,2.0,5.0,69,0.00,,,0.00,0,MyOwnSoftware,2013-04-28 00:37:00,
2013-04-28 01:38:00,43.8,34.3,29.95,WNW,292,3.0,5.0,69,0.00,,,0.00,0,MyOwnSoftware,2013-04-28 00:38:00,
2013-04-28 01:39:00,43.8,34.3,29.95,NW,315,2.0,4.0,69,0.00,,,0.00,0,MyOwnSoftware,2013-04-28 00:39:00,
2013-04-28 01:40:00,43.8,34.7,29.95,WNW,292,3.0,9.0,70,0.00,,,0.00,0,MyOwnSoftware,2013-04-28 00:40:00,
2013-04-28 01:41:00,43.8,34.7,29.95,SW,225,2.0,6.0,70,0.00,,,0.00,0,MyOwnSoftware,2013-04-28 00:41:00,
2013-04-28 01:42:00,43.8,34.7,29.95,SSW,202,4.0,7.0,70,0.00,,,0.00,0,MyOwnSoftware,2013-04-28 00:42:00,
2013-04-28 01:43:00,43.8,34.7,29.95,SW,225,6.0,10.0,70,0.00,,,0.00,0,MyOwnSoftware,2013-04-28 00:43:00,
2013-04-28 01:44:00,43.8,34.7,29.95,SW,225,4.0,7.0,70,0.00,,,0.00,0,MyOwnSoftware,2013-04-28 00:44:00,
2013-04-28 01:45:00,43.8,34.7,29.94,SW,225,1.0,6.0,70,0.00,,,0.00,0,MyOwnSoftware,2013-04-28 00:45:00,
2013-04-28 01:46:00,43.8,35.0,29.94,WSW,243,2.0,-999.0,70,-99.99,,,0.00,0,weatherlink.com 1.10,2013-04-28 00:46:00,
2013-04-28 01:47:00,43.8,34.7,29.94,SSE,158,3.0,6.0,70,0.00,,,0.00,0,MyOwnSoftware,2013-04-28 00:47:00,
2013-04-28 01:48:00,43.8,34.7,29.94,SSW,202,3.0,5.0,70,0.00,,,0.00,0,MyOwnSoftware,2013-04-28 00:48:00,
2013-04-28 01:49:00,43.8,34.7,29.94,North,0,3.0,5.0,70,0.00,,,0.00,0,MyOwnSoftware,2013-04-28 00:49:00,
2013-04-28 01:50:00,43.8,34.7,29.94,NNW,338,3.0,8.0,70,0.00,,,0.00,0,MyOwnSoftware,2013-04-28 00:50:00,
2013-04-28 01:51:00,43.8,34.7,29.94,ENE,68,3.0,7.0,70,0.00,,,0.00,0,MyOwnSoftware,2013-04-28 00:51:00,
2013-04-28 01:52:00,43.8,34.7,29.94,SW,225,3.0,6.0,70,0.00,,,0.00,0,MyOwnSoftware,2013-04-28 00:52:00,
2013-04-28 01:53:00,43.9,34.8,29.94,SW,225,3.0,6.0,70,0.00,,,0.00,0,MyOwnSoftware,2013-04-28 00:53:00,
2013-04-28 01:54:00,43.9,34.8,29.94,SSW,202,5.0,12.0,70,0.00,,,0.00,0,MyOwnSoftware,2013-04-28 00:54:00,
2013-04-28 01:55:00,43.9,34.8,29.94,SSE,158,5.0,8.0,70,0.00,,,0.00,0,MyOwnSoftware,2013-04-28 00:55:00,
2013-04-28 01:56:00,43.9,34.8,29.94,WNW,292,3.0,6.0,70,0.00,,,0.00,0,MyOwnSoftware,2013-04-28 00:56:00,
2013-04-28 01:57:00,43.9,34.8,29.94,SW,225,2.0,3.0,70,0.00,,,0.00,0,MyOwnSoftware,2013-04-28 00:57:00,
2013-04-28 01:58:00,43.9,34.8,29.94,SW,225,1.0,3.0,70,0.00,,,0.00,0,MyOwnSoftware,2013-04-28 00:58:00,
2013-04-28 01:59:00,43.9,34.8,29.94,North,0,2.0,3.0,70,0.00,,,0.00,0,MyOwnSoftware,2013-04-28 00:59:00,
2013-04-28 02:00:00,43.9,34.8,29.93,North,0,3.0,5.0,70,0.00,,,0.00,0,MyOwnSoftware,2013-04-28 01:00:00,
2013-04-28 02:01:00,43.9,35.0,29.93,WNW,284,4.0,-999.0,70,-99.99,,,0.00,0,weatherlink.com 1.10,2013-04-28 01:01:00,
2013-04-28 02:02:00,43.9,34.8,29.93,South,180,3.0,6.0,70,0.00,,,0.00,0,MyOwnSoftware,2013-04-28 01:02:00,
2013-04-28 02:03:00,43.9,34.8,29.93,NW,315,4.0,8.0,70,0.00,,,0.00,0,MyOwnSoftware,2013-04-28 01:03:00,
2013-04-28 02:04:00,43.9,34.8,29.93,SW,225,3.0,10.0,70,0.00,,,0.00,0,MyOwnSoftware,2013-04-28 01:04:00,
2013-04-28 02:05:00,43.9,34.8,29.93,ESE,112,5.0,12.0,70,0.00,,,0.00,0,MyOwnSoftware,2013-04-28 01:05:00,
2013-04-28 02:06:00,44.1,35.0,29.93,NNW,338,5.0,13.0,70,0.00,,,0.00,0,MyOwnSoftware,2013-04-28 01:06:00,
2013-04-28 02:07:00,44.1,35.0,29.93,SW,225,4.0,8.0,70,0.00,,,0.00,0,MyOwnSoftware,2013-04-28 01:07:00,
2013-04-28 02:08:00,44.1,35.0,29.93,SW,225,3.0,6.0,70,0.00,,,0.00,0,MyOwnSoftware,2013-04-28 01:08:00,
2013-04-28 02:09:00,44.1,35.0,29.93,North,0,3.0,5.0,70,0.00,,,0.00,0,MyOwnSoftware,2013-04-28 01:09:00,
2013-04-28 02:10:00,44.1,35.0,29.93,SW,225,4.0,6.0,70,0.00,,,0.00,0,MyOwnSoftware,2013-04-28 01:10:00,
2013-04-28 02:11:00,44.1,35.0,29.93,NW,315,3.0,6.0,70,0.00,,,0.00,0,MyOwnSoftware,2013-04-28 01:11:00,
2013-04-28 02:12:00,44.1,34.6,29.93,North,0,5.0,8.0,69,0.00,,,0.00,0,MyOwnSoftware,2013-04-28 01:12:00,
2013-04-28 02:13:00,44.1,35.0,29.93,SSW,202,2.0,5.0,70,0.00,,,0.00,0,MyOwnSoftware,2013-04-28 01:13:00,
2013-04-28 02:14:00,44.1,34.6,29.93,North,0,6.0,10.0,69,0.00,,,0.00,0,MyOwnSoftware,2013-04-28 01:14:00,
2013-04-28 02:15:00,44.1,34.6,29.92,North,0,2.0,4.0,69,0.00,,,0.00,0,MyOwnSoftware,2013-04-28 01:15:00,
2013-04-28 02:16:00,44.1,34.0,29.92,NNW,342,4.0,-999.0,69,-99.99,,,0.00,0,weatherlink.com 1.10,2013-04-28 01:16:00,
2013-04-28 02:17:00,44.1,34.6,29.92,WNW,292,2.0,6.0,69,0.00,,,0.00,0,MyOwnSoftware,2013-04-28 01:17:00,
2013-04-28 02:18:00,44.1,34.6,29.92,South,180,3.0,5.0,69,0.00,,,0.00,0,MyOwnSoftware,2013-04-28 01:18:00,
2013-04-28 02:19:00,44.1,34.6,29.92,NW,315,2.0,3.0,69,0.00,,,0.00,0,MyOwnSoftware,2013-04-28 01:19:00,
2013-04-28 02:20:00,44.1,34.6,29.92,North,0,4.0,6.0,69,0.00,,,0.00,0,MyOwnSoftware,2013-04-28 01:20:00,
2013-04-28 02:21:00,44.1,34.6,29.92,NW,315,4.0,7.0,69,0.00,,,0.00,0,MyOwnSoftware,2013-04-28 01:21:00,
2013-04-28 02:22:00,44.1,34.6,29.92,SW,225,4.0,7.0,69,0.00,,,0.00,0,MyOwnSoftware,2013-04-28 01:22:00,
2013-04-28 02:23:00,44.1,34.6,29.92,WNW,292,2.0,3.0,69,0.00,,,0.00,0,MyOwnSoftware,2013-04-28 01:23:00,
2013-04-28 02:24:00,44.1,34.6,29.92,SSW,202,5.0,12.0,69,0.00,,,0.00,0,MyOwnSoftware,2013-04-28 01:24:00,
2013-04-28 02:25:00,44.1,34.6,29.92,SW,225,8.0,11.0,69,0.00,,,0.00,0,MyOwnSoftware,2013-04-28 01:25:00,
2013-04-28 02:26:00,44.1,34.6,29.92,WNW,292,3.0,7.0,69,0.00,,,0.00,0,MyOwnSoftware,2013-04-28 01:26:00,
2013-04-28 02:27:00,44.1,34.6,29.92,WNW,292,2.0,3.0,69,0.00,,,0.00,0,MyOwnSoftware,2013-04-28 01:27:00,
2013-04-28 02:28:00,44.1,34.6,29.92,WSW,248,4.0,8.0,69,0.00,,,0.00,0,MyOwnSoftware,2013-04-28 01:28:00,
2013-04-28 02:29:00,44.1,34.6,29.92,NW,315,4.0,7.0,69,0.00,,,0.00,0,MyOwnSoftware,2013-04-28 01:29:00,
2013-04-28 02:30:00,44.1,34.2,29.90,WNW,292,5.0,10.0,68,0.00,,,0.00,0,MyOwnSoftware,2013-04-28 01:30:00,
2013-04-28 02:31:00,44.1,34.0,29.90,SSW,193,6.0,-999.0,68,-99.99,,,0.00,0,weatherlink.com 1.10,2013-04-28 01:31:00,
2013-04-28 02:32:00,44.1,34.2,29.90,SW,225,8.0,14.0,68,0.00,,,0.00,0,MyOwnSoftware,2013-04-28 01:32:00,
2013-04-28 02:33:00,44.1,34.2,29.90,WSW,248,7.0,12.0,68,0.00,,,0.00,0,MyOwnSoftware,2013-04-28 01:33:00,
2013-04-28 02:34:00,44.1,34.2,29.90,WSW,248,3.0,6.0,68,0.00,,,0.00,0,MyOwnSoftware,2013-04-28 01:34:00,
2013-04-28 02:35:00,44.1,33.9,29.90,WSW,248,5.0,7.0,67,0.00,,,0.00,0,MyOwnSoftware,2013-04-28 01:35:00,
2013-04-28 02:36:00,44.2,33.9,29.90,SW,225,6.0,11.0,67,0.00,,,0.00,0,MyOwnSoftware,2013-04-28 01:36:00,
2013-04-28 02:37:00,44.2,33.9,29.90,WNW,292,5.0,9.0,67,0.00,,,0.00,0,MyOwnSoftware,2013-04-28 01:37:00,
2013-04-28 02:38:00,44.2,33.9,29.90,SSE,158,4.0,7.0,67,0.00,,,0.00,0,MyOwnSoftware,2013-04-28 01:38:00,
2013-04-28 02:39:00,44.2,33.9,29.90,SSE,158,4.0,8.0,67,0.00,,,0.00,0,MyOwnSoftware,2013-04-28 01:39:00,
2013-04-28 02:40:00,44.2,33.9,29.90,West,270,4.0,7.0,67,0.00,,,0.00,0,MyOwnSoftware,2013-04-28 01:40:00,
2013-04-28 02:41:00,44.2,33.9,29.90,NW,315,5.0,10.0,67,0.00,,,0.00,0,MyOwnSoftware,2013-04-28 01:41:00,
2013-04-28 02:42:00,44.2,33.9,29.90,North,0,6.0,11.0,67,0.00,,,0.00,0,MyOwnSoftware,2013-04-28 01:42:00,
2013-04-28 02:43:00,44.2,33.9,29.90,North,0,5.0,8.0,67,0.00,,,0.00,0,MyOwnSoftware,2013-04-28 01:43:00,
2013-04-28 02:44:00,44.2,33.9,29.90,West,270,4.0,7.0,67,0.00,,,0.00,0,MyOwnSoftware,2013-04-28 01:44:00,
2013-04-28 02:45:00,44.2,33.9,29.90,SW,225,6.0,11.0,67,0.00,,,0.00,0,MyOwnSoftware,2013-04-28 01:45:00,
2013-04-28 02:46:00,44.3,34.0,29.90,SW,220,5.0,-999.0,67,-99.99,,,0.00,0,weatherlink.com 1.10,2013-04-28 01:46:00,
2013-04-28 02:47:00,44.3,34.0,29.90,WSW,248,2.0,5.0,67,0.00,,,0.00,0,MyOwnSoftware,2013-04-28 01:47:00,
2013-04-28 02:48:00,44.3,34.0,29.90,SE,135,2.0,7.0,67,0.00,,,0.00,0,MyOwnSoftware,2013-04-28 01:48:00,
2013-04-28 02:49:00,44.3,34.0,29.90,SE,135,3.0,7.0,67,0.00,,,0.00,0,MyOwnSoftware,2013-04-28 01:49:00,
2013-04-28 02:50:00,44.3,33.7,29.90,North,0,3.0,6.0,66,0.00,,,0.00,0,MyOwnSoftware,2013-04-28 01:50:00,
2013-04-28 02:51:00,44.3,34.0,29.90,South,180,2.0,5.0,67,0.00,,,0.00,0,MyOwnSoftware,2013-04-28 01:51:00,
2013-04-28 02:52:00,44.3,34.0,29.90,SW,225,2.0,4.0,67,0.00,,,0.00,0,MyOwnSoftware,2013-04-28 01:52:00,
2013-04-28 02:53:00,44.3,34.0,29.90,NW,315,4.0,8.0,67,0.00,,,0.00,0,MyOwnSoftware,2013-04-28 01:53:00,
2013-04-28 02:54:00,44.3,34.0,29.90,SSW,202,4.0,10.0,67,0.00,,,0.00,0,MyOwnSoftware,2013-04-28 01:54:00,
2013-04-28 02:55:00,44.3,33.7,29.90,North,0,4.0,5.0,66,0.00,,,0.00,0,MyOwnSoftware,2013-04-28 01:55:00,
2013-04-28 02:56:00,44.3,33.7,29.90,SSE,158,5.0,10.0,66,0.00,,,0.00,0,MyOwnSoftware,2013-04-28 01:56:00,
2013-04-28 02:57:00,44.3,33.7,29.90,ENE,68,5.0,11.0,66,0.00,,,0.00,0,MyOwnSoftware,2013-04-28 01:57:00,
2013-04-28 02:58:00,44.3,33.7,29.90,North,0,5.0,9.0,66,0.00,,,0.00,0,MyOwnSoftware,2013-04-28 01:58:00,
2013-04-28 02:59:00,44.3,33.7,29.90,WSW,248,3.0,4.0,66,0.00,,,0.00,0,MyOwnSoftware,2013-04-28 01:59:00,
2013-04-28 03:00:00,44.3,33.3,29.89,SSW,202,4.0,7.0,65,0.00,,,0.00,0,MyOwnSoftware,2013-04-28 02:00:00,
2013-04-28 03:01:00,44.3,33.0,29.89,SSW,209,5.0,-999.0,65,-99.99,,,0.00,0,weatherlink.com 1.10,2013-04-28 02:01:00,
2013-04-28 03:02:00,44.3,33.3,29.89,SW,225,4.0,9.0,65,0.00,,,0.00,0,MyOwnSoftware,2013-04-28 02:02:00,
2013-04-28 03:03:00,44.3,33.3,29.89,NW,315,2.0,4.0,65,0.00,,,0.00,0,MyOwnSoftware,2013-04-28 02:03:00,
2013-04-28 03:04:00,44.3,33.3,29.89,WSW,248,3.0,6.0,65,0.00,,,0.00,0,MyOwnSoftware,2013-04-28 02:04:00,
2013-04-28 03:05:00,44.3,33.3,29.89,West,270,2.0,6.0,65,0.00,,,0.00,0,MyOwnSoftware,2013-04-28 02:05:00,
2013-04-28 03:06:00,44.3,33.3,29.89,WNW,292,5.0,11.0,65,0.00,,,0.00,0,MyOwnSoftware,2013-04-28 02:06:00,
2013-04-28 03:07:00,44.3,33.3,29.89,SSW,202,5.0,8.0,65,0.00,,,0.00,0,MyOwnSoftware,2013-04-28 02:07:00,
2013-04-28 03:08:00,44.3,33.3,29.89,North,0,5.0,10.0,65,0.00,,,0.00,0,MyOwnSoftware,2013-04-28 02:08:00,
2013-04-28 03:09:00,44.3,33.3,29.89,WNW,292,5.0,10.0,65,0.00,,,0.00,0,MyOwnSoftware,2013-04-28 02:09:00,
2013-04-28 03:10:00,44.3,32.9,29.89,WNW,292,3.0,6.0,64,0.00,,,0.00,0,MyOwnSoftware,2013-04-28 02:10:00,
2013-04-28 03:11:00,44.3,32.9,29.89,NW,315,3.0,7.0,64,0.00,,,0.00,0,MyOwnSoftware,2013-04-28 02:11:00,
2013-04-28 03:12:00,44.3,32.9,29.89,NNW,338,2.0,3.0,64,0.00,,,0.00,0,MyOwnSoftware,2013-04-28 02:12:00,
2013-04-28 03:13:00,44.3,32.9,29.89,North,0,6.0,10.0,64,0.00,,,0.00,0,MyOwnSoftware,2013-04-28 02:13:00,
2013-04-28 03:14:00,44.3,32.9,29.89,WSW,248,6.0,10.0,64,0.00,,,0.00,0,MyOwnSoftware,2013-04-28 02:14:00,
2013-04-28 03:15:00,44.3,32.9,29.87,SW,225,5.0,7.0,64,0.00,,,0.00,0,MyOwnSoftware,2013-04-28 02:15:00,
2013-04-28 03:16:00,44.5,33.0,29.87,North,0,2.0,-999.0,64,-99.99,,,0.00,0,weatherlink.com 1.10,2013-04-28 02:16:00,
2013-04-28 03:17:00,44.5,33.1,29.87,North,0,2.0,4.0,64,0.00,,,0.00,0,MyOwnSoftware,2013-04-28 02:17:00,
2013-04-28 03:18:00,44.5,33.1,29.87,SSW,202,3.0,6.0,64,0.00,,,0.00,0,MyOwnSoftware,2013-04-28 02:18:00,
2013-04-28 03:19:00,44.5,33.1,29.87,SSW,202,2.0,6.0,64,0.00,,,0.00,0,MyOwnSoftware,2013-04-28 02:19:00,
2013-04-28 03:20:00,44.5,33.1,29.87,WNW,292,3.0,7.0,64,0.00,,,0.00,0,MyOwnSoftware,2013-04-28 02:20:00,
2013-04-28 03:21:00,44.5,33.1,29.87,SW,225,4.0,7.0,64,0.00,,,0.00,0,MyOwnSoftware,2013-04-28 02:21:00,
2013-04-28 03:22:00,44.5,33.5,29.87,North,0,5.0,10.0,65,0.00,,,0.00,0,MyOwnSoftware,2013-04-28 02:22:00,
2013-04-28 03:23:00,44.5,33.5,29.87,South,180,6.0,11.0,65,0.00,,,0.00,0,MyOwnSoftware,2013-04-28 02:23:00,
2013-04-28 03:24:00,44.5,33.5,29.87,North,0,5.0,7.0,65,0.00,,,0.00,0,MyOwnSoftware,2013-04-28 02:24:00,
2013-04-28 03:25:00,44.5,33.5,29.87,North,0,5.0,7.0,65,0.00,,,0.00,0,MyOwnSoftware,2013-04-28 02:25:00,
2013-04-28 03:26:00,44.5,33.5,29.87,North,0,6.0,10.0,65,0.00,,,0.00,0,MyOwnSoftware,2013-04-28 02:26:00,
2013-04-28 03:27:00,44.5,33.5,29.87,NW,315,5.0,10.0,65,0.00,,,0.00,0,MyOwnSoftware,2013-04-28 02:27:00,
2013-04-28 03:28:00,44.5,33.5,29.87,SW,225,4.0,8.0,65,0.00,,,0.00,0,MyOwnSoftware,2013-04-28 02:28:00,
2013-04-28 03:29:00,44.5,33.5,29.87,South,180,6.0,12.0,65,0.00,,,0.00,0,MyOwnSoftware,2013-04-28 02:29:00,
2013-04-28 03:30:00,44.5,33.5,29.86,SSW,202,6.0,12.0,65,0.00,,,0.00,0,MyOwnSoftware,2013-04-28 02:30:00,
2013-04-28 03:31:00,44.5,34.0,29.86,SW,233,5.0,-999.0,66,-99.99,,,0.00,0,weatherlink.com 1.10,2013-04-28 02:31:00,
2013-04-28 03:32:00,44.5,33.9,29.86,South,180,7.0,13.0,66,0.00,,,0.00,0,MyOwnSoftware,2013-04-28 02:32:00,
2013-04-28 03:33:00,44.5,33.9,29.86,South,180,6.0,10.0,66,0.00,,,0.00,0,MyOwnSoftware,2013-04-28 02:33:00,
2013-04-28 03:34:00,44.5,33.9,29.86,NW,315,3.0,5.0,66,0.00,,,0.00,0,MyOwnSoftware,2013-04-28 02:34:00,
2013-04-28 03:35:00,44.5,33.9,29.86,WNW,292,2.0,5.0,66,0.00,,,0.00,0,MyOwnSoftware,2013-04-28 02:35:00,
2013-04-28 03:36:00,44.5,33.9,29.86,SW,225,1.0,3.0,66,0.00,,,0.00,0,MyOwnSoftware,2013-04-28 02:36:00,
2013-04-28 03:37:00,44.5,33.9,29.86,SSW,202,3.0,8.0,66,0.00,,,0.00,0,MyOwnSoftware,2013-04-28 02:37:00,
2013-04-28 03:38:00,44.5,33.9,29.86,NW,315,4.0,8.0,66,0.00,,,0.00,0,MyOwnSoftware,2013-04-28 02:38:00,
2013-04-28 03:39:00,44.5,34.2,29.86,West,270,6.0,11.0,67,0.00,,,0.00,0,MyOwnSoftware,2013-04-28 02:39:00,
2013-04-28 03:40:00,44.5,34.2,29.86,SSW,202,6.0,9.0,67,0.00,,,0.00,0,MyOwnSoftware,2013-04-28 02:40:00,
2013-04-28 03:41:00,44.5,34.2,29.86,North,0,6.0,11.0,67,0.00,,,0.00,0,MyOwnSoftware,2013-04-28 02:41:00,
2013-04-28 03:42:00,44.5,34.2,29.86,North,0,4.0,7.0,67,0.00,,,0.00,0,MyOwnSoftware,2013-04-28 02:42:00,
2013-04-28 03:43:00,44.5,34.2,29.86,North,0,4.0,6.0,67,0.00,,,0.00,0,MyOwnSoftware,2013-04-28 02:43:00,
2013-04-28 03:44:00,44.3,34.4,29.86,SE,135,5.0,8.0,68,0.00,,,0.00,0,MyOwnSoftware,2013-04-28 02:44:00,
2013-04-28 03:45:00,44.3,34.4,29.85,North,0,6.0,8.0,68,0.00,,,0.00,0,MyOwnSoftware,2013-04-28 02:45:00,
2013-04-28 03:46:00,44.3,35.0,29.85,NW,308,6.0,-999.0,69,-99.99,,,0.00,0,weatherlink.com 1.10,2013-04-28 02:46:00,
2013-04-28 03:47:00,44.3,34.8,29.85,North,0,6.0,10.0,69,0.00,,,0.00,0,MyOwnSoftware,2013-04-28 02:47:00,
2013-04-28 03:48:00,44.3,34.8,29.85,WNW,292,5.0,8.0,69,0.00,,,0.00,0,MyOwnSoftware,2013-04-28 02:48:00,
2013-04-28 03:49:00,44.3,35.1,29.85,SSW,202,7.0,12.0,70,0.00,,,0.00,0,MyOwnSoftware,2013-04-28 02:49:00,
2013-04-28 03:50:00,44.2,35.0,29.85,North,0,3.0,6.0,70,0.00,,,0.00,0,MyOwnSoftware,2013-04-28 02:50:00,
2013-04-28 03:51:00,44.2,35.4,29.85,North,0,4.0,8.0,71,0.00,,,0.00,0,MyOwnSoftware,2013-04-28 02:51:00,
2013-04-28 03:52:00,44.2,35.4,29.85,North,0,3.0,5.0,71,0.00,,,0.00,0,MyOwnSoftware,2013-04-28 02:52:00,
2013-04-28 03:53:00,44.2,35.4,29.85,South,180,3.0,8.0,71,0.00,,,0.00,0,MyOwnSoftware,2013-04-28 02:53:00,
2013-04-28 03:54:00,44.2,35.8,29.85,ENE,68,6.0,9.0,72,0.00,,,0.00,0,MyOwnSoftware,2013-04-28 02:54:00,
2013-04-28 03:55:00,44.1,36.0,29.85,West,270,6.0,11.0,73,0.00,,,0.00,0,MyOwnSoftware,2013-04-28 02:55:00,
2013-04-28 03:56:00,44.1,36.0,29.85,NW,315,5.0,10.0,73,0.00,,,0.00,0,MyOwnSoftware,2013-04-28 02:56:00,
2013-04-28 03:57:00,44.1,36.4,29.85,North,0,5.0,11.0,74,0.00,,,0.00,0,MyOwnSoftware,2013-04-28 02:57:00,
2013-04-28 03:58:00,44.1,36.4,29.85,North,0,6.0,9.0,74,0.00,,,0.00,0,MyOwnSoftware,2013-04-28 02:58:00,
2013-04-28 03:59:00,43.9,36.5,29.85,North,0,6.0,8.0,75,0.00,,,0.00,0,MyOwnSoftware,2013-04-28 02:59:00,
2013-04-28 04:00:00,43.9,36.8,29.85,North,0,6.0,10.0,76,0.00,,,0.00,0,MyOwnSoftware,2013-04-28 03:00:00,
2013-04-28 04:01:00,43.9,37.0,29.85,SW,234,4.0,-999.0,77,-99.99,,,0.00,0,weatherlink.com 1.10,2013-04-28 03:01:00,
2013-04-28 04:02:00,43.9,37.2,29.85,West,270,5.0,7.0,77,0.00,,,0.00,0,MyOwnSoftware,2013-04-28 03:02:00,
2013-04-28 04:03:00,43.8,37.1,29.85,NW,315,4.0,10.0,77,0.00,,,0.00,0,MyOwnSoftware,2013-04-28 03:03:00,
2013-04-28 04:04:00,43.8,37.4,29.85,WNW,292,4.0,8.0,78,0.00,,,0.00,0,MyOwnSoftware,2013-04-28 03:04:00,
2013-04-28 04:05:00,43.8,37.7,29.85,SW,225,3.0,6.0,79,0.00,,,0.00,0,MyOwnSoftware,2013-04-28 03:05:00,
2013-04-28 04:06:00,43.8,38.0,29.85,SSW,202,5.0,10.0,80,0.00,,,0.00,0,MyOwnSoftware,2013-04-28 03:06:00,
2013-04-28 04:07:00,43.8,38.0,29.85,West,270,3.0,6.0,80,0.00,,,0.00,0,MyOwnSoftware,2013-04-28 03:07:00,
2013-04-28 04:08:00,43.8,38.4,29.85,SW,225,4.0,8.0,81,0.00,,,0.00,0,MyOwnSoftware,2013-04-28 03:08:00,
2013-04-28 04:09:00,43.8,38.7,29.85,West,270,4.0,8.0,82,0.00,,,0.00,0,MyOwnSoftware,2013-04-28 03:09:00,
2013-04-28 04:10:00,43.8,39.0,29.85,NW,315,5.0,8.0,83,0.00,,,0.00,0,MyOwnSoftware,2013-04-28 03:10:00,
2013-04-28 04:11:00,43.6,39.1,29.85,North,0,6.0,10.0,84,0.00,,,0.00,0,MyOwnSoftware,2013-04-28 03:11:00,
2013-04-28 04:12:00,43.6,39.1,29.85,WSW,248,4.0,7.0,84,0.00,,,0.00,0,MyOwnSoftware,2013-04-28 03:12:00,
2013-04-28 04:13:00,43.6,39.1,29.85,NNW,338,4.0,12.0,84,0.00,,,0.00,0,MyOwnSoftware,2013-04-28 03:13:00,
2013-04-28 04:14:00,43.6,39.1,29.85,NW,315,2.0,4.0,84,0.00,,,0.00,0,MyOwnSoftware,2013-04-28 03:14:00,
2013-04-28 04:15:00,43.6,39.4,29.85,North,0,5.0,10.0,85,0.00,,,0.00,0,MyOwnSoftware,2013-04-28 03:15:00,
2013-04-28 04:16:00,43.6,39.0,29.85,East,82,8.0,-999.0,85,-99.99,,,0.00,0,weatherlink.com 1.10,2013-04-28 03:16:00,
2013-04-28 04:17:00,43.6,39.4,29.85,North,0,5.0,8.0,85,0.00,,,0.00,0,MyOwnSoftware,2013-04-28 03:17:00,
2013-04-28 04:18:00,43.6,39.4,29.85,WSW,248,7.0,11.0,85,0.00,,,0.00,0,MyOwnSoftware,2013-04-28 03:18:00,
2013-04-28 04:19:00,43.6,39.4,29.85,North,0,5.0,8.0,85,0.00,,,0.00,0,MyOwnSoftware,2013-04-28 03:19:00,
2013-04-28 04:20:00,43.6,39.4,29.85,North,0,4.0,7.0,85,0.00,,,0.00,0,MyOwnSoftware,2013-04-28 03:20:00,
2013-04-28 04:21:00,43.5,39.3,29.85,North,0,4.0,6.0,85,0.00,,,0.00,0,MyOwnSoftware,2013-04-28 03:21:00,
2013-04-28 04:22:00,43.5,39.3,29.85,North,0,4.0,7.0,85,0.00,,,0.00,0,MyOwnSoftware,2013-04-28 03:22:00,
2013-04-28 04:23:00,43.5,39.6,29.85,SSE,158,5.0,11.0,86,0.00,,,0.00,0,MyOwnSoftware,2013-04-28 03:23:00,
2013-04-28 04:24:00,43.5,39.6,29.85,West,270,5.0,13.0,86,0.00,,,0.00,0,MyOwnSoftware,2013-04-28 03:24:00,
2013-04-28 04:25:00,43.5,39.6,29.85,North,0,6.0,10.0,86,0.00,,,0.00,0,MyOwnSoftware,2013-04-28 03:25:00,
2013-04-28 04:26:00,43.5,39.6,29.85,NNW,338,4.0,10.0,86,0.00,,,0.00,0,MyOwnSoftware,2013-04-28 03:26:00,
2013-04-28 04:27:00,43.5,39.9,29.85,North,0,6.0,8.0,87,0.00,,,0.00,0,MyOwnSoftware,2013-04-28 03:27:00,
2013-04-28 04:28:00,43.5,39.9,29.85,WNW,292,6.0,10.0,87,0.00,,,0.00,0,MyOwnSoftware,2013-04-28 03:28:00,
2013-04-28 04:29:00,43.5,39.9,29.85,North,0,7.0,13.0,87,0.00,,,0.00,0,MyOwnSoftware,2013-04-28 03:29:00,
2013-04-28 04:30:00,43.5,40.2,29.84,North,0,3.0,8.0,88,0.00,,,0.00,0,MyOwnSoftware,2013-04-28 03:30:00,
2013-04-28 04:31:00,43.5,40.0,29.84,SE,136,6.0,-999.0,88,-99.99,,,0.00,0,weatherlink.com 1.10,2013-04-28 03:31:00,
2013-04-28 04:32:00,43.5,40.2,29.84,South,180,5.0,11.0,88,0.00,,,0.00,0,MyOwnSoftware,2013-04-28 03:32:00,
2013-04-28 04:33:00,43.5,40.2,29.84,NNW,338,2.0,3.0,88,0.00,,,0.00,0,MyOwnSoftware,2013-04-28 03:33:00,
2013-04-28 04:34:00,43.5,40.2,29.84,North,0,3.0,6.0,88,0.00,,,0.00,0,MyOwnSoftware,2013-04-28 03:34:00,
2013-04-28 04:35:00,43.5,40.2,29.84,SSW,202,4.0,8.0,88,0.00,,,0.00,0,MyOwnSoftware,2013-04-28 03:35:00,
2013-04-28 04:36:00,43.5,40.2,29.84,North,0,4.0,8.0,88,0.00,,,0.00,0,MyOwnSoftware,2013-04-28 03:36:00,
2013-04-28 04:37:00,43.5,40.5,29.84,North,0,5.0,7.0,89,0.00,,,0.00,0,MyOwnSoftware,2013-04-28 03:37:00,
2013-04-28 04:38:00,43.5,40.5,29.84,West,270,6.0,12.0,89,0.00,,,0.00,0,MyOwnSoftware,2013-04-28 03:38:00,
2013-04-28 04:39:00,43.5,40.5,29.84,North,0,4.0,7.0,89,0.00,,,0.00,0,MyOwnSoftware,2013-04-28 03:39:00,
2013-04-28 04:40:00,43.3,40.3,29.84,North,0,5.0,10.0,89,0.00,,,0.00,0,MyOwnSoftware,2013-04-28 03:40:00,
2013-04-28 04:41:00,43.3,40.3,29.84,South,180,3.0,7.0,89,0.00,,,0.00,0,MyOwnSoftware,2013-04-28 03:41:00,
2013-04-28 04:42:00,43.3,40.6,29.84,SW,225,5.0,8.0,90,0.00,,,0.00,0,MyOwnSoftware,2013-04-28 03:42:00,
2013-04-28 04:43:00,43.3,40.6,29.84,North,0,5.0,8.0,90,0.00,,,0.00,0,MyOwnSoftware,2013-04-28 03:43:00,
2013-04-28 04:44:00,43.3,40.6,29.84,West,270,5.0,7.0,90,0.00,,,0.00,0,MyOwnSoftware,2013-04-28 03:44:00,
2013-04-28 04:45:00,43.3,40.6,29.82,North,0,4.0,6.0,90,0.00,,,0.00,0,MyOwnSoftware,2013-04-28 03:45:00,
2013-04-28 04:46:00,43.3,41.0,29.82,East,100,5.0,-999.0,90,-99.99,,,0.00,0,weatherlink.com 1.10,2013-04-28 03:46:00,
2013-04-28 04:47:00,43.3,40.6,29.82,North,0,6.0,10.0,90,0.00,,,0.00,0,MyOwnSoftware,2013-04-28 03:47:00,
2013-04-28 04:48:00,43.3,40.6,29.82,SE,135,4.0,6.0,90,0.00,,,0.00,0,MyOwnSoftware,2013-04-28 03:48:00,
2013-04-28 04:49:00,43.3,40.9,29.82,SE,135,4.0,10.0,91,0.00,,,0.00,0,MyOwnSoftware,2013-04-28 03:49:00,
2013-04-28 04:50:00,43.3,40.9,29.82,North,0,4.0,7.0,91,0.00,,,0.00,0,MyOwnSoftware,2013-04-28 03:50:00,
2013-04-28 04:51:00,43.3,40.9,29.82,North,0,7.0,11.0,91,0.00,,,0.00,0,MyOwnSoftware,2013-04-28 03:51:00,
2013-04-28 04:52:00,43.2,40.8,29.82,South,180,7.0,11.0,91,0.00,,,0.00,0,MyOwnSoftware,2013-04-28 03:52:00,
2013-04-28 04:53:00,43.2,40.8,29.82,North,0,7.0,13.0,91,0.00,,,0.00,0,MyOwnSoftware,2013-04-28 03:53:00,
2013-04-28 04:54:00,43.2,40.8,29.82,North,0,4.0,7.0,91,0.00,,,0.00,0,MyOwnSoftware,2013-04-28 03:54:00,
2013-04-28 04:55:00,43.2,40.8,29.82,NNE,22,5.0,7.0,91,0.00,,,0.00,0,MyOwnSoftware,2013-04-28 03:55:00,
2013-04-28 04:56:00,43.2,40.8,29.82,WSW,248,5.0,8.0,91,0.00,,,0.00,0,MyOwnSoftware,2013-04-28 03:56:00,
2013-04-28 04:57:00,43.2,40.8,29.82,North,0,6.0,11.0,91,0.00,,,0.00,0,MyOwnSoftware,2013-04-28 03:57:00,
2013-04-28 04:58:00,43.2,40.8,29.82,WSW,248,6.0,10.0,91,0.00,,,0.00,0,MyOwnSoftware,2013-04-28 03:58:00,
2013-04-28 04:59:00,43.3,40.9,29.82,North,0,5.0,12.0,91,0.00,,,0.00,0,MyOwnSoftware,2013-04-28 03:59:00,
2013-04-28 05:00:00,43.3,40.9,29.82,North,0,5.0,8.0,91,0.00,,,0.00,0,MyOwnSoftware,2013-04-28 04:00:00,
2013-04-28 05:01:00,43.3,41.0,29.82,North,0,5.0,-999.0,91,-99.99,,,0.00,0,weatherlink.com 1.10,2013-04-28 04:01:00,
2013-04-28 05:02:00,43.3,40.9,29.82,North,0,7.0,10.0,91,0.00,,,0.00,0,MyOwnSoftware,2013-04-28 04:02:00,
2013-04-28 05:03:00,43.3,41.1,29.82,North,0,5.0,7.0,92,0.00,,,0.00,0,MyOwnSoftware,2013-04-28 04:03:00,
2013-04-28 05:04:00,43.3,40.9,29.82,North,0,4.0,6.0,91,0.00,,,0.00,0,MyOwnSoftware,2013-04-28 04:04:00,
2013-04-28 05:05:00,43.3,41.1,29.82,NW,315,4.0,7.0,92,0.00,,,0.00,0,MyOwnSoftware,2013-04-28 04:05:00,
2013-04-28 05:06:00,43.3,41.1,29.82,SSW,202,6.0,12.0,92,0.00,,,0.00,0,MyOwnSoftware,2013-04-28 04:06:00,
2013-04-28 05:07:00,43.3,41.1,29.82,North,0,3.0,6.0,92,0.00,,,0.00,0,MyOwnSoftware,2013-04-28 04:07:00,
2013-04-28 05:08:00,43.5,41.3,29.82,SW,225,4.0,8.0,92,0.00,,,0.00,0,MyOwnSoftware,2013-04-28 04:08:00,
2013-04-28 05:09:00,43.5,41.3,29.82,North,0,7.0,11.0,92,0.00,,,0.00,0,MyOwnSoftware,2013-04-28 04:09:00,
2013-04-28 05:10:00,43.5,41.3,29.82,SSW,202,5.0,12.0,92,0.00,,,0.00,0,MyOwnSoftware,2013-04-28 04:10:00,
2013-04-28 05:11:00,43.5,41.3,29.82,East,90,5.0,11.0,92,0.00,,,0.00,0,MyOwnSoftware,2013-04-28 04:11:00,
2013-04-28 05:12:00,43.5,41.3,29.82,North,0,7.0,17.0,92,0.00,,,0.00,0,MyOwnSoftware,2013-04-28 04:12:00,
2013-04-28 05:13:00,43.5,41.3,29.82,West,270,6.0,12.0,92,0.00,,,0.00,0,MyOwnSoftware,2013-04-28 04:13:00,
2013-04-28 05:14:00,43.6,41.4,29.82,North,0,6.0,10.0,92,0.00,,,0.00,0,MyOwnSoftware,2013-04-28 04:14:00,
2013-04-28 05:15:00,43.6,41.4,29.80,NNE,22,4.0,7.0,92,0.00,,,0.00,0,MyOwnSoftware,2013-04-28 04:15:00,
2013-04-28 05:16:00,43.6,41.0,29.80,West,260,7.0,-999.0,91,-99.99,,,0.00,0,weatherlink.com 1.10,2013-04-28 04:16:00,
2013-04-28 05:17:00,43.6,41.1,29.80,WNW,292,5.0,10.0,91,0.00,,,0.00,0,MyOwnSoftware,2013-04-28 04:17:00,
2013-04-28 05:18:00,43.8,41.6,29.80,North,0,7.0,12.0,92,0.00,,,0.00,0,MyOwnSoftware,2013-04-28 04:18:00,
2013-04-28 05:19:00,43.8,41.3,29.80,North,0,7.0,12.0,91,0.00,,,0.00,0,MyOwnSoftware,2013-04-28 04:19:00,
2013-04-28 05:20:00,43.8,41.3,29.80,SSW,202,8.0,18.0,91,0.00,,,0.00,0,MyOwnSoftware,2013-04-28 04:20:00,
2013-04-28 05:21:00,43.8,41.3,29.80,NNW,338,6.0,11.0,91,0.00,,,0.00,0,MyOwnSoftware,2013-04-28 04:21:00,
2013-04-28 05:22:00,43.8,41.3,29.80,NW,315,6.0,10.0,91,0.00,,,0.00,0,MyOwnSoftware,2013-04-28 04:22:00,
2013-04-28 05:23:00,43.8,41.3,29.80,North,0,7.0,12.0,91,0.00,,,0.00,0,MyOwnSoftware,2013-04-28 04:23:00,
2013-04-28 05:24:00,43.9,41.4,29.80,North,0,6.0,8.0,91,0.00,,,0.00,0,MyOwnSoftware,2013-04-28 04:24:00,
2013-04-28 05:25:00,43.9,41.4,29.80,SSW,202,4.0,7.0,91,0.00,,,0.00,0,MyOwnSoftware,2013-04-28 04:25:00,
2013-04-28 05:26:00,43.9,41.4,29.80,North,0,7.0,14.0,91,0.00,,,0.00,0,MyOwnSoftware,2013-04-28 04:26:00,
2013-04-28 05:27:00,43.9,41.4,29.80,North,0,6.0,10.0,91,0.00,,,0.00,0,MyOwnSoftware,2013-04-28 04:27:00,
2013-04-28 05:28:00,43.9,41.4,29.80,North,0,8.0,18.0,91,0.00,,,0.00,0,MyOwnSoftware,2013-04-28 04:28:00,
2013-04-28 05:29:00,43.9,41.4,29.80,North,0,5.0,8.0,91,0.00,,,0.00,0,MyOwnSoftware,2013-04-28 04:29:00,
2013-04-28 05:30:00,44.1,41.6,29.79,North,0,5.0,10.0,91,0.00,,,0.00,0,MyOwnSoftware,2013-04-28 04:30:00,
2013-04-28 05:31:00,44.1,41.6,29.79,North,0,6.0,9.0,91,0.00,,,0.00,0,MyOwnSoftware,2013-04-28 04:31:00,
2013-04-28 05:32:00,44.1,42.0,29.79,NNW,333,2.0,-999.0,91,-99.99,,,0.00,0,weatherlink.com 1.10,2013-04-28 04:32:00,
2013-04-28 05:33:00,44.1,41.6,29.79,NW,315,4.0,7.0,91,0.00,,,0.00,0,MyOwnSoftware,2013-04-28 04:33:00,
2013-04-28 05:34:00,44.1,41.6,29.79,North,0,5.0,10.0,91,0.00,,,0.00,0,MyOwnSoftware,2013-04-28 04:34:00,
2013-04-28 05:35:00,44.1,41.6,29.79,North,0,5.0,7.0,91,0.00,,,0.00,0,MyOwnSoftware,2013-04-28 04:35:00,
2013-04-28 05:36:00,44.2,41.7,29.79,North,0,6.0,8.0,91,0.00,,,0.00,0,MyOwnSoftware,2013-04-28 04:36:00,
2013-04-28 05:37:00,44.2,41.7,29.79,North,0,5.0,8.0,91,0.00,,,0.00,0,MyOwnSoftware,2013-04-28 04:37:00,
2013-04-28 05:38:00,44.2,41.7,29.79,North,0,5.0,10.0,91,0.00,,,0.00,0,MyOwnSoftware,2013-04-28 04:38:00,
2013-04-28 05:39:00,44.2,41.7,29.79,North,0,6.0,10.0,91,0.00,,,0.00,5,MyOwnSoftware,2013-04-28 04:39:00,
2013-04-28 05:40:00,44.2,41.7,29.79,WSW,248,6.0,11.0,91,0.00,,,0.00,5,MyOwnSoftware,2013-04-28 04:40:00,
2013-04-28 05:41:00,44.3,41.8,29.79,North,0,4.0,6.0,91,0.00,,,0.00,5,MyOwnSoftware,2013-04-28 04:41:00,
2013-04-28 05:42:00,44.3,41.8,29.79,North,0,6.0,10.0,91,0.00,,,0.00,5,MyOwnSoftware,2013-04-28 04:42:00,
2013-04-28 05:43:00,44.3,41.8,29.79,North,0,5.0,8.0,91,0.00,,,0.00,7,MyOwnSoftware,2013-04-28 04:43:00,
2013-04-28 05:44:00,44.3,41.8,29.79,West,270,5.0,10.0,91,0.00,,,0.00,7,MyOwnSoftware,2013-04-28 04:44:00,
2013-04-28 05:45:00,44.3,41.8,29.78,North,0,5.0,7.0,91,0.00,,,0.00,7,MyOwnSoftware,2013-04-28 04:45:00,
2013-04-28 05:46:00,44.3,41.8,29.78,North,0,7.0,11.0,91,0.00,,,0.00,7,MyOwnSoftware,2013-04-28 04:46:00,
2013-04-28 05:47:00,44.5,42.0,29.78,NW,316,8.0,-999.0,91,-99.99,,,0.00,7,weatherlink.com 1.10,2013-04-28 04:47:00,
2013-04-28 05:48:00,44.5,42.0,29.78,North,0,6.0,8.0,91,0.00,,,0.00,7,MyOwnSoftware,2013-04-28 04:48:00,
2013-04-28 05:49:00,44.5,42.0,29.78,East,90,3.0,7.0,91,0.00,,,0.00,7,MyOwnSoftware,2013-04-28 04:49:00,
2013-04-28 05:50:00,44.5,42.0,29.78,NNE,22,5.0,11.0,91,0.00,,,0.00,7,MyOwnSoftware,2013-04-28 04:50:00,
2013-04-28 05:51:00,44.5,42.0,29.78,North,0,3.0,7.0,91,0.00,,,0.00,9,MyOwnSoftware,2013-04-28 04:51:00,
2013-04-28 05:52:00,44.5,42.0,29.78,North,0,5.0,8.0,91,0.00,,,0.00,11,MyOwnSoftware,2013-04-28 04:52:00,
2013-04-28 05:53:00,44.5,42.0,29.78,North,0,8.0,13.0,91,0.00,,,0.00,11,MyOwnSoftware,2013-04-28 04:53:00,
2013-04-28 05:54:00,44.5,42.0,29.78,North,0,8.0,13.0,91,0.00,,,0.00,11,MyOwnSoftware,2013-04-28 04:54:00,
2013-04-28 05:55:00,44.5,42.0,29.78,WSW,248,8.0,12.0,91,0.00,,,0.00,11,MyOwnSoftware,2013-04-28 04:55:00,
2013-04-28 05:56:00,44.5,42.0,29.78,North,0,7.0,11.0,91,0.00,,,0.00,14,MyOwnSoftware,2013-04-28 04:56:00,
2013-04-28 05:57:00,44.5,42.0,29.78,North,0,9.0,13.0,91,0.00,,,0.00,14,MyOwnSoftware,2013-04-28 04:57:00,
2013-04-28 05:58:00,44.5,42.0,29.78,North,0,9.0,17.0,91,0.00,,,0.00,14,MyOwnSoftware,2013-04-28 04:58:00,
2013-04-28 05:59:00,44.5,42.0,29.78,WSW,248,9.0,17.0,91,0.00,,,0.00,14,MyOwnSoftware,2013-04-28 04:59:00,
2013-04-28 06:00:00,44.5,42.0,29.77,North,0,6.0,17.0,91,0.00,,,0.00,18,MyOwnSoftware,2013-04-28 05:00:00,
2013-04-28 06:01:00,44.5,42.0,29.77,North,0,5.0,8.0,91,0.00,,,0.00,18,MyOwnSoftware,2013-04-28 05:01:00,
2013-04-28 06:02:00,44.5,42.0,29.77,NW,304,6.0,-999.0,91,-99.99,,,0.00,18,weatherlink.com 1.10,2013-04-28 05:02:00,
2013-04-28 06:03:00,44.5,42.0,29.77,SE,135,4.0,8.0,91,0.00,,,0.00,18,MyOwnSoftware,2013-04-28 05:03:00,
2013-04-28 06:04:00,44.5,42.0,29.77,SSW,202,4.0,7.0,91,0.00,,,0.00,21,MyOwnSoftware,2013-04-28 05:04:00,
2013-04-28 06:05:00,44.5,42.0,29.77,NNW,338,7.0,13.0,91,0.00,,,0.00,21,MyOwnSoftware,2013-04-28 05:05:00,
2013-04-28 06:06:00,44.5,42.0,29.77,WNW,292,7.0,12.0,91,0.00,,,0.00,21,MyOwnSoftware,2013-04-28 05:06:00,
2013-04-28 06:07:00,44.5,42.0,29.77,NNE,22,8.0,15.0,91,0.00,,,0.00,21,MyOwnSoftware,2013-04-28 05:07:00,
2013-04-28 06:08:00,44.5,42.3,29.77,NNE,22,6.0,11.0,92,0.00,,,0.00,40,MyOwnSoftware,2013-04-28 05:08:00,
2013-04-28 06:09:00,44.5,42.3,29.77,North,0,6.0,12.0,92,0.00,,,0.00,40,MyOwnSoftware,2013-04-28 05:09:00,
2013-04-28 06:10:00,44.5,42.3,29.77,North,0,6.0,10.0,92,0.00,,,0.00,40,MyOwnSoftware,2013-04-28 05:10:00,
2013-04-28 06:11:00,44.5,42.3,29.77,North,0,7.0,9.0,92,0.00,,,0.00,40,MyOwnSoftware,2013-04-28 05:11:00,
2013-04-28 06:12:00,44.5,42.3,29.77,South,180,6.0,9.0,92,0.00,,,0.00,32,MyOwnSoftware,2013-04-28 05:12:00,
2013-04-28 06:13:00,44.5,42.3,29.77,North,0,6.0,9.0,92,0.00,,,0.00,32,MyOwnSoftware,2013-04-28 05:13:00,
2013-04-28 06:14:00,44.5,42.3,29.77,North,0,7.0,11.0,92,0.00,,,0.00,32,MyOwnSoftware,2013-04-28 05:14:00,
2013-04-28 06:15:00,44.5,42.3,29.77,North,0,6.0,11.0,92,0.00,,,0.00,32,MyOwnSoftware,2013-04-28 05:15:00,
2013-04-28 06:16:00,44.5,42.3,29.77,NW,315,8.0,11.0,92,0.00,,,0.00,36,MyOwnSoftware,2013-04-28 05:16:00,
2013-04-28 06:17:00,44.6,43.0,29.77,North,3,6.0,-999.0,92,-99.99,,,0.00,39,weatherlink.com 1.10,2013-04-28 05:17:00,
2013-04-28 06:18:00,44.6,42.4,29.77,North,0,8.0,14.0,92,0.00,,,0.01,39,MyOwnSoftware,2013-04-28 05:18:00,
2013-04-28 06:19:00,44.6,42.4,29.77,SW,225,6.0,13.0,92,0.00,,,0.01,39,MyOwnSoftware,2013-04-28 05:19:00,
2013-04-28 06:20:00,44.8,42.6,29.77,North,0,6.0,8.0,92,0.00,,,0.01,39,MyOwnSoftware,2013-04-28 05:20:00,
2013-04-28 06:21:00,44.8,42.6,29.77,WSW,248,6.0,14.0,92,0.00,,,0.01,32,MyOwnSoftware,2013-04-28 05:21:00,
2013-04-28 06:22:00,44.8,42.6,29.77,North,0,7.0,13.0,92,0.00,,,0.01,32,MyOwnSoftware,2013-04-28 05:22:00,
2013-04-28 06:23:00,44.8,42.3,29.77,NE,45,7.0,8.0,91,0.00,,,0.01,32,MyOwnSoftware,2013-04-28 05:23:00,
2013-04-28 06:24:00,44.8,42.3,29.77,SW,225,6.0,11.0,91,0.00,,,0.01,32,MyOwnSoftware,2013-04-28 05:24:00,
2013-04-28 06:25:00,44.8,42.3,29.77,North,0,8.0,16.0,91,0.00,,,0.01,28,MyOwnSoftware,2013-04-28 05:25:00,
2013-04-28 06:26:00,44.8,42.3,29.77,WNW,292,6.0,18.0,91,0.00,,,0.01,28,MyOwnSoftware,2013-04-28 05:26:00,
2013-04-28 06:27:00,44.8,42.3,29.77,North,0,8.0,14.0,91,0.00,,,0.01,28,MyOwnSoftware,2013-04-28 05:27:00,
2013-04-28 06:28:00,44.8,42.3,29.77,North,0,7.0,11.0,91,0.00,,,0.01,28,MyOwnSoftware,2013-04-28 05:28:00,
2013-04-28 06:29:00,44.8,42.3,29.77,SW,225,6.0,10.0,91,0.00,,,0.01,35,MyOwnSoftware,2013-04-28 05:29:00,
2013-04-28 06:30:00,44.8,42.3,29.76,North,0,8.0,19.0,91,0.00,,,0.01,35,MyOwnSoftware,2013-04-28 05:30:00,
2013-04-28 06:31:00,44.8,42.3,29.76,North,0,7.0,11.0,91,0.00,,,0.01,35,MyOwnSoftware,2013-04-28 05:31:00,
2013-04-28 06:32:00,44.8,42.0,29.76,SE,138,6.0,-999.0,91,-99.99,,,0.01,35,weatherlink.com 1.10,2013-04-28 05:32:00,
2013-04-28 06:33:00,44.9,42.4,29.76,West,270,6.0,18.0,91,0.00,,,0.01,30,MyOwnSoftware,2013-04-28 05:33:00,
2013-04-28 06:34:00,44.9,42.4,29.76,North,0,6.0,10.0,91,0.00,,,0.01,30,MyOwnSoftware,2013-04-28 05:34:00,
2013-04-28 06:35:00,44.9,42.7,29.76,North,0,5.0,8.0,92,0.00,,,0.01,30,MyOwnSoftware,2013-04-28 05:35:00,
2013-04-28 06:36:00,44.9,42.7,29.76,North,0,7.0,10.0,92,0.00,,,0.01,30,MyOwnSoftware,2013-04-28 05:36:00,
2013-04-28 06:37:00,44.9,42.7,29.76,North,0,6.0,12.0,92,0.00,,,0.01,46,MyOwnSoftware,2013-04-28 05:37:00,
2013-04-28 06:38:00,44.9,42.7,29.76,NW,315,7.0,17.0,92,0.00,,,0.01,46,MyOwnSoftware,2013-04-28 05:38:00,
2013-04-28 06:39:00,44.9,42.7,29.76,WNW,292,7.0,16.0,92,0.00,,,0.01,46,MyOwnSoftware,2013-04-28 05:39:00,
2013-04-28 06:40:00,44.9,42.7,29.76,WSW,248,4.0,8.0,92,0.00,,,0.01,46,MyOwnSoftware,2013-04-28 05:40:00,
2013-04-28 06:41:00,44.9,42.7,29.76,SW,225,5.0,10.0,92,0.00,,,0.01,63,MyOwnSoftware,2013-04-28 05:41:00,
2013-04-28 06:42:00,45.1,42.9,29.76,North,0,8.0,11.0,92,0.00,,,0.01,90,MyOwnSoftware,2013-04-28 05:42:00,
2013-04-28 06:43:00,45.1,42.9,29.76,North,0,7.0,11.0,92,0.00,,,0.01,107,MyOwnSoftware,2013-04-28 05:43:00,
2013-04-28 06:44:00,45.1,42.9,29.76,South,180,6.0,10.0,92,0.00,,,0.01,93,MyOwnSoftware,2013-04-28 05:44:00,
2013-04-28 06:45:00,45.2,43.0,29.77,West,270,6.0,10.0,92,0.00,,,0.01,79,MyOwnSoftware,2013-04-28 05:45:00,
2013-04-28 06:46:00,45.2,43.0,29.77,North,0,5.0,10.0,92,0.00,,,0.01,52,MyOwnSoftware,2013-04-28 05:46:00,
2013-04-28 06:47:00,45.2,43.0,29.77,NNW,337,6.0,-999.0,91,-99.99,,,0.01,56,weatherlink.com 1.10,2013-04-28 05:47:00,
2013-04-28 06:48:00,45.4,42.9,29.77,North,0,7.0,11.0,91,0.00,,,0.01,56,MyOwnSoftware,2013-04-28 05:48:00,
2013-04-28 06:49:00,45.4,42.9,29.77,NNW,338,5.0,7.0,91,0.00,,,0.01,53,MyOwnSoftware,2013-04-28 05:49:00,
2013-04-28 06:50:00,45.4,42.9,29.77,North,0,5.0,8.0,91,0.00,,,0.01,56,MyOwnSoftware,2013-04-28 05:50:00,
2013-04-28 06:51:00,45.4,42.9,29.77,South,180,6.0,10.0,91,0.00,,,0.01,84,MyOwnSoftware,2013-04-28 05:51:00,
2013-04-28 06:52:00,45.4,42.9,29.77,West,270,5.0,10.0,91,0.00,,,0.01,67,MyOwnSoftware,2013-04-28 05:52:00,
2013-04-28 06:53:00,45.4,42.9,29.77,North,0,7.0,10.0,91,0.00,,,0.01,62,MyOwnSoftware,2013-04-28 05:53:00,
2013-04-28 06:54:00,45.4,42.9,29.77,North,0,6.0,10.0,91,0.00,,,0.01,60,MyOwnSoftware,2013-04-28 05:54:00,
2013-04-28 06:55:00,45.4,43.2,29.77,NE,45,6.0,17.0,92,0.00,,,0.01,79,MyOwnSoftware,2013-04-28 05:55:00,
2013-04-28 06:56:00,45.5,43.3,29.77,NW,315,4.0,6.0,92,0.00,,,0.01,70,MyOwnSoftware,2013-04-28 05:56:00,
2013-04-28 06:57:00,45.5,43.3,29.77,WNW,292,3.0,5.0,92,0.00,,,0.01,88,MyOwnSoftware,2013-04-28 05:57:00,
2013-04-28 06:58:00,45.5,43.3,29.77,NNW,338,4.0,11.0,92,0.00,,,0.01,84,MyOwnSoftware,2013-04-28 05:58:00,
2013-04-28 06:59:00,45.5,43.3,29.77,West,270,4.0,7.0,92,0.00,,,0.01,86,MyOwnSoftware,2013-04-28 05:59:00,
2013-04-28 07:00:00,45.5,43.3,29.77,SW,225,4.0,12.0,92,0.00,,,0.01,93,MyOwnSoftware,2013-04-28 06:00:00,
2013-04-28 07:01:00,45.5,43.3,29.77,West,270,5.0,13.0,92,0.00,,,0.01,81,MyOwnSoftware,2013-04-28 06:01:00,
2013-04-28 07:02:00,45.7,44.0,29.77,South,186,2.0,-999.0,92,-99.99,,,0.01,77,weatherlink.com 1.10,2013-04-28 06:02:00,
2013-04-28 07:03:00,45.7,43.5,29.77,WNW,292,6.0,11.0,92,0.00,,,0.01,88,MyOwnSoftware,2013-04-28 06:03:00,
2013-04-28 07:04:00,45.7,43.5,29.77,NNE,22,5.0,13.0,92,0.00,,,0.01,91,MyOwnSoftware,2013-04-28 06:04:00,
2013-04-28 07:05:00,45.7,43.5,29.77,North,0,7.0,10.0,92,0.00,,,0.01,102,MyOwnSoftware,2013-04-28 06:05:00,
2013-04-28 07:06:00,45.8,43.6,29.77,West,270,3.0,6.0,92,0.00,,,0.01,155,MyOwnSoftware,2013-04-28 06:06:00,
2013-04-28 07:07:00,45.8,43.6,29.77,North,0,5.0,8.0,92,0.00,,,0.01,155,MyOwnSoftware,2013-04-28 06:07:00,
2013-04-28 07:08:00,46.0,43.8,29.77,NNW,338,7.0,10.0,92,0.00,,,0.01,155,MyOwnSoftware,2013-04-28 06:08:00,
2013-04-28 07:09:00,46.0,43.8,29.77,North,0,7.0,10.0,92,0.00,,,0.01,202,MyOwnSoftware,2013-04-28 06:09:00,
2013-04-28 07:10:00,46.1,43.6,29.77,North,0,6.0,11.0,91,0.00,,,0.01,202,MyOwnSoftware,2013-04-28 06:10:00,
2013-04-28 07:11:00,46.1,43.6,29.77,North,0,4.0,6.0,91,0.00,,,0.01,141,MyOwnSoftware,2013-04-28 06:11:00,
2013-04-28 07:12:00,46.1,43.6,29.77,SSE,158,3.0,6.0,91,0.00,,,0.01,187,MyOwnSoftware,2013-04-28 06:12:00,
2013-04-28 07:13:00,46.2,43.7,29.77,SSW,202,3.0,5.0,91,0.00,,,0.01,169,MyOwnSoftware,2013-04-28 06:13:00,
2013-04-28 07:14:00,46.2,43.7,29.77,NNE,22,6.0,11.0,91,0.00,,,0.01,153,MyOwnSoftware,2013-04-28 06:14:00,
2013-04-28 07:15:00,46.2,43.7,29.77,North,0,4.0,7.0,91,0.00,,,0.01,135,MyOwnSoftware,2013-04-28 06:15:00,
2013-04-28 07:16:00,46.4,43.9,29.77,South,180,4.0,7.0,91,0.00,,,0.01,112,MyOwnSoftware,2013-04-28 06:16:00,
2013-04-28 07:17:00,46.4,44.0,29.77,NE,34,8.0,-999.0,91,-99.99,,,0.01,100,weatherlink.com 1.10,2013-04-28 06:17:00,
2013-04-28 07:18:00,46.4,43.9,29.77,North,0,7.0,11.0,91,0.00,,,0.01,91,MyOwnSoftware,2013-04-28 06:18:00,
2013-04-28 07:19:00,46.4,43.9,29.77,North,0,4.0,6.0,91,0.00,,,0.01,86,MyOwnSoftware,2013-04-28 06:19:00,
2013-04-28 07:20:00,46.4,43.9,29.77,North,0,5.0,7.0,91,0.00,,,0.01,84,MyOwnSoftware,2013-04-28 06:20:00,
2013-04-28 07:21:00,46.2,43.7,29.77,NW,315,5.0,10.0,91,0.00,,,0.01,67,MyOwnSoftware,2013-04-28 06:21:00,
2013-04-28 07:22:00,46.2,43.7,29.77,NNW,338,5.0,16.0,91,0.00,,,0.01,63,MyOwnSoftware,2013-04-28 06:22:00,
2013-04-28 07:23:00,46.2,43.7,29.77,NNW,338,5.0,11.0,91,0.00,,,0.01,70,MyOwnSoftware,2013-04-28 06:23:00,
2013-04-28 07:24:00,46.2,43.7,29.77,WSW,248,5.0,7.0,91,0.00,,,0.01,70,MyOwnSoftware,2013-04-28 06:24:00,
2013-04-28 07:25:00,46.2,43.7,29.77,North,0,5.0,8.0,91,0.00,,,0.01,67,MyOwnSoftware,2013-04-28 06:25:00,
2013-04-28 07:26:00,46.2,44.0,29.77,NNW,338,3.0,5.0,92,0.00,,,0.01,86,MyOwnSoftware,2013-04-28 06:26:00,
2013-04-28 07:27:00,46.2,44.0,29.77,North,0,4.0,6.0,92,0.00,,,0.01,83,MyOwnSoftware,2013-04-28 06:27:00,
2013-04-28 07:28:00,46.2,44.0,29.77,North,0,5.0,10.0,92,0.00,,,0.01,77,MyOwnSoftware,2013-04-28 06:28:00,
2013-04-28 07:29:00,46.2,44.0,29.77,North,0,5.0,8.0,92,0.00,,,0.01,70,MyOwnSoftware,2013-04-28 06:29:00,
2013-04-28 07:30:00,46.2,44.0,29.77,West,270,5.0,10.0,92,0.00,,,0.01,86,MyOwnSoftware,2013-04-28 06:30:00,
2013-04-28 07:31:00,46.2,44.0,29.77,SW,225,2.0,5.0,92,0.00,,,0.01,64,MyOwnSoftware,2013-04-28 06:31:00,
2013-04-28 07:32:00,46.2,44.0,29.77,NNE,18,3.0,-999.0,92,-99.99,,,0.01,83,weatherlink.com 1.10,2013-04-28 06:32:00,
2013-04-28 07:33:00,46.2,44.0,29.77,West,270,2.0,6.0,92,0.00,,,0.01,86,MyOwnSoftware,2013-04-28 06:33:00,
2013-04-28 07:34:00,46.2,44.0,29.77,West,270,3.0,7.0,92,0.00,,,0.01,135,MyOwnSoftware,2013-04-28 06:34:00,
2013-04-28 07:35:00,46.2,44.3,29.77,SSE,158,6.0,16.0,93,0.00,,,0.01,120,MyOwnSoftware,2013-04-28 06:35:00,
2013-04-28 07:36:00,46.2,44.3,29.77,West,270,4.0,7.0,93,0.00,,,0.01,98,MyOwnSoftware,2013-04-28 06:36:00,
2013-04-28 07:37:00,46.2,44.0,29.77,North,0,4.0,7.0,92,0.00,,,0.01,99,MyOwnSoftware,2013-04-28 06:37:00,
2013-04-28 07:38:00,46.4,44.2,29.77,WSW,248,4.0,8.0,92,0.00,,,0.01,118,MyOwnSoftware,2013-04-28 06:38:00,
2013-04-28 07:39:00,46.4,44.2,29.77,NNW,338,5.0,11.0,92,0.00,,,0.01,77,MyOwnSoftware,2013-04-28 06:39:00,
2013-04-28 07:40:00,46.4,44.2,29.77,North,0,4.0,7.0,92,0.00,,,0.01,86,MyOwnSoftware,2013-04-28 06:40:00,
2013-04-28 07:41:00,46.4,44.2,29.77,SW,225,5.0,7.0,92,0.00,,,0.00,83,MyOwnSoftware,2013-04-28 06:41:00,
2013-04-28 07:42:00,46.5,44.3,29.77,SSW,202,5.0,8.0,92,0.00,,,0.00,104,MyOwnSoftware,2013-04-28 06:42:00,
2013-04-28 07:43:00,46.5,44.3,29.77,NNW,338,3.0,7.0,92,0.00,,,0.00,125,MyOwnSoftware,2013-04-28 06:43:00,
2013-04-28 07:44:00,46.5,44.3,29.77,SW,225,5.0,10.0,92,0.00,,,0.00,118,MyOwnSoftware,2013-04-28 06:44:00,
2013-04-28 07:45:00,46.5,44.3,29.76,West,270,7.0,11.0,92,0.00,,,0.00,113,MyOwnSoftware,2013-04-28 06:45:00,
2013-04-28 07:46:00,46.7,44.5,29.76,SSW,202,4.0,10.0,92,0.00,,,0.00,156,MyOwnSoftware,2013-04-28 06:46:00,
2013-04-28 07:47:00,46.8,45.0,29.76,West,270,8.0,-999.0,92,-99.99,,,0.01,143,weatherlink.com 1.10,2013-04-28 06:47:00,
2013-04-28 07:48:00,46.8,44.6,29.76,WSW,248,7.0,12.0,92,0.00,,,0.00,143,MyOwnSoftware,2013-04-28 06:48:00,
2013-04-28 07:49:00,46.8,44.6,29.76,WNW,292,8.0,19.0,92,0.00,,,0.00,134,MyOwnSoftware,2013-04-28 06:49:00,
2013-04-28 07:50:00,47.0,44.5,29.76,SW,225,5.0,10.0,91,0.00,,,0.00,137,MyOwnSoftware,2013-04-28 06:50:00,
2013-04-28 07:51:00,47.0,44.5,29.76,North,0,4.0,6.0,91,0.00,,,0.00,125,MyOwnSoftware,2013-04-28 06:51:00,
2013-04-28 07:52:00,47.1,44.6,29.76,SW,225,6.0,10.0,91,0.00,,,0.00,123,MyOwnSoftware,2013-04-28 06:52:00,
2013-04-28 07:53:00,47.1,44.6,29.76,SW,225,8.0,18.0,91,0.00,,,0.00,141,MyOwnSoftware,2013-04-28 06:53:00,
2013-04-28 07:54:00,47.1,44.6,29.76,SW,225,8.0,11.0,91,0.00,,,0.00,155,MyOwnSoftware,2013-04-28 06:54:00,
2013-04-28 07:55:00,46.7,44.5,29.76,SSW,202,4.0,10.0,92,0.00,,,0.00,156,MyOwnSoftware,2013-04-28 06:55:00,
2013-04-28 07:56:00,47.3,44.8,29.76,WSW,248,6.0,12.0,91,0.00,,,0.00,130,MyOwnSoftware,2013-04-28 06:56:00,
2013-04-28 07:57:00,47.3,44.8,29.76,North,0,6.0,11.0,91,0.00,,,0.00,130,MyOwnSoftware,2013-04-28 06:57:00,
2013-04-28 07:58:00,47.4,44.9,29.76,SSW,202,7.0,16.0,91,0.00,,,0.00,102,MyOwnSoftware,2013-04-28 06:58:00,
2013-04-28 07:59:00,47.4,44.9,29.76,SSW,202,9.0,17.0,91,0.00,,,0.00,118,MyOwnSoftware,2013-04-28 06:59:00,
2013-04-28 08:00:00,47.4,44.9,29.76,WSW,248,6.0,10.0,91,0.00,,,0.00,113,MyOwnSoftware,2013-04-28 07:00:00,
2013-04-28 08:01:00,47.4,44.9,29.76,NNW,338,5.0,8.0,91,0.00,,,0.00,118,MyOwnSoftware,2013-04-28 07:01:00,
2013-04-28 08:02:00,47.4,45.0,29.76,SE,127,2.0,-999.0,91,-99.99,,,0.01,113,weatherlink.com 1.10,2013-04-28 07:02:00,
2013-04-28 08:03:00,47.4,44.9,29.76,NW,315,3.0,6.0,91,0.00,,,0.00,113,MyOwnSoftware,2013-04-28 07:03:00,
2013-04-28 08:04:00,47.4,44.9,29.76,SSW,202,5.0,8.0,91,0.00,,,0.00,123,MyOwnSoftware,2013-04-28 07:04:00,
2013-04-28 08:05:00,47.4,45.2,29.76,SW,225,10.0,17.0,92,0.00,,,0.00,113,MyOwnSoftware,2013-04-28 07:05:00,
2013-04-28 08:06:00,47.4,44.9,29.76,SSW,202,6.0,14.0,91,0.00,,,0.00,106,MyOwnSoftware,2013-04-28 07:06:00,
2013-04-28 08:07:00,47.4,44.9,29.76,West,270,4.0,8.0,91,0.00,,,0.00,90,MyOwnSoftware,2013-04-28 07:07:00,
2013-04-28 08:08:00,47.6,45.1,29.76,West,270,4.0,8.0,91,0.00,,,0.00,104,MyOwnSoftware,2013-04-28 07:08:00,
2013-04-28 08:09:00,47.6,45.1,29.76,SSW,202,8.0,17.0,91,0.00,,,0.00,118,MyOwnSoftware,2013-04-28 07:09:00,
2013-04-28 08:10:00,47.6,45.1,29.76,SSW,202,6.0,13.0,91,0.00,,,0.00,128,MyOwnSoftware,2013-04-28 07:10:00,
2013-04-28 08:11:00,47.6,45.1,29.76,SW,225,5.0,9.0,91,0.00,,,0.00,90,MyOwnSoftware,2013-04-28 07:11:00,
2013-04-28 08:12:00,47.6,44.8,29.76,West,270,7.0,13.0,90,0.00,,,0.00,83,MyOwnSoftware,2013-04-28 07:12:00,
2013-04-28 08:13:00,47.6,44.8,29.76,WNW,292,4.0,8.0,90,0.00,,,0.00,93,MyOwnSoftware,2013-04-28 07:13:00,
2013-04-28 08:14:00,47.6,44.8,29.76,WNW,292,5.0,12.0,90,0.00,,,0.00,99,MyOwnSoftware,2013-04-28 07:14:00,
2013-04-28 08:15:00,47.7,44.9,29.76,West,270,5.0,8.0,90,0.00,,,0.00,81,MyOwnSoftware,2013-04-28 07:15:00,
2013-04-28 08:16:00,47.4,44.9,29.76,West,270,4.0,8.0,91,0.00,,,0.00,90,MyOwnSoftware,2013-04-28 07:16:00,
2013-04-28 08:17:00,47.7,44.9,29.76,SSW,202,8.0,13.0,90,0.00,,,0.00,56,MyOwnSoftware,2013-04-28 07:17:00,
2013-04-28 08:18:00,47.7,44.9,29.76,SSW,202,8.0,14.0,90,0.00,,,0.00,55,MyOwnSoftware,2013-04-28 07:18:00,
2013-04-28 08:19:00,47.7,44.9,29.76,SW,225,6.0,10.0,90,0.00,,,0.00,63,MyOwnSoftware,2013-04-28 07:19:00,
2013-04-28 08:20:00,47.7,44.9,29.76,SSW,202,5.0,12.0,90,0.00,,,0.00,70,MyOwnSoftware,2013-04-28 07:20:00,
2013-04-28 08:21:00,47.7,44.9,29.76,NW,315,3.0,6.0,90,0.00,,,0.00,70,MyOwnSoftware,2013-04-28 07:21:00,
2013-04-28 08:22:00,47.7,44.9,29.76,SSW,202,5.0,7.0,90,0.00,,,0.00,99,MyOwnSoftware,2013-04-28 07:22:00,
2013-04-28 08:23:00,47.7,44.9,29.76,SW,225,5.0,7.0,90,0.00,,,0.00,120,MyOwnSoftware,2013-04-28 07:23:00,
2013-04-28 08:24:00,47.7,44.9,29.76,West,270,5.0,10.0,90,0.00,,,0.00,116,MyOwnSoftware,2013-04-28 07:24:00,
2013-04-28 08:25:00,47.9,45.1,29.76,SW,225,5.0,12.0,90,0.00,,,0.00,104,MyOwnSoftware,2013-04-28 07:25:00,
2013-04-28 08:26:00,47.9,45.1,29.76,South,180,5.0,11.0,90,0.00,,,0.00,92,MyOwnSoftware,2013-04-28 07:26:00,
2013-04-28 08:27:00,47.9,45.4,29.76,West,270,5.0,12.0,91,0.00,,,0.00,77,MyOwnSoftware,2013-04-28 07:27:00,
2013-04-28 08:28:00,47.9,45.4,29.76,SW,225,5.0,8.0,91,0.00,,,0.00,67,MyOwnSoftware,2013-04-28 07:28:00,
2013-04-28 08:29:00,47.9,45.4,29.76,SW,225,4.0,6.0,91,0.00,,,0.00,65,MyOwnSoftware,2013-04-28 07:29:00,
2013-04-28 08:30:00,47.9,45.4,29.76,West,270,4.0,7.0,91,0.00,,,0.00,83,MyOwnSoftware,2013-04-28 07:30:00,
2013-04-28 08:31:00,47.9,45.7,29.76,WNW,292,3.0,11.0,92,0.00,,,0.00,104,MyOwnSoftware,2013-04-28 07:31:00,
2013-04-28 08:32:00,47.9,45.7,29.76,West,270,6.0,11.0,92,0.00,,,0.00,102,MyOwnSoftware,2013-04-28 07:32:00,
2013-04-28 08:33:00,47.7,46.0,29.76,WSW,239,1.0,-999.0,92,-99.99,,,0.01,93,weatherlink.com 1.10,2013-04-28 07:33:00,
2013-04-28 08:34:00,47.7,45.8,29.76,South,180,3.0,7.0,93,0.00,,,0.00,90,MyOwnSoftware,2013-04-28 07:34:00,
2013-04-28 08:35:00,47.7,45.8,29.76,WNW,292,4.0,8.0,93,0.00,,,0.00,90,MyOwnSoftware,2013-04-28 07:35:00,
2013-04-28 08:36:00,47.7,45.8,29.76,WNW,292,4.0,6.0,93,0.00,,,0.00,88,MyOwnSoftware,2013-04-28 07:36:00,
2013-04-28 08:37:00,47.7,45.8,29.76,West,270,3.0,7.0,93,0.00,,,0.00,86,MyOwnSoftware,2013-04-28 07:37:00,
2013-04-28 08:38:00,47.6,45.7,29.76,NE,45,3.0,4.0,93,0.00,,,0.00,99,MyOwnSoftware,2013-04-28 07:38:00,
2013-04-28 08:39:00,47.6,45.7,29.76,NW,315,4.0,10.0,93,0.00,,,0.00,99,MyOwnSoftware,2013-04-28 07:39:00,
2013-04-28 08:40:00,47.7,45.8,29.76,SSW,202,4.0,7.0,93,0.00,,,0.00,99,MyOwnSoftware,2013-04-28 07:40:00,
2013-04-28 08:41:00,47.7,45.8,29.76,SSW,202,3.0,7.0,93,0.00,,,0.00,419,MyOwnSoftware,2013-04-28 07:41:00,
2013-04-28 08:42:00,47.9,46.0,29.76,WNW,292,3.0,6.0,93,0.00,,,0.00,433,MyOwnSoftware,2013-04-28 07:42:00,
2013-04-28 08:43:00,48.0,46.1,29.76,WNW,292,1.0,5.0,93,0.00,,,0.00,428,MyOwnSoftware,2013-04-28 07:43:00,
2013-04-28 08:44:00,48.2,46.3,29.76,West,270,2.0,7.0,93,0.00,,,0.00,428,MyOwnSoftware,2013-04-28 07:44:00,
2013-04-28 08:45:00,48.5,46.3,29.75,North,0,4.0,7.0,92,0.00,,,0.00,419,MyOwnSoftware,2013-04-28 07:45:00,
2013-04-28 08:46:00,48.6,46.4,29.75,NNW,338,3.0,5.0,92,0.00,,,0.00,453,MyOwnSoftware,2013-04-28 07:46:00,
2013-04-28 08:47:00,47.6,45.7,29.76,NE,45,3.0,4.0,93,0.00,,,0.00,99,MyOwnSoftware,2013-04-28 07:47:00,
2013-04-28 08:48:00,49.1,46.6,29.75,NE,45,3.0,6.0,91,0.00,,,0.00,466,MyOwnSoftware,2013-04-28 07:48:00,
2013-04-28 08:49:00,49.2,46.4,29.75,WSW,248,4.0,7.0,90,0.00,,,0.00,461,MyOwnSoftware,2013-04-28 07:49:00,
2013-04-28 08:50:00,49.4,46.3,29.75,NNW,338,4.0,7.0,89,0.00,,,0.00,443,MyOwnSoftware,2013-04-28 07:50:00,
2013-04-28 08:51:00,49.5,46.1,29.75,WSW,248,6.0,12.0,88,0.00,,,0.00,236,MyOwnSoftware,2013-04-28 07:51:00,
2013-04-28 08:52:00,49.6,45.9,29.75,North,0,5.0,7.0,87,0.00,,,0.00,236,MyOwnSoftware,2013-04-28 07:52:00,
2013-04-28 08:53:00,49.8,45.8,29.75,West,270,3.0,5.0,86,0.00,,,0.00,236,MyOwnSoftware,2013-04-28 07:53:00,
2013-04-28 08:54:00,49.8,45.8,29.75,SSW,202,3.0,6.0,86,0.00,,,0.00,236,MyOwnSoftware,2013-04-28 07:54:00,
2013-04-28 08:55:00,49.9,45.6,29.75,SSW,202,6.0,10.0,85,0.00,,,0.00,465,MyOwnSoftware,2013-04-28 07:55:00,
2013-04-28 08:56:00,50.2,45.9,29.75,West,270,5.0,8.0,85,0.00,,,0.00,472,MyOwnSoftware,2013-04-28 07:56:00,
2013-04-28 08:57:00,49.1,46.6,29.75,NE,45,3.0,6.0,91,0.00,,,0.00,466,MyOwnSoftware,2013-04-28 07:57:00,
2013-04-28 08:58:00,50.5,45.5,29.75,SSW,202,7.0,13.0,83,0.00,,,0.00,487,MyOwnSoftware,2013-04-28 07:58:00,
2013-04-28 08:59:00,50.8,45.5,29.75,West,270,5.0,12.0,82,0.00,,,0.00,487,MyOwnSoftware,2013-04-28 07:59:00,
2013-04-28 09:00:00,51.0,45.4,29.74,East,90,3.0,10.0,81,0.00,,,0.00,487,MyOwnSoftware,2013-04-28 08:00:00,
2013-04-28 09:01:00,51.1,45.5,29.74,South,180,5.0,9.0,81,0.00,,,0.00,487,MyOwnSoftware,2013-04-28 08:01:00,
2013-04-28 09:02:00,51.3,45.7,29.74,SW,225,5.0,10.0,81,0.00,,,0.00,456,MyOwnSoftware,2013-04-28 08:02:00,
2013-04-28 09:03:00,51.6,45.3,29.74,SSE,158,7.0,13.0,79,0.00,,,0.00,433,MyOwnSoftware,2013-04-28 08:03:00,
2013-04-28 09:04:00,51.7,45.1,29.74,South,180,6.0,13.0,78,0.00,,,0.00,479,MyOwnSoftware,2013-04-28 08:04:00,
2013-04-28 09:05:00,51.9,44.9,29.74,SW,225,7.0,11.0,77,0.00,,,0.00,486,MyOwnSoftware,2013-04-28 08:05:00,
2013-04-28 09:06:00,52.0,45.0,29.74,NNE,22,5.0,19.0,77,0.00,,,0.00,486,MyOwnSoftware,2013-04-28 08:06:00,
2013-04-28 09:07:00,52.2,45.2,29.74,SW,225,6.0,11.0,77,0.00,,,0.00,486,MyOwnSoftware,2013-04-28 08:07:00,
2013-04-28 09:08:00,52.2,45.2,29.74,SSW,202,3.0,6.0,77,0.00,,,0.00,498,MyOwnSoftware,2013-04-28 08:08:00,
2013-04-28 09:09:00,52.5,45.5,29.74,SSW,202,6.0,8.0,77,0.00,,,0.00,498,MyOwnSoftware,2013-04-28 08:09:00,
2013-04-28 09:10:00,52.5,44.8,29.74,WNW,292,3.0,6.0,75,0.00,,,0.00,498,MyOwnSoftware,2013-04-28 08:10:00,
2013-04-28 09:11:00,52.6,44.9,29.74,SW,225,2.0,6.0,75,0.00,,,0.00,498,MyOwnSoftware,2013-04-28 08:11:00,
2013-04-28 09:12:00,52.8,45.1,29.74,SW,225,5.0,6.0,75,0.00,,,0.00,498,MyOwnSoftware,2013-04-28 08:12:00,
2013-04-28 09:13:00,52.8,44.7,29.74,North,0,6.0,9.0,74,0.00,,,0.00,412,MyOwnSoftware,2013-04-28 08:13:00,
2013-04-28 09:14:00,52.8,44.7,29.74,SSW,202,6.0,12.0,74,0.00,,,0.00,412,MyOwnSoftware,2013-04-28 08:14:00,
2013-04-28 09:15:00,52.8,44.4,29.74,SSW,202,9.0,16.0,73,0.00,,,0.00,574,MyOwnSoftware,2013-04-28 08:15:00,
2013-04-28 09:16:00,52.9,44.1,29.74,SSW,202,7.0,12.0,72,0.00,,,0.00,574,MyOwnSoftware,2013-04-28 08:16:00,
2013-04-28 09:17:00,52.9,44.0,29.74,SW,230,5.0,-999.0,71,-99.99,,,0.01,355,weatherlink.com 1.10,2013-04-28 08:17:00,
2013-04-28 09:18:00,53.1,43.6,29.74,WSW,248,5.0,8.0,70,0.00,,,0.00,341,MyOwnSoftware,2013-04-28 08:18:00,
2013-04-28 09:19:00,52.9,43.0,29.74,South,180,6.0,10.0,69,0.00,,,0.00,331,MyOwnSoftware,2013-04-28 08:19:00,
2013-04-28 09:20:00,52.9,43.0,29.74,SW,225,7.0,12.0,69,0.00,,,0.00,340,MyOwnSoftware,2013-04-28 08:20:00,
2013-04-28 09:21:00,52.9,42.6,29.74,South,180,11.0,17.0,68,0.00,,,0.00,308,MyOwnSoftware,2013-04-28 08:21:00,
2013-04-28 09:22:00,52.8,42.1,29.74,SSW,202,7.0,12.0,67,0.00,,,0.00,303,MyOwnSoftware,2013-04-28 08:22:00,
2013-04-28 09:23:00,52.8,42.1,29.74,WNW,292,4.0,8.0,67,0.00,,,0.00,273,MyOwnSoftware,2013-04-28 08:23:00,
2013-04-28 09:24:00,52.6,42.0,29.74,SW,225,7.0,12.0,67,0.00,,,0.00,274,MyOwnSoftware,2013-04-28 08:24:00,
2013-04-28 09:25:00,52.5,41.9,29.74,West,270,5.0,8.0,67,0.00,,,0.00,289,MyOwnSoftware,2013-04-28 08:25:00,
2013-04-28 09:26:00,52.3,41.7,29.74,SW,225,4.0,6.0,67,0.00,,,0.00,368,MyOwnSoftware,2013-04-28 08:26:00,
2013-04-28 09:27:00,52.3,42.1,29.74,WNW,292,5.0,8.0,68,0.00,,,0.00,392,MyOwnSoftware,2013-04-28 08:27:00,
2013-04-28 09:28:00,52.3,41.7,29.74,SSW,202,8.0,16.0,67,0.00,,,0.00,375,MyOwnSoftware,2013-04-28 08:28:00,
2013-04-28 09:29:00,52.3,41.7,29.74,SSW,202,7.0,11.0,67,0.00,,,0.00,338,MyOwnSoftware,2013-04-28 08:29:00,
2013-04-28 09:30:00,52.3,41.3,29.74,SSW,202,7.0,14.0,66,0.00,,,0.00,331,MyOwnSoftware,2013-04-28 08:30:00,
2013-04-28 09:31:00,52.3,41.7,29.74,WSW,248,4.0,6.0,67,0.00,,,0.00,269,MyOwnSoftware,2013-04-28 08:31:00,
2013-04-28 09:32:00,52.3,41.0,29.74,SSW,203,8.0,-999.0,66,-99.99,,,0.01,283,weatherlink.com 1.10,2013-04-28 08:32:00,
2013-04-28 09:33:00,52.3,41.3,29.74,WSW,248,6.0,12.0,66,0.00,,,0.00,283,MyOwnSoftware,2013-04-28 08:33:00,
2013-04-28 09:34:00,52.5,41.5,29.74,SSW,202,6.0,12.0,66,0.00,,,0.00,283,MyOwnSoftware,2013-04-28 08:34:00,
2013-04-28 09:35:00,52.5,41.1,29.74,SSW,202,6.0,17.0,65,0.00,,,0.00,283,MyOwnSoftware,2013-04-28 08:35:00,
2013-04-28 09:36:00,52.5,41.1,29.74,WNW,292,8.0,18.0,65,0.00,,,0.00,248,MyOwnSoftware,2013-04-28 08:36:00,
2013-04-28 09:37:00,52.3,40.9,29.74,South,180,7.0,12.0,65,0.00,,,0.00,179,MyOwnSoftware,2013-04-28 08:37:00,
2013-04-28 09:38:00,52.3,40.9,29.74,West,270,5.0,11.0,65,0.00,,,0.00,160,MyOwnSoftware,2013-04-28 08:38:00,
2013-04-28 09:39:00,52.2,40.8,29.74,SW,225,6.0,12.0,65,0.00,,,0.00,139,MyOwnSoftware,2013-04-28 08:39:00,
2013-04-28 09:40:00,52.2,41.2,29.74,West,270,5.0,8.0,66,0.00,,,0.00,135,MyOwnSoftware,2013-04-28 08:40:00,
2013-04-28 09:41:00,52.0,41.0,29.74,NW,315,5.0,6.0,66,0.00,,,0.00,144,MyOwnSoftware,2013-04-28 08:41:00,
2013-04-28 09:42:00,52.0,41.0,29.74,ENE,68,3.0,7.0,66,0.00,,,0.00,144,MyOwnSoftware,2013-04-28 08:42:00,
2013-04-28 09:43:00,51.9,40.9,29.74,West,270,4.0,7.0,66,0.00,,,0.00,160,MyOwnSoftware,2013-04-28 08:43:00,
2013-04-28 09:44:00,51.9,40.9,29.74,SSW,202,9.0,16.0,66,0.00,,,0.00,187,MyOwnSoftware,2013-04-28 08:44:00,
2013-04-28 09:45:00,51.7,40.3,29.73,South,180,7.0,12.0,65,0.00,,,0.00,216,MyOwnSoftware,2013-04-28 08:45:00,
2013-04-28 09:46:00,51.7,40.7,29.73,North,0,6.0,20.0,66,0.00,,,0.00,218,MyOwnSoftware,2013-04-28 08:46:00,
2013-04-28 09:47:00,51.4,40.0,29.73,WSW,253,6.0,-999.0,66,-99.99,,,0.01,223,weatherlink.com 1.10,2013-04-28 08:47:00,
2013-04-28 09:48:00,51.4,40.4,29.73,SSW,202,5.0,13.0,66,0.00,,,0.00,218,MyOwnSoftware,2013-04-28 08:48:00,
2013-04-28 09:49:00,51.4,40.4,29.73,SSW,202,6.0,11.0,66,0.00,,,0.00,211,MyOwnSoftware,2013-04-28 08:49:00,
2013-04-28 09:50:00,51.4,40.4,29.73,WSW,248,7.0,12.0,66,0.00,,,0.00,201,MyOwnSoftware,2013-04-28 08:50:00,
2013-04-28 09:51:00,51.4,40.4,29.73,SSW,202,9.0,16.0,66,0.00,,,0.00,192,MyOwnSoftware,2013-04-28 08:51:00,
2013-04-28 09:52:00,51.4,40.0,29.73,SSW,202,8.0,16.0,65,0.00,,,0.00,188,MyOwnSoftware,2013-04-28 08:52:00,
2013-04-28 09:53:00,51.4,40.4,29.73,SSW,202,5.0,14.0,66,0.00,,,0.00,211,MyOwnSoftware,2013-04-28 08:53:00,
2013-04-28 09:54:00,51.4,40.4,29.73,SSW,202,8.0,12.0,66,0.00,,,0.00,218,MyOwnSoftware,2013-04-28 08:54:00,
2013-04-28 09:55:00,51.6,40.2,29.73,WSW,248,11.0,19.0,65,0.00,,,0.00,223,MyOwnSoftware,2013-04-28 08:55:00,
2013-04-28 09:56:00,51.6,40.2,29.73,SSW,202,9.0,16.0,65,0.00,,,0.00,241,MyOwnSoftware,2013-04-28 08:56:00,
2013-04-28 09:57:00,51.4,40.4,29.73,SSW,202,5.0,13.0,66,0.00,,,0.00,218,MyOwnSoftware,2013-04-28 08:57:00,
2013-04-28 09:58:00,51.6,40.2,29.73,WSW,248,8.0,16.0,65,0.00,,,0.00,227,MyOwnSoftware,2013-04-28 08:58:00,
2013-04-28 09:59:00,51.6,40.2,29.73,SW,225,8.0,13.0,65,0.00,,,0.00,239,MyOwnSoftware,2013-04-28 08:59:00,
2013-04-28 10:00:00,51.6,39.8,29.73,South,180,8.0,12.0,64,0.00,,,0.00,241,MyOwnSoftware,2013-04-28 09:00:00,
2013-04-28 10:01:00,51.6,40.2,29.73,West,270,6.0,17.0,65,0.00,,,0.00,253,MyOwnSoftware,2013-04-28 09:01:00,
2013-04-28 10:02:00,51.6,40.2,29.73,SSW,202,9.0,16.0,65,0.00,,,0.00,246,MyOwnSoftware,2013-04-28 09:02:00,
2013-04-28 10:03:00,51.4,40.0,29.73,SW,225,7.0,17.0,65,0.00,,,0.00,229,MyOwnSoftware,2013-04-28 09:03:00,
2013-04-28 10:04:00,51.4,40.0,29.73,SSW,202,7.0,17.0,65,0.00,,,0.00,216,MyOwnSoftware,2013-04-28 09:04:00,
2013-04-28 10:05:00,51.4,40.0,29.73,SSW,202,7.0,13.0,65,0.00,,,0.00,199,MyOwnSoftware,2013-04-28 09:05:00,
2013-04-28 10:06:00,51.4,40.0,29.73,SW,225,6.0,8.0,65,0.00,,,0.00,209,MyOwnSoftware,2013-04-28 09:06:00,
2013-04-28 10:07:00,51.4,40.0,29.73,South,180,8.0,13.0,65,0.00,,,0.00,209,MyOwnSoftware,2013-04-28 09:07:00,
2013-04-28 10:08:00,51.4,40.0,29.73,SW,225,7.0,17.0,65,0.00,,,0.00,274,MyOwnSoftware,2013-04-28 09:08:00,
2013-04-28 10:09:00,51.4,40.0,29.73,SSW,202,10.0,17.0,65,0.00,,,0.00,241,MyOwnSoftware,2013-04-28 09:09:00,
2013-04-28 10:10:00,51.4,40.4,29.73,South,180,5.0,10.0,66,0.00,,,0.00,215,MyOwnSoftware,2013-04-28 09:10:00,
2013-04-28 10:11:00,51.4,40.4,29.73,West,270,4.0,7.0,66,0.00,,,0.00,197,MyOwnSoftware,2013-04-28 09:11:00,
2013-04-28 10:12:00,51.4,40.4,29.73,WNW,292,4.0,8.0,66,0.00,,,0.00,195,MyOwnSoftware,2013-04-28 09:12:00,
2013-04-28 10:13:00,51.4,40.0,29.73,SW,225,5.0,8.0,65,0.00,,,0.00,188,MyOwnSoftware,2013-04-28 09:13:00,
2013-04-28 10:14:00,51.3,39.9,29.73,SSW,202,6.0,14.0,65,0.00,,,0.00,211,MyOwnSoftware,2013-04-28 09:14:00,
2013-04-28 10:15:00,51.3,40.3,29.73,South,180,5.0,11.0,66,0.00,,,0.00,250,MyOwnSoftware,2013-04-28 09:15:00,
2013-04-28 10:16:00,51.3,40.3,29.73,SW,225,6.0,11.0,66,0.00,,,0.00,250,MyOwnSoftware,2013-04-28 09:16:00,
2013-04-28 10:17:00,51.4,40.0,29.73,SSE,162,6.0,-999.0,65,-99.99,,,0.01,250,weatherlink.com 1.10,2013-04-28 09:17:00,
2013-04-28 10:18:00,51.4,40.0,29.73,SSW,202,5.0,9.0,65,0.00,,,0.00,183,MyOwnSoftware,2013-04-28 09:18:00,
2013-04-28 10:19:00,51.4,40.0,29.73,SSW,202,5.0,12.0,65,0.00,,,0.00,160,MyOwnSoftware,2013-04-28 09:19:00,
2013-04-28 10:20:00,51.6,40.2,29.73,SW,225,5.0,8.0,65,0.00,,,0.00,151,MyOwnSoftware,2013-04-28 09:20:00,
2013-04-28 10:21:00,51.6,40.2,29.73,SW,225,6.0,11.0,65,0.00,,,0.00,179,MyOwnSoftware,2013-04-28 09:21:00,
2013-04-28 10:22:00,51.7,40.3,29.73,SW,225,5.0,8.0,65,0.00,,,0.00,179,MyOwnSoftware,2013-04-28 09:22:00,
2013-04-28 10:23:00,51.7,40.3,29.73,SW,225,7.0,13.0,65,0.00,,,0.00,187,MyOwnSoftware,2013-04-28 09:23:00,
2013-04-28 10:24:00,51.7,40.3,29.73,SW,225,8.0,14.0,65,0.00,,,0.00,190,MyOwnSoftware,2013-04-28 09:24:00,
2013-04-28 10:25:00,51.6,40.2,29.73,SW,225,5.0,12.0,65,0.00,,,0.00,190,MyOwnSoftware,2013-04-28 09:25:00,
2013-04-28 10:26:00,51.7,40.3,29.73,SW,225,6.0,12.0,65,0.00,,,0.00,190,MyOwnSoftware,2013-04-28 09:26:00,
2013-04-28 10:27:00,51.7,40.3,29.73,South,180,8.0,17.0,65,0.00,,,0.00,190,MyOwnSoftware,2013-04-28 09:27:00,
2013-04-28 10:28:00,51.7,40.3,29.73,NW,315,6.0,8.0,65,0.00,,,0.00,190,MyOwnSoftware,2013-04-28 09:28:00,
2013-04-28 10:29:00,51.9,40.5,29.73,SSW,202,6.0,12.0,65,0.00,,,0.00,190,MyOwnSoftware,2013-04-28 09:29:00,
2013-04-28 10:30:00,52.0,40.2,29.72,SSW,202,7.0,13.0,64,0.00,,,0.00,412,MyOwnSoftware,2013-04-28 09:30:00,
2013-04-28 10:31:00,52.2,40.4,29.72,SW,225,6.0,11.0,64,0.00,,,0.00,412,MyOwnSoftware,2013-04-28 09:31:00,
2013-04-28 10:32:00,52.5,40.0,29.72,SSW,198,4.0,-999.0,63,-99.99,,,0.01,412,weatherlink.com 1.10,2013-04-28 09:32:00,
2013-04-28 10:33:00,52.5,40.3,29.72,SW,225,7.0,16.0,63,0.00,,,0.00,412,MyOwnSoftware,2013-04-28 09:33:00,
2013-04-28 10:34:00,52.8,40.6,29.72,SSW,202,9.0,13.0,63,0.00,,,0.00,296,MyOwnSoftware,2013-04-28 09:34:00,
2013-04-28 10:35:00,52.9,40.7,29.72,SSW,202,7.0,12.0,63,0.00,,,0.00,271,MyOwnSoftware,2013-04-28 09:35:00,
2013-04-28 10:36:00,53.1,40.8,29.72,WSW,248,9.0,16.0,63,0.00,,,0.00,252,MyOwnSoftware,2013-04-28 09:36:00,
2013-04-28 10:37:00,53.1,40.4,29.72,WNW,292,5.0,9.0,62,0.00,,,0.00,259,MyOwnSoftware,2013-04-28 09:37:00,
2013-04-28 10:38:00,53.1,40.8,29.72,SW,225,8.0,17.0,63,0.00,,,0.00,259,MyOwnSoftware,2013-04-28 09:38:00,
2013-04-28 10:39:00,53.2,40.5,29.72,WSW,248,6.0,11.0,62,0.00,,,0.00,259,MyOwnSoftware,2013-04-28 09:39:00,
2013-04-28 10:40:00,53.2,40.5,29.72,SW,225,8.0,13.0,62,0.00,,,0.00,259,MyOwnSoftware,2013-04-28 09:40:00,
2013-04-28 10:41:00,53.3,40.6,29.72,South,180,11.0,22.0,62,0.00,,,0.00,259,MyOwnSoftware,2013-04-28 09:41:00,
2013-04-28 10:42:00,53.3,40.6,29.72,SW,225,7.0,14.0,62,0.00,,,0.00,626,MyOwnSoftware,2013-04-28 09:42:00,
2013-04-28 10:43:00,53.5,40.8,29.72,South,180,6.0,10.0,62,0.00,,,0.00,662,MyOwnSoftware,2013-04-28 09:43:00,
2013-04-28 10:44:00,53.5,40.8,29.72,SW,225,9.0,16.0,62,0.00,,,0.00,662,MyOwnSoftware,2013-04-28 09:44:00,
2013-04-28 10:45:00,53.6,40.9,29.71,WNW,292,7.0,12.0,62,0.00,,,0.00,644,MyOwnSoftware,2013-04-28 09:45:00,
2013-04-28 10:46:00,53.6,40.9,29.71,WSW,248,6.0,10.0,62,0.00,,,0.00,657,MyOwnSoftware,2013-04-28 09:46:00,
2013-04-28 10:47:00,53.1,40.8,29.72,SW,225,8.0,17.0,63,0.00,,,0.00,259,MyOwnSoftware,2013-04-28 09:47:00,
2013-04-28 10:48:00,53.9,40.8,29.71,WSW,248,5.0,10.0,61,0.00,,,0.00,660,MyOwnSoftware,2013-04-28 09:48:00,
2013-04-28 10:49:00,54.1,41.0,29.71,SSW,202,8.0,12.0,61,0.00,,,0.00,655,MyOwnSoftware,2013-04-28 09:49:00,
2013-04-28 10:50:00,54.2,40.2,29.71,SW,225,8.0,13.0,59,0.00,,,0.00,649,MyOwnSoftware,2013-04-28 09:50:00,
2013-04-28 10:51:00,54.4,40.4,29.71,SW,225,8.0,14.0,59,0.00,,,0.00,658,MyOwnSoftware,2013-04-28 09:51:00,
2013-04-28 10:52:00,54.4,40.4,29.71,SW,225,7.0,10.0,59,0.00,,,0.00,663,MyOwnSoftware,2013-04-28 09:52:00,
2013-04-28 10:53:00,54.4,40.4,29.71,North,0,0.0,0.0,59,0.00,,,0.00,663,MyOwnSoftware,2013-04-28 09:53:00,
2013-04-28 10:54:00,54.4,40.4,29.71,North,0,0.0,0.0,59,0.00,,,0.00,663,MyOwnSoftware,2013-04-28 09:54:00,
2013-04-28 10:55:00,54.8,40.3,29.71,SSW,202,7.0,14.0,58,0.00,,,0.00,663,MyOwnSoftware,2013-04-28 09:55:00,
2013-04-28 10:56:00,55.0,40.0,29.71,North,0,6.0,11.0,57,0.00,,,0.00,655,MyOwnSoftware,2013-04-28 09:56:00,
2013-04-28 10:57:00,53.9,40.8,29.71,WSW,248,5.0,10.0,61,0.00,,,0.00,660,MyOwnSoftware,2013-04-28 09:57:00,
2013-04-28 10:58:00,55.0,40.0,29.71,NNW,338,5.0,8.0,57,0.00,,,0.00,753,MyOwnSoftware,2013-04-28 09:58:00,
2013-04-28 10:59:00,55.0,40.0,29.71,West,270,5.0,7.0,57,0.00,,,0.00,799,MyOwnSoftware,2013-04-28 09:59:00,
2013-04-28 11:00:00,55.1,40.1,29.72,SW,225,7.0,10.0,57,0.00,,,0.00,799,MyOwnSoftware,2013-04-28 10:00:00,
2013-04-28 11:01:00,55.1,39.7,29.72,WSW,248,10.0,19.0,56,0.00,,,0.00,899,MyOwnSoftware,2013-04-28 10:01:00,
2013-04-28 11:02:00,55.3,40.0,29.72,WSW,250,9.0,-999.0,56,-99.99,,,0.01,878,weatherlink.com 1.10,2013-04-28 10:02:00,
2013-04-28 11:03:00,55.3,39.9,29.72,West,270,6.0,11.0,56,0.00,,,0.00,878,MyOwnSoftware,2013-04-28 10:03:00,
2013-04-28 11:04:00,55.3,39.4,29.72,SW,225,9.0,21.0,55,0.00,,,0.00,880,MyOwnSoftware,2013-04-28 10:04:00,
2013-04-28 11:05:00,55.3,39.9,29.72,SW,225,6.0,10.0,56,0.00,,,0.00,862,MyOwnSoftware,2013-04-28 10:05:00,
2013-04-28 11:06:00,55.3,39.4,29.72,SW,225,10.0,20.0,55,0.00,,,0.00,839,MyOwnSoftware,2013-04-28 10:06:00,
2013-04-28 11:07:00,55.4,39.5,29.72,East,90,5.0,14.0,55,0.00,,,0.00,896,MyOwnSoftware,2013-04-28 10:07:00,
2013-04-28 11:08:00,55.6,39.7,29.72,SW,225,4.0,7.0,55,0.00,,,0.00,896,MyOwnSoftware,2013-04-28 10:08:00,
2013-04-28 11:09:00,55.7,39.8,29.72,SW,225,4.0,8.0,55,0.00,,,0.00,896,MyOwnSoftware,2013-04-28 10:09:00,
2013-04-28 11:10:00,55.7,39.3,29.72,North,0,3.0,6.0,54,0.00,,,0.00,896,MyOwnSoftware,2013-04-28 10:10:00,
2013-04-28 11:11:00,55.7,38.8,29.72,SSW,202,7.0,13.0,53,0.00,,,0.00,896,MyOwnSoftware,2013-04-28 10:11:00,
2013-04-28 11:12:00,55.7,38.8,29.72,SSW,202,8.0,16.0,53,0.00,,,0.00,896,MyOwnSoftware,2013-04-28 10:12:00,
2013-04-28 11:13:00,55.7,38.8,29.72,South,180,7.0,13.0,53,0.00,,,0.00,896,MyOwnSoftware,2013-04-28 10:13:00,
2013-04-28 11:14:00,55.7,39.3,29.72,WNW,292,5.0,7.0,54,0.00,,,0.00,896,MyOwnSoftware,2013-04-28 10:14:00,
2013-04-28 11:15:00,55.7,39.3,29.72,WSW,248,5.0,16.0,54,0.00,,,0.00,896,MyOwnSoftware,2013-04-28 10:15:00,
2013-04-28 11:16:00,55.7,39.3,29.72,SW,225,6.0,12.0,54,0.00,,,0.00,565,MyOwnSoftware,2013-04-28 10:16:00,
2013-04-28 11:17:00,55.6,39.7,29.72,SW,225,4.0,7.0,55,0.00,,,0.00,896,MyOwnSoftware,2013-04-28 10:17:00,
2013-04-28 11:18:00,55.7,39.3,29.72,SW,225,6.0,13.0,54,0.00,,,0.00,565,MyOwnSoftware,2013-04-28 10:18:00,
2013-04-28 11:19:00,55.6,39.2,29.72,WSW,248,4.0,7.0,54,0.00,,,0.00,600,MyOwnSoftware,2013-04-28 10:19:00,
2013-04-28 11:20:00,55.6,39.2,29.72,SW,225,6.0,12.0,54,0.00,,,0.00,600,MyOwnSoftware,2013-04-28 10:20:00,
2013-04-28 11:21:00,55.6,39.2,29.72,NW,315,4.0,7.0,54,0.00,,,0.00,600,MyOwnSoftware,2013-04-28 10:21:00,
2013-04-28 11:22:00,55.6,39.2,29.72,SSW,202,5.0,10.0,54,0.00,,,0.00,718,MyOwnSoftware,2013-04-28 10:22:00,
2013-04-28 11:23:00,55.6,39.2,29.72,WNW,292,3.0,13.0,54,0.00,,,0.00,706,MyOwnSoftware,2013-04-28 10:23:00,
2013-04-28 11:24:00,55.7,39.3,29.72,SW,225,6.0,13.0,54,0.00,,,0.00,711,MyOwnSoftware,2013-04-28 10:24:00,
2013-04-28 11:25:00,55.7,38.8,29.72,West,270,8.0,13.0,53,0.00,,,0.00,711,MyOwnSoftware,2013-04-28 10:25:00,
2013-04-28 11:26:00,55.7,38.8,29.72,West,270,8.0,14.0,53,0.00,,,0.00,709,MyOwnSoftware,2013-04-28 10:26:00,
2013-04-28 11:27:00,55.7,38.8,29.72,SW,225,7.0,11.0,53,0.00,,,0.00,718,MyOwnSoftware,2013-04-28 10:27:00,
2013-04-28 11:28:00,55.7,38.8,29.72,SW,225,5.0,8.0,53,0.00,,,0.00,718,MyOwnSoftware,2013-04-28 10:28:00,
2013-04-28 11:29:00,55.7,39.3,29.72,SW,225,5.0,8.0,54,0.00,,,0.00,718,MyOwnSoftware,2013-04-28 10:29:00,
2013-04-28 11:30:00,55.7,39.3,29.71,SSW,202,8.0,18.0,54,0.00,,,0.00,718,MyOwnSoftware,2013-04-28 10:30:00,
2013-04-28 11:31:00,55.7,39.3,29.71,South,180,8.0,17.0,54,0.00,,,0.00,739,MyOwnSoftware,2013-04-28 10:31:00,
2013-04-28 11:32:00,55.7,39.0,29.71,NNW,330,5.0,-999.0,54,-99.99,,,0.01,758,weatherlink.com 1.10,2013-04-28 10:32:00,
2013-04-28 11:33:00,55.7,39.3,29.71,NW,315,3.0,7.0,54,0.00,,,0.00,758,MyOwnSoftware,2013-04-28 10:33:00,
2013-04-28 11:34:00,55.7,39.3,29.71,SW,225,7.0,13.0,54,0.00,,,0.00,758,MyOwnSoftware,2013-04-28 10:34:00,
2013-04-28 11:35:00,55.9,39.5,29.71,SSW,202,8.0,12.0,54,0.00,,,0.00,758,MyOwnSoftware,2013-04-28 10:35:00,
2013-04-28 11:36:00,55.9,39.5,29.71,SW,225,5.0,16.0,54,0.00,,,0.00,822,MyOwnSoftware,2013-04-28 10:36:00,
2013-04-28 11:37:00,55.9,39.5,29.71,SSW,202,9.0,18.0,54,0.00,,,0.00,787,MyOwnSoftware,2013-04-28 10:37:00,
2013-04-28 11:38:00,55.9,39.0,29.71,SSW,202,9.0,19.0,53,0.00,,,0.00,802,MyOwnSoftware,2013-04-28 10:38:00,
2013-04-28 11:39:00,55.9,38.5,29.71,SW,225,9.0,18.0,52,0.00,,,0.00,850,MyOwnSoftware,2013-04-28 10:39:00,
2013-04-28 11:40:00,56.0,38.6,29.71,SSW,202,7.0,14.0,52,0.00,,,0.00,850,MyOwnSoftware,2013-04-28 10:40:00,
2013-04-28 11:41:00,56.0,38.6,29.71,WSW,248,5.0,12.0,52,0.00,,,0.00,850,MyOwnSoftware,2013-04-28 10:41:00,
2013-04-28 11:42:00,56.0,38.6,29.71,WNW,292,8.0,21.0,52,0.00,,,0.00,794,MyOwnSoftware,2013-04-28 10:42:00,
2013-04-28 11:43:00,56.0,38.6,29.71,SSW,202,6.0,12.0,52,0.00,,,0.00,799,MyOwnSoftware,2013-04-28 10:43:00,
2013-04-28 11:44:00,56.2,38.8,29.71,SW,225,6.0,10.0,52,0.00,,,0.00,799,MyOwnSoftware,2013-04-28 10:44:00,
2013-04-28 11:45:00,56.2,38.8,29.71,WSW,248,5.0,11.0,52,0.00,,,0.00,799,MyOwnSoftware,2013-04-28 10:45:00,
2013-04-28 11:46:00,56.2,39.3,29.71,SSW,202,5.0,10.0,53,0.00,,,0.00,194,MyOwnSoftware,2013-04-28 10:46:00,
2013-04-28 11:47:00,55.9,39.0,29.71,SSW,202,9.0,19.0,53,0.00,,,0.00,802,MyOwnSoftware,2013-04-28 10:47:00,
2013-04-28 11:48:00,56.2,39.3,29.71,WSW,248,5.0,22.0,53,0.00,,,0.00,278,MyOwnSoftware,2013-04-28 10:48:00,
2013-04-28 11:49:00,56.2,38.8,29.71,SSW,202,6.0,11.0,52,0.00,,,0.00,278,MyOwnSoftware,2013-04-28 10:49:00,
2013-04-28 11:50:00,56.0,38.6,29.71,North,0,5.0,13.0,52,0.00,,,0.00,278,MyOwnSoftware,2013-04-28 10:50:00,
2013-04-28 11:51:00,56.0,39.1,29.71,West,270,4.0,7.0,53,0.00,,,0.00,260,MyOwnSoftware,2013-04-28 10:51:00,
2013-04-28 11:52:00,56.0,38.6,29.71,WSW,248,5.0,7.0,52,0.00,,,0.00,257,MyOwnSoftware,2013-04-28 10:52:00,
2013-04-28 11:53:00,55.9,39.0,29.71,SW,225,6.0,8.0,53,0.00,,,0.00,297,MyOwnSoftware,2013-04-28 10:53:00,
2013-04-28 11:54:00,55.7,38.8,29.71,SW,225,8.0,13.0,53,0.00,,,0.00,297,MyOwnSoftware,2013-04-28 10:54:00,
2013-04-28 11:55:00,55.4,39.5,29.71,NNE,22,6.0,10.0,55,0.00,,,0.00,297,MyOwnSoftware,2013-04-28 10:55:00,
2013-04-28 11:56:00,55.1,40.6,29.71,SSW,202,10.0,17.0,58,0.00,,,0.00,156,MyOwnSoftware,2013-04-28 10:56:00,
2013-04-28 11:57:00,56.2,39.3,29.71,WSW,248,5.0,22.0,53,0.00,,,0.00,278,MyOwnSoftware,2013-04-28 10:57:00,
2013-04-28 11:58:00,54.7,42.8,29.71,WSW,248,6.0,11.0,64,0.00,,,0.00,215,MyOwnSoftware,2013-04-28 10:58:00,
2013-04-28 11:59:00,54.4,42.5,29.71,WSW,248,6.0,9.0,64,0.00,,,0.00,241,MyOwnSoftware,2013-04-28 10:59:00,
2013-04-28 12:00:00,54.1,42.6,29.73,SSW,202,5.0,11.0,65,0.00,,,0.00,245,MyOwnSoftware,2013-04-28 11:00:00,
2013-04-28 12:01:00,53.8,42.3,29.73,SW,225,6.0,11.0,65,0.00,,,0.00,268,MyOwnSoftware,2013-04-28 11:01:00,
2013-04-28 12:02:00,53.2,42.0,29.73,WNW,289,3.0,-999.0,65,-99.99,,,0.01,289,weatherlink.com 1.10,2013-04-28 11:02:00,
2013-04-28 12:03:00,53.2,41.7,29.73,WNW,292,3.0,6.0,65,0.00,,,0.00,289,MyOwnSoftware,2013-04-28 11:03:00,
2013-04-28 12:04:00,52.9,41.9,29.73,NNE,22,5.0,8.0,66,0.00,,,0.00,289,MyOwnSoftware,2013-04-28 11:04:00,
2013-04-28 12:05:00,52.6,41.6,29.73,SW,225,4.0,11.0,66,0.00,,,0.00,289,MyOwnSoftware,2013-04-28 11:05:00,
2013-04-28 12:06:00,52.5,41.5,29.73,SW,225,7.0,12.0,66,0.00,,,0.00,344,MyOwnSoftware,2013-04-28 11:06:00,
2013-04-28 12:07:00,52.3,41.3,29.73,NW,315,5.0,12.0,66,0.00,,,0.00,347,MyOwnSoftware,2013-04-28 11:07:00,
2013-04-28 12:08:00,52.2,41.2,29.73,WNW,292,4.0,8.0,66,0.00,,,0.00,347,MyOwnSoftware,2013-04-28 11:08:00,
2013-04-28 12:09:00,52.2,40.8,29.73,WSW,248,3.0,8.0,65,0.00,,,0.00,347,MyOwnSoftware,2013-04-28 11:09:00,
2013-04-28 12:10:00,52.2,40.8,29.73,SSW,202,4.0,11.0,65,0.00,,,0.00,347,MyOwnSoftware,2013-04-28 11:10:00,
2013-04-28 12:11:00,52.2,40.8,29.73,SW,225,3.0,7.0,65,0.00,,,0.00,347,MyOwnSoftware,2013-04-28 11:11:00,
2013-04-28 12:12:00,52.2,40.4,29.73,SSW,202,5.0,11.0,64,0.00,,,0.00,347,MyOwnSoftware,2013-04-28 11:12:00,
2013-04-28 12:13:00,52.3,40.5,29.73,SW,225,5.0,8.0,64,0.00,,,0.00,820,MyOwnSoftware,2013-04-28 11:13:00,
2013-04-28 12:14:00,52.5,41.1,29.73,SW,225,4.0,8.0,65,0.00,,,0.00,823,MyOwnSoftware,2013-04-28 11:14:00,
2013-04-28 12:15:00,52.5,41.1,29.73,NNW,338,2.0,5.0,65,0.00,,,0.00,823,MyOwnSoftware,2013-04-28 11:15:00,
2013-04-28 12:16:00,52.6,40.8,29.73,SW,225,5.0,10.0,64,0.00,,,0.00,331,MyOwnSoftware,2013-04-28 11:16:00,
2013-04-28 12:17:00,52.2,41.2,29.73,WNW,292,4.0,8.0,66,0.00,,,0.00,347,MyOwnSoftware,2013-04-28 11:17:00,
2013-04-28 12:18:00,52.9,40.7,29.73,SW,225,4.0,7.0,63,0.00,,,0.00,271,MyOwnSoftware,2013-04-28 11:18:00,
2013-04-28 12:19:00,52.9,40.7,29.73,WNW,292,3.0,6.0,63,0.00,,,0.00,297,MyOwnSoftware,2013-04-28 11:19:00,
2013-04-28 12:20:00,52.9,41.1,29.73,WSW,248,3.0,7.0,64,0.00,,,0.00,297,MyOwnSoftware,2013-04-28 11:20:00,
2013-04-28 12:21:00,53.1,40.8,29.73,SW,225,6.0,11.0,63,0.00,,,0.00,297,MyOwnSoftware,2013-04-28 11:21:00,
2013-04-28 12:22:00,53.1,40.8,29.73,NE,45,5.0,8.0,63,0.00,,,0.00,398,MyOwnSoftware,2013-04-28 11:22:00,
2013-04-28 12:23:00,53.1,40.8,29.73,South,180,5.0,10.0,63,0.00,,,0.00,398,MyOwnSoftware,2013-04-28 11:23:00,
2013-04-28 12:24:00,53.1,40.4,29.73,WNW,292,8.0,14.0,62,0.00,,,0.00,398,MyOwnSoftware,2013-04-28 11:24:00,
2013-04-28 12:25:00,53.1,40.4,29.73,SW,225,10.0,13.0,62,0.00,,,0.00,179,MyOwnSoftware,2013-04-28 11:25:00,
2013-04-28 12:26:00,53.1,40.4,29.73,SW,225,8.0,13.0,62,0.00,,,0.00,195,MyOwnSoftware,2013-04-28 11:26:00,
2013-04-28 12:27:00,52.9,40.2,29.73,South,180,6.0,11.0,62,0.00,,,0.00,218,MyOwnSoftware,2013-04-28 11:27:00,
2013-04-28 12:28:00,52.9,40.7,29.73,WSW,248,6.0,8.0,63,0.00,,,0.00,234,MyOwnSoftware,2013-04-28 11:28:00,
2013-04-28 12:29:00,52.8,40.6,29.73,SW,225,7.0,10.0,63,0.00,,,0.00,232,MyOwnSoftware,2013-04-28 11:29:00,
2013-04-28 12:30:00,52.6,40.0,29.72,North,0,5.0,9.0,62,0.00,,,0.00,238,MyOwnSoftware,2013-04-28 11:30:00,
2013-04-28 12:31:00,52.5,39.4,29.72,SSW,202,5.0,13.0,61,0.00,,,0.00,257,MyOwnSoftware,2013-04-28 11:31:00,
2013-04-28 12:32:00,52.3,39.3,29.72,SSW,202,7.0,11.0,61,0.00,,,0.00,259,MyOwnSoftware,2013-04-28 11:32:00,
2013-04-28 12:33:00,52.2,39.0,29.72,WNW,296,5.0,-999.0,61,-99.99,,,0.01,271,weatherlink.com 1.10,2013-04-28 11:33:00,
2013-04-28 12:34:00,52.0,39.0,29.72,SW,225,5.0,10.0,61,0.00,,,0.00,290,MyOwnSoftware,2013-04-28 11:34:00,
2013-04-28 12:35:00,52.0,39.0,29.72,South,180,5.0,12.0,61,0.00,,,0.00,301,MyOwnSoftware,2013-04-28 11:35:00,
2013-04-28 12:36:00,52.0,38.1,29.72,South,180,8.0,13.0,59,0.00,,,0.00,320,MyOwnSoftware,2013-04-28 11:36:00,
2013-04-28 12:37:00,51.9,38.0,29.72,SW,225,4.0,8.0,59,0.00,,,0.00,396,MyOwnSoftware,2013-04-28 11:37:00,
2013-04-28 12:38:00,51.9,38.0,29.72,SSW,202,6.0,11.0,59,0.00,,,0.00,421,MyOwnSoftware,2013-04-28 11:38:00,
2013-04-28 12:39:00,51.9,38.0,29.72,WSW,248,3.0,6.0,59,0.00,,,0.00,422,MyOwnSoftware,2013-04-28 11:39:00,
2013-04-28 12:40:00,51.9,38.0,29.72,NE,45,3.0,7.0,59,0.00,,,0.00,422,MyOwnSoftware,2013-04-28 11:40:00,
2013-04-28 12:41:00,52.0,38.1,29.72,WNW,292,4.0,7.0,59,0.00,,,0.00,422,MyOwnSoftware,2013-04-28 11:41:00,
2013-04-28 12:42:00,52.0,38.5,29.72,SW,225,4.0,10.0,60,0.00,,,0.00,422,MyOwnSoftware,2013-04-28 11:42:00,
2013-04-28 12:43:00,52.2,38.3,29.72,SW,225,6.0,10.0,59,0.00,,,0.00,839,MyOwnSoftware,2013-04-28 11:43:00,
2013-04-28 12:44:00,52.3,38.4,29.72,WNW,292,2.0,6.0,59,0.00,,,0.00,836,MyOwnSoftware,2013-04-28 11:44:00,
2013-04-28 12:45:00,52.5,38.6,29.72,SW,225,5.0,10.0,59,0.00,,,0.00,836,MyOwnSoftware,2013-04-28 11:45:00,
2013-04-28 12:46:00,52.6,39.1,29.72,SW,225,4.0,9.0,60,0.00,,,0.00,803,MyOwnSoftware,2013-04-28 11:46:00,
2013-04-28 12:47:00,51.9,38.0,29.72,SSW,202,6.0,11.0,59,0.00,,,0.00,421,MyOwnSoftware,2013-04-28 11:47:00,
2013-04-28 12:48:00,53.1,39.2,29.72,WNW,292,5.0,11.0,59,0.00,,,0.00,792,MyOwnSoftware,2013-04-28 11:48:00,
2013-04-28 12:49:00,53.2,39.2,29.72,SW,225,6.0,13.0,59,0.00,,,0.00,792,MyOwnSoftware,2013-04-28 11:49:00,
2013-04-28 12:50:00,53.3,38.9,29.72,SSW,202,7.0,16.0,58,0.00,,,0.00,792,MyOwnSoftware,2013-04-28 11:50:00,
2013-04-28 12:51:00,53.5,39.1,29.72,SW,225,4.0,6.0,58,0.00,,,0.00,792,MyOwnSoftware,2013-04-28 11:51:00,
2013-04-28 12:52:00,53.6,39.6,29.72,WSW,248,7.0,13.0,59,0.00,,,0.00,792,MyOwnSoftware,2013-04-28 11:52:00,
2013-04-28 12:53:00,53.6,39.2,29.72,SSW,202,8.0,13.0,58,0.00,,,0.00,792,MyOwnSoftware,2013-04-28 11:53:00,
2013-04-28 12:54:00,53.8,39.8,29.72,WSW,248,8.0,18.0,59,0.00,,,0.00,917,MyOwnSoftware,2013-04-28 11:54:00,
2013-04-28 12:55:00,53.9,39.5,29.72,South,180,6.0,8.0,58,0.00,,,0.00,917,MyOwnSoftware,2013-04-28 11:55:00,
2013-04-28 12:56:00,53.9,39.9,29.72,SW,225,5.0,12.0,59,0.00,,,0.00,302,MyOwnSoftware,2013-04-28 11:56:00,
2013-04-28 12:57:00,53.1,39.2,29.72,WNW,292,5.0,11.0,59,0.00,,,0.00,792,MyOwnSoftware,2013-04-28 11:57:00,
2013-04-28 12:58:00,54.1,39.7,29.72,SSW,202,9.0,16.0,58,0.00,,,0.00,289,MyOwnSoftware,2013-04-28 11:58:00,
2013-04-28 12:59:00,54.1,38.8,29.72,North,0,6.0,17.0,56,0.00,,,0.00,289,MyOwnSoftware,2013-04-28 11:59:00,
2013-04-28 13:00:00,54.1,38.8,29.71,SSW,202,9.0,12.0,56,0.00,,,0.00,296,MyOwnSoftware,2013-04-28 12:00:00,
2013-04-28 13:01:00,54.1,38.8,29.71,SW,225,7.0,12.0,56,0.00,,,0.00,295,MyOwnSoftware,2013-04-28 12:01:00,
2013-04-28 13:02:00,54.1,38.8,29.71,North,0,5.0,8.0,56,0.00,,,0.00,341,MyOwnSoftware,2013-04-28 12:02:00,
2013-04-28 13:03:00,53.9,39.0,29.71,West,261,8.0,-999.0,57,-99.99,,,0.01,373,weatherlink.com 1.10,2013-04-28 12:03:00,
2013-04-28 13:04:00,53.8,38.5,29.71,SW,225,9.0,17.0,56,0.00,,,0.00,384,MyOwnSoftware,2013-04-28 12:04:00,
2013-04-28 13:05:00,53.6,38.7,29.71,SE,135,5.0,11.0,57,0.00,,,0.00,398,MyOwnSoftware,2013-04-28 12:05:00,
2013-04-28 13:06:00,53.6,39.2,29.71,SW,225,7.0,13.0,58,0.00,,,0.00,373,MyOwnSoftware,2013-04-28 12:06:00,
2013-04-28 13:07:00,53.5,39.1,29.71,SSW,202,5.0,12.0,58,0.00,,,0.00,373,MyOwnSoftware,2013-04-28 12:07:00,
2013-04-28 13:08:00,53.5,39.5,29.71,SW,225,6.0,11.0,59,0.00,,,0.00,373,MyOwnSoftware,2013-04-28 12:08:00,
2013-04-28 13:09:00,53.5,39.5,29.71,WNW,292,6.0,9.0,59,0.00,,,0.00,373,MyOwnSoftware,2013-04-28 12:09:00,
2013-04-28 13:10:00,53.6,39.6,29.71,SW,225,7.0,14.0,59,0.00,,,0.00,373,MyOwnSoftware,2013-04-28 12:10:00,
2013-04-28 13:11:00,53.6,39.6,29.71,WNW,292,4.0,6.0,59,0.00,,,0.00,373,MyOwnSoftware,2013-04-28 12:11:00,
2013-04-28 13:12:00,53.8,39.8,29.71,SW,225,5.0,8.0,59,0.00,,,0.00,435,MyOwnSoftware,2013-04-28 12:12:00,
2013-04-28 13:13:00,53.8,39.8,29.71,SW,225,4.0,8.0,59,0.00,,,0.00,435,MyOwnSoftware,2013-04-28 12:13:00,
2013-04-28 13:14:00,53.9,39.9,29.71,SSW,202,5.0,10.0,59,0.00,,,0.00,412,MyOwnSoftware,2013-04-28 12:14:00,
2013-04-28 13:15:00,53.9,39.9,29.71,SSW,202,6.0,12.0,59,0.00,,,0.00,412,MyOwnSoftware,2013-04-28 12:15:00,
2013-04-28 13:16:00,53.9,39.9,29.71,West,270,7.0,10.0,59,0.00,,,0.00,412,MyOwnSoftware,2013-04-28 12:16:00,
2013-04-28 13:17:00,54.1,40.5,29.71,North,0,4.0,12.0,60,0.00,,,0.00,674,MyOwnSoftware,2013-04-28 12:17:00,
2013-04-28 13:18:00,53.5,39.5,29.71,WNW,292,6.0,9.0,59,0.00,,,0.00,373,MyOwnSoftware,2013-04-28 12:18:00,
2013-04-28 13:19:00,54.1,40.5,29.71,SW,225,6.0,11.0,60,0.00,,,0.00,674,MyOwnSoftware,2013-04-28 12:19:00,
2013-04-28 13:20:00,54.2,40.6,29.71,SE,135,4.0,6.0,60,0.00,,,0.00,674,MyOwnSoftware,2013-04-28 12:20:00,
2013-04-28 13:21:00,54.2,40.6,29.71,South,180,4.0,7.0,60,0.00,,,0.00,700,MyOwnSoftware,2013-04-28 12:21:00,
2013-04-28 13:22:00,54.4,40.8,29.71,NW,315,4.0,6.0,60,0.00,,,0.00,700,MyOwnSoftware,2013-04-28 12:22:00,
2013-04-28 13:23:00,54.4,40.8,29.71,WSW,248,5.0,10.0,60,0.00,,,0.00,290,MyOwnSoftware,2013-04-28 12:23:00,
2013-04-28 13:24:00,54.5,40.5,29.71,WSW,248,6.0,16.0,59,0.00,,,0.00,266,MyOwnSoftware,2013-04-28 12:24:00,
2013-04-28 13:25:00,54.5,40.0,29.71,WNW,292,6.0,17.0,58,0.00,,,0.00,266,MyOwnSoftware,2013-04-28 12:25:00,
2013-04-28 13:26:00,54.5,40.0,29.71,South,180,4.0,7.0,58,0.00,,,0.00,173,MyOwnSoftware,2013-04-28 12:26:00,
2013-04-28 13:27:00,54.5,40.0,29.71,SSW,202,4.0,11.0,58,0.00,,,0.00,135,MyOwnSoftware,2013-04-28 12:27:00,
2013-04-28 13:28:00,54.4,40.4,29.71,SW,225,5.0,11.0,59,0.00,,,0.00,102,MyOwnSoftware,2013-04-28 12:28:00,
2013-04-28 13:29:00,54.2,41.0,29.71,WNW,292,5.0,7.0,61,0.00,,,0.00,93,MyOwnSoftware,2013-04-28 12:29:00,
2013-04-28 13:30:00,54.1,43.0,29.71,WSW,248,7.0,14.0,66,0.00,,,0.00,118,MyOwnSoftware,2013-04-28 12:30:00,
2013-04-28 13:31:00,53.9,42.8,29.71,SW,225,9.0,17.0,66,0.00,,,0.00,118,MyOwnSoftware,2013-04-28 12:31:00,
2013-04-28 13:32:00,53.6,42.9,29.71,West,270,6.0,16.0,67,0.00,,,0.00,230,MyOwnSoftware,2013-04-28 12:32:00,
2013-04-28 13:33:00,53.2,42.0,29.71,WNW,285,5.0,-999.0,67,-99.99,,,0.01,269,weatherlink.com 1.10,2013-04-28 12:33:00,
2013-04-28 13:34:00,53.1,42.4,29.71,SSW,202,6.0,12.0,67,0.00,,,0.00,269,MyOwnSoftware,2013-04-28 12:34:00,
2013-04-28 13:35:00,52.8,42.9,29.71,SSW,202,7.0,13.0,69,0.00,,,0.00,269,MyOwnSoftware,2013-04-28 12:35:00,
2013-04-28 13:36:00,52.6,43.1,29.71,WSW,248,5.0,8.0,70,0.00,,,0.00,269,MyOwnSoftware,2013-04-28 12:36:00,
2013-04-28 13:37:00,52.5,43.0,29.71,West,270,5.0,8.0,70,0.00,,,0.00,801,MyOwnSoftware,2013-04-28 12:37:00,
2013-04-28 13:38:00,52.3,42.8,29.71,SW,225,4.0,7.0,70,0.00,,,0.00,794,MyOwnSoftware,2013-04-28 12:38:00,
2013-04-28 13:39:00,52.3,43.2,29.71,NW,315,4.0,8.0,71,0.00,,,0.00,776,MyOwnSoftware,2013-04-28 12:39:00,
2013-04-28 13:40:00,52.3,42.8,29.71,SSW,202,6.0,11.0,70,0.00,,,0.00,757,MyOwnSoftware,2013-04-28 12:40:00,
2013-04-28 13:41:00,52.3,42.8,29.71,SW,225,3.0,5.0,70,0.00,,,0.00,737,MyOwnSoftware,2013-04-28 12:41:00,
2013-04-28 13:42:00,52.3,43.2,29.71,SSW,202,3.0,7.0,71,0.00,,,0.00,732,MyOwnSoftware,2013-04-28 12:42:00,
2013-04-28 13:43:00,52.3,42.8,29.71,West,270,3.0,7.0,70,0.00,,,0.00,739,MyOwnSoftware,2013-04-28 12:43:00,
2013-04-28 13:44:00,52.5,43.0,29.71,SW,225,7.0,17.0,70,0.00,,,0.00,779,MyOwnSoftware,2013-04-28 12:44:00,
2013-04-28 13:45:00,52.5,41.9,29.70,WNW,292,7.0,14.0,67,0.00,,,0.00,779,MyOwnSoftware,2013-04-28 12:45:00,
2013-04-28 13:46:00,52.5,41.5,29.70,SW,225,5.0,7.0,66,0.00,,,0.00,790,MyOwnSoftware,2013-04-28 12:46:00,
2013-04-28 13:47:00,52.3,42.8,29.71,SW,225,4.0,7.0,70,0.00,,,0.00,794,MyOwnSoftware,2013-04-28 12:47:00,
2013-04-28 13:48:00,52.8,41.0,29.70,North,0,7.0,11.0,64,0.00,,,0.00,790,MyOwnSoftware,2013-04-28 12:48:00,
2013-04-28 13:49:00,52.8,41.0,29.70,WSW,248,5.0,14.0,64,0.00,,,0.00,850,MyOwnSoftware,2013-04-28 12:49:00,
2013-04-28 13:50:00,52.9,41.1,29.70,North,0,4.0,7.0,64,0.00,,,0.00,897,MyOwnSoftware,2013-04-28 12:50:00,
2013-04-28 13:51:00,52.9,41.1,29.70,West,270,4.0,7.0,64,0.00,,,0.00,897,MyOwnSoftware,2013-04-28 12:51:00,
2013-04-28 13:52:00,53.1,40.8,29.70,West,270,3.0,7.0,63,0.00,,,0.00,897,MyOwnSoftware,2013-04-28 12:52:00,
2013-04-28 13:53:00,53.2,40.9,29.70,SW,225,7.0,12.0,63,0.00,,,0.00,897,MyOwnSoftware,2013-04-28 12:53:00,
2013-04-28 13:54:00,53.2,40.9,29.70,SSW,202,6.0,13.0,63,0.00,,,0.00,897,MyOwnSoftware,2013-04-28 12:54:00,
2013-04-28 13:55:00,53.3,40.6,29.70,SW,225,7.0,11.0,62,0.00,,,0.00,897,MyOwnSoftware,2013-04-28 12:55:00,
2013-04-28 13:56:00,53.3,40.6,29.70,SSW,202,7.0,10.0,62,0.00,,,0.00,897,MyOwnSoftware,2013-04-28 12:56:00,
2013-04-28 13:57:00,52.8,41.0,29.70,North,0,7.0,11.0,64,0.00,,,0.00,790,MyOwnSoftware,2013-04-28 12:57:00,
2013-04-28 13:58:00,53.6,40.9,29.70,SW,225,7.0,17.0,62,0.00,,,0.00,809,MyOwnSoftware,2013-04-28 12:58:00,
2013-04-28 13:59:00,53.8,41.1,29.70,West,270,8.0,18.0,62,0.00,,,0.00,799,MyOwnSoftware,2013-04-28 12:59:00,
2013-04-28 14:00:00,53.8,40.2,29.69,SSW,202,10.0,16.0,60,0.00,,,0.00,836,MyOwnSoftware,2013-04-28 13:00:00,
2013-04-28 14:01:00,53.9,39.9,29.69,NNW,338,6.0,16.0,59,0.00,,,0.00,812,MyOwnSoftware,2013-04-28 13:01:00,
2013-04-28 14:02:00,54.1,40.1,29.69,North,0,7.0,20.0,59,0.00,,,0.00,808,MyOwnSoftware,2013-04-28 13:02:00,
2013-04-28 14:03:00,54.1,39.0,29.69,SSW,196,5.0,-999.0,58,-99.99,,,0.01,855,weatherlink.com 1.10,2013-04-28 13:03:00,
2013-04-28 14:04:00,54.1,39.7,29.69,North,0,5.0,8.0,58,0.00,,,0.00,855,MyOwnSoftware,2013-04-28 13:04:00,
2013-04-28 14:05:00,54.2,39.7,29.69,WSW,248,6.0,11.0,58,0.00,,,0.00,385,MyOwnSoftware,2013-04-28 13:05:00,
2013-04-28 14:06:00,54.4,39.9,29.69,WSW,248,8.0,19.0,58,0.00,,,0.00,385,MyOwnSoftware,2013-04-28 13:06:00,
2013-04-28 14:07:00,54.4,39.9,29.69,SSW,202,10.0,17.0,58,0.00,,,0.00,385,MyOwnSoftware,2013-04-28 13:07:00,
2013-04-28 14:08:00,54.4,39.5,29.69,North,0,8.0,16.0,57,0.00,,,0.00,880,MyOwnSoftware,2013-04-28 13:08:00,
2013-04-28 14:09:00,54.4,39.5,29.69,SSW,202,12.0,19.0,57,0.00,,,0.00,841,MyOwnSoftware,2013-04-28 13:09:00,
2013-04-28 14:10:00,54.4,39.5,29.69,SSW,202,8.0,16.0,57,0.00,,,0.00,841,MyOwnSoftware,2013-04-28 13:10:00,
2013-04-28 14:11:00,54.2,39.7,29.69,NW,315,6.0,11.0,58,0.00,,,0.00,841,MyOwnSoftware,2013-04-28 13:11:00,
2013-04-28 14:12:00,54.1,39.7,29.69,WSW,248,6.0,11.0,58,0.00,,,0.00,841,MyOwnSoftware,2013-04-28 13:12:00,
2013-04-28 14:13:00,53.9,39.9,29.69,NNW,338,6.0,14.0,59,0.00,,,0.00,841,MyOwnSoftware,2013-04-28 13:13:00,
2013-04-28 14:14:00,53.8,39.8,29.69,SW,225,9.0,14.0,59,0.00,,,0.00,841,MyOwnSoftware,2013-04-28 13:14:00,
2013-04-28 14:15:00,53.6,40.5,29.70,SSW,202,7.0,13.0,61,0.00,,,0.00,841,MyOwnSoftware,2013-04-28 13:15:00,
2013-04-28 14:16:00,53.5,40.8,29.70,SW,225,7.0,11.0,62,0.00,,,0.00,841,MyOwnSoftware,2013-04-28 13:16:00,
2013-04-28 14:17:00,53.5,40.8,29.70,WSW,248,5.0,10.0,62,0.00,,,0.00,762,MyOwnSoftware,2013-04-28 13:17:00,
2013-04-28 14:18:00,54.4,39.5,29.69,SSW,202,12.0,19.0,57,0.00,,,0.00,841,MyOwnSoftware,2013-04-28 13:18:00,
2013-04-28 14:19:00,53.6,40.5,29.70,SW,225,5.0,10.0,61,0.00,,,0.00,743,MyOwnSoftware,2013-04-28 13:19:00,
2013-04-28 14:20:00,53.6,40.5,29.70,SSW,202,7.0,11.0,61,0.00,,,0.00,718,MyOwnSoftware,2013-04-28 13:20:00,
2013-04-28 14:21:00,53.6,40.5,29.70,SSW,202,7.0,11.0,61,0.00,,,0.00,746,MyOwnSoftware,2013-04-28 13:21:00,
2013-04-28 14:22:00,53.6,40.5,29.70,WSW,248,6.0,13.0,61,0.00,,,0.00,750,MyOwnSoftware,2013-04-28 13:22:00,
2013-04-28 14:23:00,53.6,40.5,29.70,SW,225,6.0,14.0,61,0.00,,,0.00,769,MyOwnSoftware,2013-04-28 13:23:00,
2013-04-28 14:24:00,53.6,40.5,29.70,SSW,202,7.0,16.0,61,0.00,,,0.00,767,MyOwnSoftware,2013-04-28 13:24:00,
2013-04-28 14:25:00,53.6,40.5,29.70,NNE,22,5.0,8.0,61,0.00,,,0.00,787,MyOwnSoftware,2013-04-28 13:25:00,
2013-04-28 14:26:00,53.5,40.4,29.70,SSW,202,6.0,11.0,61,0.00,,,0.00,752,MyOwnSoftware,2013-04-28 13:26:00,
2013-04-28 14:27:00,53.6,40.5,29.70,SW,225,4.0,7.0,61,0.00,,,0.00,799,MyOwnSoftware,2013-04-28 13:27:00,
2013-04-28 14:28:00,53.6,40.5,29.70,SSW,202,5.0,9.0,61,0.00,,,0.00,799,MyOwnSoftware,2013-04-28 13:28:00,
2013-04-28 14:29:00,53.6,40.1,29.70,North,0,4.0,7.0,60,0.00,,,0.00,799,MyOwnSoftware,2013-04-28 13:29:00,
2013-04-28 14:30:00,53.6,40.1,29.70,SSE,158,6.0,11.0,60,0.00,,,0.00,160,MyOwnSoftware,2013-04-28 13:30:00,
2013-04-28 14:31:00,53.5,40.4,29.70,ENE,68,4.0,6.0,61,0.00,,,0.00,205,MyOwnSoftware,2013-04-28 13:31:00,
2013-04-28 14:32:00,53.5,40.4,29.70,South,180,5.0,11.0,61,0.00,,,0.00,197,MyOwnSoftware,2013-04-28 13:32:00,
2013-04-28 14:33:00,53.3,40.0,29.70,SW,227,7.0,-999.0,61,-99.99,,,0.01,130,weatherlink.com 1.10,2013-04-28 13:33:00,
2013-04-28 14:34:00,53.3,40.2,29.70,SW,225,4.0,8.0,61,0.00,,,0.00,130,MyOwnSoftware,2013-04-28 13:34:00,
2013-04-28 14:35:00,53.3,40.2,29.70,SSW,202,4.0,7.0,61,0.00,,,0.00,125,MyOwnSoftware,2013-04-28 13:35:00,
2013-04-28 14:36:00,53.3,39.3,29.70,North,0,4.0,6.0,59,0.00,,,0.00,141,MyOwnSoftware,2013-04-28 13:36:00,
2013-04-28 14:37:00,53.3,38.5,29.70,SSW,202,6.0,12.0,57,0.00,,,0.00,162,MyOwnSoftware,2013-04-28 13:37:00,
2013-04-28 14:38:00,53.2,38.4,29.70,North,0,6.0,10.0,57,0.00,,,0.00,167,MyOwnSoftware,2013-04-28 13:38:00,
2013-04-28 14:39:00,53.1,37.8,29.70,SW,225,5.0,8.0,56,0.00,,,0.00,172,MyOwnSoftware,2013-04-28 13:39:00,
2013-04-28 14:40:00,52.9,38.1,29.70,NNE,22,5.0,7.0,57,0.00,,,0.00,206,MyOwnSoftware,2013-04-28 13:40:00,
2013-04-28 14:41:00,52.8,38.0,29.70,WSW,248,6.0,11.0,57,0.00,,,0.00,213,MyOwnSoftware,2013-04-28 13:41:00,
2013-04-28 14:42:00,52.6,38.2,29.70,North,0,4.0,6.0,58,0.00,,,0.00,174,MyOwnSoftware,2013-04-28 13:42:00,
2013-04-28 14:43:00,52.5,38.6,29.70,North,0,3.0,5.0,59,0.00,,,0.00,151,MyOwnSoftware,2013-04-28 13:43:00,
2013-04-28 14:44:00,52.3,38.8,29.70,SW,225,4.0,10.0,60,0.00,,,0.00,121,MyOwnSoftware,2013-04-28 13:44:00,
2013-04-28 14:45:00,52.2,39.6,29.70,WNW,292,4.0,8.0,62,0.00,,,0.00,106,MyOwnSoftware,2013-04-28 13:45:00,
2013-04-28 14:46:00,52.2,39.6,29.70,WSW,248,5.0,8.0,62,0.00,,,0.00,106,MyOwnSoftware,2013-04-28 13:46:00,
2013-04-28 14:47:00,53.2,38.4,29.70,North,0,6.0,10.0,57,0.00,,,0.00,167,MyOwnSoftware,2013-04-28 13:47:00,
2013-04-28 14:48:00,51.9,41.3,29.70,WSW,248,6.0,12.0,67,0.00,,,0.00,132,MyOwnSoftware,2013-04-28 13:48:00,
2013-04-28 14:49:00,51.7,41.5,29.70,SW,225,7.0,12.0,68,0.00,,,0.00,143,MyOwnSoftware,2013-04-28 13:49:00,
2013-04-28 14:50:00,51.6,41.4,29.70,SW,225,3.0,6.0,68,0.00,,,0.00,155,MyOwnSoftware,2013-04-28 13:50:00,
2013-04-28 14:51:00,51.3,41.5,29.70,West,270,4.0,12.0,69,0.00,,,0.00,165,MyOwnSoftware,2013-04-28 13:51:00,
2013-04-28 14:52:00,51.1,41.7,29.70,SW,225,6.0,12.0,70,0.00,,,0.00,171,MyOwnSoftware,2013-04-28 13:52:00,
2013-04-28 14:53:00,51.0,41.6,29.70,SSW,202,7.0,12.0,70,0.00,,,0.00,171,MyOwnSoftware,2013-04-28 13:53:00,
2013-04-28 14:54:00,50.8,41.4,29.70,SSW,202,5.0,10.0,70,0.00,,,0.00,195,MyOwnSoftware,2013-04-28 13:54:00,
2013-04-28 14:55:00,50.7,41.6,29.70,SW,225,5.0,11.0,71,0.00,,,0.00,179,MyOwnSoftware,2013-04-28 13:55:00,
2013-04-28 14:56:00,50.7,41.3,29.70,SSW,202,5.0,11.0,70,0.00,,,0.00,168,MyOwnSoftware,2013-04-28 13:56:00,
2013-04-28 14:57:00,51.9,41.3,29.70,WSW,248,6.0,12.0,67,0.00,,,0.00,132,MyOwnSoftware,2013-04-28 13:57:00,
2013-04-28 14:58:00,50.4,41.0,29.70,SSW,202,6.0,11.0,70,0.00,,,0.00,238,MyOwnSoftware,2013-04-28 13:58:00,
2013-04-28 14:59:00,50.4,41.0,29.70,SSW,202,3.0,7.0,70,0.00,,,0.00,269,MyOwnSoftware,2013-04-28 13:59:00,
2013-04-28 15:00:00,50.2,40.8,29.70,SW,225,3.0,5.0,70,0.00,,,0.00,289,MyOwnSoftware,2013-04-28 14:00:00,
2013-04-28 15:01:00,50.2,40.8,29.70,SSW,202,5.0,7.0,70,0.00,,,0.00,272,MyOwnSoftware,2013-04-28 14:01:00,
2013-04-28 15:02:00,50.2,40.8,29.70,West,270,3.0,7.0,70,0.00,,,0.00,283,MyOwnSoftware,2013-04-28 14:02:00,
2013-04-28 15:03:00,50.2,41.0,29.70,WSW,243,3.0,-999.0,70,-99.99,,,0.01,290,weatherlink.com 1.10,2013-04-28 14:03:00,
2013-04-28 15:04:00,50.2,40.8,29.70,SSW,202,4.0,8.0,70,0.00,,,0.00,290,MyOwnSoftware,2013-04-28 14:04:00,
2013-04-28 15:05:00,50.2,40.8,29.70,West,270,3.0,8.0,70,0.00,,,0.00,285,MyOwnSoftware,2013-04-28 14:05:00,
2013-04-28 15:06:00,50.2,40.4,29.70,West,270,7.0,11.0,69,0.00,,,0.00,267,MyOwnSoftware,2013-04-28 14:06:00,
2013-04-28 15:07:00,50.2,40.1,29.70,SW,225,5.0,12.0,68,0.00,,,0.00,243,MyOwnSoftware,2013-04-28 14:07:00,
2013-04-28 15:08:00,50.2,40.4,29.70,West,270,6.0,12.0,69,0.00,,,0.00,222,MyOwnSoftware,2013-04-28 14:08:00,
2013-04-28 15:09:00,50.2,40.1,29.70,SSW,202,6.0,10.0,68,0.00,,,0.00,199,MyOwnSoftware,2013-04-28 14:09:00,
2013-04-28 15:10:00,50.2,40.1,29.70,SSW,202,6.0,10.0,68,0.00,,,0.00,190,MyOwnSoftware,2013-04-28 14:10:00,
2013-04-28 15:11:00,50.2,40.4,29.70,SSW,202,8.0,17.0,69,0.00,,,0.00,247,MyOwnSoftware,2013-04-28 14:11:00,
2013-04-28 15:12:00,50.1,39.6,29.70,SW,225,10.0,21.0,67,0.00,,,0.01,271,MyOwnSoftware,2013-04-28 14:12:00,
2013-04-28 15:13:00,50.1,39.6,29.70,SSW,202,8.0,11.0,67,0.00,,,0.02,362,MyOwnSoftware,2013-04-28 14:13:00,
2013-04-28 15:14:00,50.1,39.6,29.70,WSW,248,5.0,13.0,67,0.00,,,0.02,362,MyOwnSoftware,2013-04-28 14:14:00,
2013-04-28 15:15:00,50.1,39.6,29.70,WSW,248,5.0,10.0,67,0.00,,,0.02,362,MyOwnSoftware,2013-04-28 14:15:00,
2013-04-28 15:16:00,50.2,40.1,29.70,SW,225,5.0,12.0,68,0.00,,,0.00,243,MyOwnSoftware,2013-04-28 14:16:00,
2013-04-28 15:17:00,50.1,39.6,29.70,SSW,202,5.0,7.0,67,0.00,,,0.02,378,MyOwnSoftware,2013-04-28 14:17:00,
2013-04-28 15:18:00,50.1,39.6,29.70,WSW,248,5.0,8.0,67,0.00,,,0.02,401,MyOwnSoftware,2013-04-28 14:18:00,
2013-04-28 15:19:00,50.1,39.6,29.70,WSW,248,4.0,8.0,67,0.00,,,0.02,401,MyOwnSoftware,2013-04-28 14:19:00,
2013-04-28 15:20:00,50.2,40.1,29.70,SW,225,3.0,6.0,68,0.00,,,0.02,401,MyOwnSoftware,2013-04-28 14:20:00,
2013-04-28 15:21:00,50.2,39.7,29.70,SW,225,4.0,8.0,67,0.00,,,0.02,874,MyOwnSoftware,2013-04-28 14:21:00,
2013-04-28 15:22:00,50.4,39.5,29.70,SSW,202,5.0,12.0,66,0.00,,,0.02,874,MyOwnSoftware,2013-04-28 14:22:00,
2013-04-28 15:23:00,50.4,39.5,29.70,SSW,202,6.0,11.0,66,0.00,,,0.02,774,MyOwnSoftware,2013-04-28 14:23:00,
2013-04-28 15:24:00,50.5,39.2,29.70,North,0,5.0,7.0,65,0.00,,,0.02,774,MyOwnSoftware,2013-04-28 14:24:00,
2013-04-28 15:25:00,50.5,39.6,29.70,SSW,202,3.0,6.0,66,0.00,,,0.02,690,MyOwnSoftware,2013-04-28 14:25:00,
2013-04-28 15:26:00,50.7,39.8,29.70,SW,225,3.0,6.0,66,0.00,,,0.02,679,MyOwnSoftware,2013-04-28 14:26:00,
2013-04-28 15:27:00,50.8,39.5,29.70,South,180,4.0,7.0,65,0.00,,,0.02,683,MyOwnSoftware,2013-04-28 14:27:00,
2013-04-28 15:28:00,51.0,39.7,29.70,North,0,4.0,11.0,65,0.00,,,0.01,683,MyOwnSoftware,2013-04-28 14:28:00,
2013-04-28 15:29:00,51.0,39.3,29.70,SSW,202,6.0,12.0,64,0.00,,,0.01,683,MyOwnSoftware,2013-04-28 14:29:00,
2013-04-28 15:30:00,51.1,39.4,29.69,SW,225,8.0,16.0,64,0.00,,,0.01,683,MyOwnSoftware,2013-04-28 14:30:00,
2013-04-28 15:31:00,51.3,39.5,29.69,SSW,202,4.0,8.0,64,0.00,,,0.01,683,MyOwnSoftware,2013-04-28 14:31:00,
2013-04-28 15:32:00,51.3,39.5,29.69,SW,225,5.0,10.0,64,0.00,,,0.01,683,MyOwnSoftware,2013-04-28 14:32:00,
2013-04-28 15:33:00,51.4,39.6,29.69,SSW,202,10.0,22.0,64,0.00,,,0.01,764,MyOwnSoftware,2013-04-28 14:33:00,
2013-04-28 15:34:00,51.6,39.0,29.69,SSE,157,4.0,-999.0,63,-99.99,,,0.02,764,weatherlink.com 1.10,2013-04-28 14:34:00,
2013-04-28 15:35:00,51.6,39.4,29.69,SW,225,8.0,16.0,63,0.00,,,0.01,764,MyOwnSoftware,2013-04-28 14:35:00,
2013-04-28 15:36:00,51.7,39.5,29.69,SSW,202,8.0,17.0,63,0.00,,,0.01,764,MyOwnSoftware,2013-04-28 14:36:00,
2013-04-28 15:37:00,51.7,39.1,29.69,SSW,202,9.0,17.0,62,0.00,,,0.01,714,MyOwnSoftware,2013-04-28 14:37:00,
2013-04-28 15:38:00,51.7,39.1,29.69,SW,225,8.0,12.0,62,0.00,,,0.01,713,MyOwnSoftware,2013-04-28 14:38:00,
2013-04-28 15:39:00,51.9,39.3,29.69,SW,225,5.0,8.0,62,0.00,,,0.01,693,MyOwnSoftware,2013-04-28 14:39:00,
2013-04-28 15:40:00,52.0,39.0,29.69,WSW,248,6.0,12.0,61,0.00,,,0.01,690,MyOwnSoftware,2013-04-28 14:40:00,
2013-04-28 15:41:00,52.0,39.0,29.69,SSW,202,6.0,13.0,61,0.00,,,0.01,690,MyOwnSoftware,2013-04-28 14:41:00,
2013-04-28 15:42:00,52.2,38.7,29.69,SSW,202,5.0,8.0,60,0.00,,,0.01,195,MyOwnSoftware,2013-04-28 14:42:00,
2013-04-28 15:43:00,52.2,38.7,29.69,SSW,202,6.0,14.0,60,0.00,,,0.01,183,MyOwnSoftware,2013-04-28 14:43:00,
2013-04-28 15:44:00,52.2,38.3,29.69,West,270,6.0,11.0,59,0.00,,,0.01,204,MyOwnSoftware,2013-04-28 14:44:00,
2013-04-28 15:45:00,52.3,38.4,29.69,WSW,248,9.0,12.0,59,0.00,,,0.01,171,MyOwnSoftware,2013-04-28 14:45:00,
2013-04-28 15:46:00,51.7,39.1,29.69,SSW,202,9.0,17.0,62,0.00,,,0.01,714,MyOwnSoftware,2013-04-28 14:46:00,
2013-04-28 15:47:00,52.2,38.3,29.69,SW,225,8.0,12.0,59,0.00,,,0.01,236,MyOwnSoftware,2013-04-28 14:47:00,
2013-04-28 15:48:00,52.0,38.1,29.69,SW,225,7.0,13.0,59,0.00,,,0.01,236,MyOwnSoftware,2013-04-28 14:48:00,
2013-04-28 15:49:00,52.0,38.5,29.69,WNW,292,6.0,17.0,60,0.00,,,0.01,236,MyOwnSoftware,2013-04-28 14:49:00,
2013-04-28 15:50:00,52.0,39.4,29.69,SSW,202,3.0,10.0,62,0.00,,,0.01,190,MyOwnSoftware,2013-04-28 14:50:00,
2013-04-28 15:51:00,51.9,39.3,29.69,SSW,202,4.0,13.0,62,0.00,,,0.01,212,MyOwnSoftware,2013-04-28 14:51:00,
2013-04-28 15:52:00,51.9,39.3,29.69,SW,225,7.0,12.0,62,0.00,,,0.01,227,MyOwnSoftware,2013-04-28 14:52:00,
2013-04-28 15:53:00,51.9,39.3,29.69,SSW,202,6.0,14.0,62,0.00,,,0.01,227,MyOwnSoftware,2013-04-28 14:53:00,
2013-04-28 15:54:00,51.7,39.5,29.69,SW,225,7.0,13.0,63,0.00,,,0.01,215,MyOwnSoftware,2013-04-28 14:54:00,
2013-04-28 15:55:00,51.7,39.5,29.69,North,0,5.0,10.0,63,0.00,,,0.01,218,MyOwnSoftware,2013-04-28 14:55:00,
2013-04-28 15:56:00,52.2,38.3,29.69,SW,225,8.0,12.0,59,0.00,,,0.01,236,MyOwnSoftware,2013-04-28 14:56:00,
2013-04-28 15:57:00,51.3,39.5,29.69,North,0,5.0,7.0,64,0.00,,,0.01,264,MyOwnSoftware,2013-04-28 14:57:00,
2013-04-28 15:58:00,51.3,39.5,29.69,WNW,292,4.0,7.0,64,0.00,,,0.01,267,MyOwnSoftware,2013-04-28 14:58:00,
2013-04-28 15:59:00,51.1,39.4,29.69,WSW,248,5.0,6.0,64,0.00,,,0.01,246,MyOwnSoftware,2013-04-28 14:59:00,
2013-04-28 16:00:00,51.1,39.4,29.68,North,0,3.0,7.0,64,0.00,,,0.01,222,MyOwnSoftware,2013-04-28 15:00:00,
2013-04-28 16:01:00,51.1,39.4,29.68,NW,315,5.0,12.0,64,0.00,,,0.01,248,MyOwnSoftware,2013-04-28 15:01:00,
2013-04-28 16:02:00,51.0,39.3,29.68,NW,315,3.0,6.0,64,0.00,,,0.01,248,MyOwnSoftware,2013-04-28 15:02:00,
2013-04-28 16:03:00,51.0,39.7,29.68,NNW,338,2.0,5.0,65,0.00,,,0.01,248,MyOwnSoftware,2013-04-28 15:03:00,
2013-04-28 16:04:00,51.0,39.0,29.68,SSW,199,9.0,-999.0,64,-99.99,,,0.02,158,weatherlink.com 1.10,2013-04-28 15:04:00,
2013-04-28 16:05:00,51.0,39.3,29.68,SSW,202,6.0,12.0,64,0.00,,,0.01,137,MyOwnSoftware,2013-04-28 15:05:00,
2013-04-28 16:06:00,51.0,39.3,29.68,SW,225,5.0,10.0,64,0.00,,,0.01,106,MyOwnSoftware,2013-04-28 15:06:00,
2013-04-28 16:07:00,50.8,39.9,29.68,SSW,202,7.0,13.0,66,0.00,,,0.01,81,MyOwnSoftware,2013-04-28 15:07:00,
2013-04-28 16:08:00,50.8,39.9,29.68,SSW,202,8.0,12.0,66,0.00,,,0.01,76,MyOwnSoftware,2013-04-28 15:08:00,
2013-04-28 16:09:00,50.8,40.6,29.68,SW,225,6.0,10.0,68,0.00,,,0.01,77,MyOwnSoftware,2013-04-28 15:09:00,
2013-04-28 16:10:00,50.7,41.3,29.68,WSW,248,4.0,8.0,70,0.00,,,0.01,70,MyOwnSoftware,2013-04-28 15:10:00,
2013-04-28 16:11:00,50.7,41.6,29.68,South,180,4.0,11.0,71,0.00,,,0.01,57,MyOwnSoftware,2013-04-28 15:11:00,
2013-04-28 16:12:00,50.5,41.5,29.68,WSW,248,4.0,12.0,71,0.00,,,0.01,55,MyOwnSoftware,2013-04-28 15:12:00,
2013-04-28 16:13:00,50.4,41.7,29.68,WSW,248,5.0,11.0,72,0.00,,,0.01,58,MyOwnSoftware,2013-04-28 15:13:00,
2013-04-28 16:14:00,50.2,41.9,29.68,SW,225,10.0,19.0,73,0.00,,,0.02,62,MyOwnSoftware,2013-04-28 15:14:00,
2013-04-28 16:15:00,50.1,41.8,29.69,SW,225,7.0,15.0,73,0.00,,,0.03,60,MyOwnSoftware,2013-04-28 15:15:00,
2013-04-28 16:16:00,50.8,39.9,29.68,SSW,202,7.0,13.0,66,0.00,,,0.01,81,MyOwnSoftware,2013-04-28 15:16:00,
2013-04-28 16:17:00,49.6,41.7,29.69,SSW,202,6.0,9.0,74,0.00,,,0.03,90,MyOwnSoftware,2013-04-28 15:17:00,
2013-04-28 16:18:00,49.4,41.5,29.69,SW,225,9.0,13.0,74,0.00,,,0.03,107,MyOwnSoftware,2013-04-28 15:18:00,
2013-04-28 16:19:00,49.2,41.3,29.69,West,270,4.0,8.0,74,0.00,,,0.03,111,MyOwnSoftware,2013-04-28 15:19:00,
2013-04-28 16:20:00,48.9,41.7,29.69,WSW,248,6.0,17.0,76,0.09,,,0.03,114,MyOwnSoftware,2013-04-28 15:20:00,
2013-04-28 16:21:00,48.6,41.7,29.69,NW,315,4.0,7.0,77,0.09,,,0.04,130,MyOwnSoftware,2013-04-28 15:21:00,
2013-04-28 16:22:00,48.5,42.0,29.69,SW,225,4.0,8.0,78,0.09,,,0.04,160,MyOwnSoftware,2013-04-28 15:22:00,
2013-04-28 16:23:00,48.3,42.1,29.69,SSW,202,5.0,17.0,79,0.09,,,0.04,181,MyOwnSoftware,2013-04-28 15:23:00,
2013-04-28 16:24:00,48.2,42.3,29.69,WNW,292,3.0,6.0,80,0.09,,,0.04,195,MyOwnSoftware,2013-04-28 15:24:00,
2013-04-28 16:25:00,48.0,43.1,29.69,SW,225,2.0,6.0,83,0.09,,,0.04,201,MyOwnSoftware,2013-04-28 15:25:00,
2013-04-28 16:26:00,47.9,43.3,29.69,West,270,4.0,6.0,84,0.09,,,0.04,204,MyOwnSoftware,2013-04-28 15:26:00,
2013-04-28 16:27:00,47.9,43.6,29.69,South,180,2.0,5.0,85,0.08,,,0.04,204,MyOwnSoftware,2013-04-28 15:27:00,
2013-04-28 16:28:00,47.7,43.7,29.69,SSW,202,5.0,10.0,86,0.07,,,0.04,204,MyOwnSoftware,2013-04-28 15:28:00,
2013-04-28 16:29:00,47.7,44.0,29.69,WNW,292,6.0,13.0,87,0.06,,,0.02,401,MyOwnSoftware,2013-04-28 15:29:00,
2013-04-28 16:30:00,47.7,44.0,29.68,SSW,202,6.0,10.0,87,0.06,,,0.02,380,MyOwnSoftware,2013-04-28 15:30:00,
2013-04-28 16:31:00,47.7,44.0,29.68,SSW,202,6.0,13.0,87,0.05,,,0.02,588,MyOwnSoftware,2013-04-28 15:31:00,
2013-04-28 16:32:00,47.7,44.0,29.68,SW,225,8.0,14.0,87,0.05,,,0.02,588,MyOwnSoftware,2013-04-28 15:32:00,
2013-04-28 16:33:00,47.9,44.2,29.68,SW,225,6.0,8.0,87,0.05,,,0.02,519,MyOwnSoftware,2013-04-28 15:33:00,
2013-04-28 16:34:00,47.9,44.0,29.68,WSW,254,2.0,-999.0,87,-99.99,,,0.04,505,weatherlink.com 1.10,2013-04-28 15:34:00,
2013-04-28 16:35:00,48.0,44.3,29.68,WSW,248,3.0,6.0,87,0.04,,,0.02,505,MyOwnSoftware,2013-04-28 15:35:00,
2013-04-28 16:36:00,48.0,44.3,29.68,SSW,202,4.0,8.0,87,0.04,,,0.02,509,MyOwnSoftware,2013-04-28 15:36:00,
2013-04-28 16:37:00,48.0,44.3,29.68,SW,225,6.0,11.0,87,0.00,,,0.02,484,MyOwnSoftware,2013-04-28 15:37:00,
2013-04-28 16:38:00,48.2,44.5,29.68,SW,225,7.0,11.0,87,0.00,,,0.02,516,MyOwnSoftware,2013-04-28 15:38:00,
2013-04-28 16:39:00,48.3,44.6,29.68,SSW,202,9.0,16.0,87,0.00,,,0.02,500,MyOwnSoftware,2013-04-28 15:39:00,
2013-04-28 16:40:00,48.3,43.7,29.68,SSW,202,7.0,11.0,84,0.00,,,0.02,500,MyOwnSoftware,2013-04-28 15:40:00,
2013-04-28 16:41:00,48.3,43.7,29.68,WNW,292,5.0,11.0,84,0.00,,,0.02,234,MyOwnSoftware,2013-04-28 15:41:00,
2013-04-28 16:42:00,48.5,43.9,29.68,WSW,248,6.0,14.0,84,0.00,,,0.02,213,MyOwnSoftware,2013-04-28 15:42:00,
2013-04-28 16:43:00,48.5,43.6,29.68,SW,225,6.0,12.0,83,0.00,,,0.02,81,MyOwnSoftware,2013-04-28 15:43:00,
2013-04-28 16:44:00,48.5,43.6,29.68,West,270,8.0,16.0,83,0.00,,,0.02,84,MyOwnSoftware,2013-04-28 15:44:00,
2013-04-28 16:45:00,48.5,43.3,29.67,SSW,202,6.0,13.0,82,0.00,,,0.02,90,MyOwnSoftware,2013-04-28 15:45:00,
2013-04-28 16:46:00,48.0,44.3,29.68,SW,225,6.0,11.0,87,0.00,,,0.02,484,MyOwnSoftware,2013-04-28 15:46:00,
2013-04-28 16:47:00,48.5,42.9,29.67,SSW,202,9.0,14.0,81,0.00,,,0.02,99,MyOwnSoftware,2013-04-28 15:47:00,
2013-04-28 16:48:00,48.3,42.4,29.67,SW,225,9.0,16.0,80,0.00,,,0.02,99,MyOwnSoftware,2013-04-28 15:48:00,
2013-04-28 16:49:00,48.3,42.4,29.67,SSW,202,8.0,15.0,80,0.00,,,0.02,97,MyOwnSoftware,2013-04-28 15:49:00,
2013-04-28 16:50:00,48.2,42.0,29.67,SW,225,8.0,16.0,79,0.00,,,0.02,91,MyOwnSoftware,2013-04-28 15:50:00,
2013-04-28 16:51:00,48.2,42.0,29.67,North,0,7.0,13.0,79,0.00,,,0.02,107,MyOwnSoftware,2013-04-28 15:51:00,
2013-04-28 16:52:00,48.0,41.8,29.67,SSW,202,5.0,7.0,79,0.00,,,0.02,139,MyOwnSoftware,2013-04-28 15:52:00,
2013-04-28 16:53:00,48.0,41.8,29.67,West,270,5.0,7.0,79,0.00,,,0.02,153,MyOwnSoftware,2013-04-28 15:53:00,
2013-04-28 16:54:00,48.0,42.1,29.67,WNW,292,4.0,7.0,80,0.00,,,0.02,155,MyOwnSoftware,2013-04-28 15:54:00,
2013-04-28 16:55:00,48.0,42.1,29.67,South,180,5.0,10.0,80,0.00,,,0.02,158,MyOwnSoftware,2013-04-28 15:55:00,
2013-04-28 16:56:00,48.5,42.9,29.67,SSW,202,9.0,14.0,81,0.00,,,0.02,99,MyOwnSoftware,2013-04-28 15:56:00,
2013-04-28 16:57:00,48.0,42.1,29.67,SSW,202,5.0,8.0,80,0.00,,,0.02,158,MyOwnSoftware,2013-04-28 15:57:00,
2013-04-28 16:58:00,48.0,42.1,29.67,West,270,5.0,10.0,80,0.00,,,0.02,172,MyOwnSoftware,2013-04-28 15:58:00,
2013-04-28 16:59:00,48.0,42.1,29.67,South,180,6.0,11.0,80,0.00,,,0.02,183,MyOwnSoftware,2013-04-28 15:59:00,
2013-04-28 17:00:00,48.0,41.8,29.67,NW,315,3.0,7.0,79,0.00,,,0.02,188,MyOwnSoftware,2013-04-28 16:00:00,
2013-04-28 17:01:00,48.0,41.8,29.67,SSW,202,4.0,7.0,79,0.00,,,0.02,241,MyOwnSoftware,2013-04-28 16:01:00,
2013-04-28 17:02:00,48.0,41.8,29.67,SW,225,6.0,13.0,79,0.00,,,0.02,246,MyOwnSoftware,2013-04-28 16:02:00,
2013-04-28 17:03:00,48.2,42.0,29.67,West,270,3.0,5.0,79,0.00,,,0.02,246,MyOwnSoftware,2013-04-28 16:03:00,
2013-04-28 17:04:00,48.2,42.0,29.67,NW,306,2.0,-999.0,79,-99.99,,,0.04,206,weatherlink.com 1.10,2013-04-28 16:04:00,
2013-04-28 17:05:00,48.2,42.0,29.67,SSW,202,5.0,10.0,79,0.00,,,0.02,206,MyOwnSoftware,2013-04-28 16:05:00,
2013-04-28 17:06:00,48.2,42.0,29.67,SW,225,8.0,17.0,79,0.00,,,0.02,222,MyOwnSoftware,2013-04-28 16:06:00,
2013-04-28 17:07:00,48.3,42.1,29.67,West,270,3.0,5.0,79,0.00,,,0.03,222,MyOwnSoftware,2013-04-28 16:07:00,
2013-04-28 17:08:00,48.3,42.4,29.67,West,270,2.0,3.0,80,0.00,,,0.03,201,MyOwnSoftware,2013-04-28 16:08:00,
2013-04-28 17:09:00,48.3,42.4,29.67,SSW,202,4.0,10.0,80,0.00,,,0.03,201,MyOwnSoftware,2013-04-28 16:09:00,
2013-04-28 17:10:00,48.5,42.6,29.67,NE,45,4.0,7.0,80,0.00,,,0.03,201,MyOwnSoftware,2013-04-28 16:10:00,
2013-04-28 17:11:00,48.5,42.6,29.67,SSW,202,5.0,7.0,80,0.00,,,0.03,563,MyOwnSoftware,2013-04-28 16:11:00,
2013-04-28 17:12:00,48.6,42.7,29.67,SSW,202,2.0,6.0,80,0.00,,,0.03,563,MyOwnSoftware,2013-04-28 16:12:00,
2013-04-28 17:13:00,48.6,42.7,29.67,WNW,292,4.0,8.0,80,0.00,,,0.03,429,MyOwnSoftware,2013-04-28 16:13:00,
2013-04-28 17:14:00,48.8,42.6,29.67,SW,225,3.0,6.0,79,0.00,,,0.03,406,MyOwnSoftware,2013-04-28 16:14:00,
2013-04-28 17:15:00,48.8,42.2,29.66,SSW,202,5.0,10.0,78,0.00,,,0.03,406,MyOwnSoftware,2013-04-28 16:15:00,
2013-04-28 17:16:00,48.3,42.1,29.67,West,270,3.0,5.0,79,0.00,,,0.02,222,MyOwnSoftware,2013-04-28 16:16:00,
2013-04-28 17:17:00,48.9,42.0,29.66,ENE,68,3.0,10.0,77,0.00,,,0.03,215,MyOwnSoftware,2013-04-28 16:17:00,
2013-04-28 17:18:00,48.9,42.0,29.66,SW,225,5.0,19.0,77,0.00,,,0.03,215,MyOwnSoftware,2013-04-28 16:18:00,
2013-04-28 17:19:00,48.9,41.3,29.66,SSW,202,7.0,12.0,75,0.00,,,0.03,215,MyOwnSoftware,2013-04-28 16:19:00,
2013-04-28 17:20:00,49.1,40.8,29.66,SW,225,5.0,10.0,73,0.00,,,0.03,215,MyOwnSoftware,2013-04-28 16:20:00,
2013-04-28 17:21:00,49.1,40.5,29.66,SSW,202,8.0,14.0,72,0.00,,,0.03,96,MyOwnSoftware,2013-04-28 16:21:00,
2013-04-28 17:22:00,48.9,40.3,29.66,SSW,202,11.0,14.0,72,0.00,,,0.03,114,MyOwnSoftware,2013-04-28 16:22:00,
2013-04-28 17:23:00,48.9,40.3,29.66,SSW,202,7.0,14.0,72,0.00,,,0.03,106,MyOwnSoftware,2013-04-28 16:23:00,
2013-04-28 17:24:00,48.9,39.9,29.66,SW,225,6.0,11.0,71,0.00,,,0.03,102,MyOwnSoftware,2013-04-28 16:24:00,
2013-04-28 17:25:00,48.9,39.9,29.66,SSE,158,6.0,13.0,71,0.00,,,0.03,113,MyOwnSoftware,2013-04-28 16:25:00,
2013-04-28 17:26:00,48.9,39.9,29.66,SSW,202,5.0,11.0,71,0.00,,,0.03,160,MyOwnSoftware,2013-04-28 16:26:00,
2013-04-28 17:27:00,48.9,39.9,29.66,NW,315,4.0,7.0,71,0.00,,,0.03,127,MyOwnSoftware,2013-04-28 16:27:00,
2013-04-28 17:28:00,48.9,39.9,29.66,North,0,4.0,7.0,71,0.00,,,0.03,88,MyOwnSoftware,2013-04-28 16:28:00,
2013-04-28 17:29:00,48.9,39.6,29.66,WSW,248,6.0,11.0,70,0.00,,,0.00,102,MyOwnSoftware,2013-04-28 16:29:00,
2013-04-28 17:30:00,48.9,38.8,29.66,North,0,6.0,11.0,68,0.00,,,0.00,127,MyOwnSoftware,2013-04-28 16:30:00,
2013-04-28 17:31:00,48.9,38.8,29.66,SW,225,8.0,17.0,68,0.00,,,0.00,116,MyOwnSoftware,2013-04-28 16:31:00,
2013-04-28 17:32:00,48.9,38.8,29.66,SW,225,10.0,17.0,68,0.00,,,0.00,137,MyOwnSoftware,2013-04-28 16:32:00,
2013-04-28 17:33:00,48.9,38.4,29.66,SW,225,7.0,14.0,67,0.00,,,0.00,148,MyOwnSoftware,2013-04-28 16:33:00,
2013-04-28 17:34:00,48.9,38.0,29.66,WSW,250,10.0,-999.0,67,-99.99,,,0.04,83,weatherlink.com 1.10,2013-04-28 16:34:00,
2013-04-28 17:35:00,48.9,38.4,29.66,SSW,202,5.0,10.0,67,0.00,,,0.00,83,MyOwnSoftware,2013-04-28 16:35:00,
2013-04-28 17:36:00,48.9,38.4,29.66,WSW,248,3.0,11.0,67,0.00,,,0.00,69,MyOwnSoftware,2013-04-28 16:36:00,
2013-04-28 17:37:00,49.1,39.0,29.66,SW,225,6.0,12.0,68,0.00,,,0.00,56,MyOwnSoftware,2013-04-28 16:37:00,
2013-04-28 17:38:00,49.1,38.2,29.66,SSW,202,6.0,12.0,66,0.00,,,0.00,58,MyOwnSoftware,2013-04-28 16:38:00,
2013-04-28 17:39:00,49.1,38.2,29.66,SW,225,7.0,11.0,66,0.00,,,0.00,81,MyOwnSoftware,2013-04-28 16:39:00,
2013-04-28 17:40:00,49.1,38.2,29.66,SSW,202,5.0,11.0,66,0.00,,,0.00,104,MyOwnSoftware,2013-04-28 16:40:00,
2013-04-28 17:41:00,49.1,38.2,29.66,SW,225,5.0,12.0,66,0.00,,,0.00,86,MyOwnSoftware,2013-04-28 16:41:00,
2013-04-28 17:42:00,49.1,38.2,29.66,SW,225,4.0,7.0,66,0.00,,,0.00,69,MyOwnSoftware,2013-04-28 16:42:00,
2013-04-28 17:43:00,49.2,38.3,29.66,SW,225,4.0,8.0,66,0.00,,,0.00,67,MyOwnSoftware,2013-04-28 16:43:00,
2013-04-28 17:44:00,49.2,38.3,29.66,SW,225,3.0,7.0,66,0.00,,,0.00,72,MyOwnSoftware,2013-04-28 16:44:00,
2013-04-28 17:45:00,49.2,38.3,29.66,SSW,202,5.0,10.0,66,0.00,,,0.00,93,MyOwnSoftware,2013-04-28 16:45:00,
2013-04-28 17:46:00,49.1,39.0,29.66,SW,225,6.0,12.0,68,0.00,,,0.00,56,MyOwnSoftware,2013-04-28 16:46:00,
2013-04-28 17:47:00,49.2,37.9,29.66,SSW,202,7.0,14.0,65,0.00,,,0.00,106,MyOwnSoftware,2013-04-28 16:47:00,
2013-04-28 17:48:00,49.2,37.9,29.66,SSW,202,7.0,12.0,65,0.00,,,0.00,88,MyOwnSoftware,2013-04-28 16:48:00,
2013-04-28 17:49:00,49.1,37.8,29.66,SSW,202,6.0,11.0,65,0.00,,,0.00,93,MyOwnSoftware,2013-04-28 16:49:00,
2013-04-28 17:50:00,49.1,37.8,29.66,WSW,248,6.0,13.0,65,0.00,,,0.00,128,MyOwnSoftware,2013-04-28 16:50:00,
2013-04-28 17:51:00,49.1,38.2,29.66,SSW,202,8.0,14.0,66,0.00,,,0.00,138,MyOwnSoftware,2013-04-28 16:51:00,
2013-04-28 17:52:00,49.1,38.6,29.66,SW,225,6.0,11.0,67,0.00,,,0.00,113,MyOwnSoftware,2013-04-28 16:52:00,
2013-04-28 17:53:00,49.1,38.2,29.66,WSW,248,6.0,11.0,66,0.00,,,0.00,111,MyOwnSoftware,2013-04-28 16:53:00,
2013-04-28 17:54:00,49.1,37.8,29.66,SSW,202,6.0,12.0,65,0.00,,,0.00,93,MyOwnSoftware,2013-04-28 16:54:00,
2013-04-28 17:55:00,49.1,37.5,29.66,SW,225,8.0,17.0,64,0.00,,,0.00,90,MyOwnSoftware,2013-04-28 16:55:00,
2013-04-28 17:56:00,49.2,37.9,29.66,SSW,202,7.0,14.0,65,0.00,,,0.00,106,MyOwnSoftware,2013-04-28 16:56:00,
2013-04-28 17:57:00,49.1,37.5,29.66,South,180,9.0,13.0,64,0.00,,,0.00,77,MyOwnSoftware,2013-04-28 16:57:00,
2013-04-28 17:58:00,49.1,37.5,29.66,SSW,202,6.0,8.0,64,0.00,,,0.00,74,MyOwnSoftware,2013-04-28 16:58:00,
2013-04-28 17:59:00,49.1,37.5,29.66,SSW,202,7.0,13.0,64,0.00,,,0.00,72,MyOwnSoftware,2013-04-28 16:59:00,
2013-04-28 18:00:00,49.1,37.5,29.66,SW,225,5.0,11.0,64,0.00,,,0.00,79,MyOwnSoftware,2013-04-28 17:00:00,
2013-04-28 18:01:00,49.1,37.5,29.66,NW,315,3.0,10.0,64,0.00,,,0.00,79,MyOwnSoftware,2013-04-28 17:01:00,
2013-04-28 18:02:00,49.1,37.5,29.66,SSW,202,7.0,14.0,64,0.00,,,0.00,74,MyOwnSoftware,2013-04-28 17:02:00,
2013-04-28 18:03:00,49.1,37.5,29.66,South,180,6.0,10.0,64,0.00,,,0.00,65,MyOwnSoftware,2013-04-28 17:03:00,
2013-04-28 18:04:00,49.1,37.0,29.66,SSW,192,7.0,-999.0,63,-99.99,,,0.04,76,weatherlink.com 1.10,2013-04-28 17:04:00,
2013-04-28 18:05:00,49.1,37.1,29.66,SW,225,7.0,12.0,63,0.00,,,0.00,76,MyOwnSoftware,2013-04-28 17:05:00,
2013-04-28 18:06:00,49.1,37.1,29.66,SW,225,4.0,8.0,63,0.00,,,0.00,78,MyOwnSoftware,2013-04-28 17:06:00,
2013-04-28 18:07:00,49.1,37.1,29.66,SW,225,5.0,10.0,63,0.00,,,0.00,86,MyOwnSoftware,2013-04-28 17:07:00,
2013-04-28 18:08:00,49.1,37.1,29.66,WSW,248,5.0,10.0,63,0.00,,,0.00,86,MyOwnSoftware,2013-04-28 17:08:00,
2013-04-28 18:09:00,49.1,37.1,29.66,WSW,248,6.0,12.0,63,0.00,,,0.00,77,MyOwnSoftware,2013-04-28 17:09:00,
2013-04-28 18:10:00,49.1,36.6,29.66,SSW,202,5.0,10.0,62,0.00,,,0.00,74,MyOwnSoftware,2013-04-28 17:10:00,
2013-04-28 18:11:00,49.1,36.6,29.66,NNE,22,4.0,7.0,62,0.00,,,0.00,72,MyOwnSoftware,2013-04-28 17:11:00,
2013-04-28 18:12:00,49.1,36.6,29.66,West,270,6.0,8.0,62,0.00,,,0.00,62,MyOwnSoftware,2013-04-28 17:12:00,
2013-04-28 18:13:00,49.1,36.6,29.66,SSW,202,4.0,7.0,62,0.00,,,0.00,56,MyOwnSoftware,2013-04-28 17:13:00,
2013-04-28 18:14:00,49.1,36.6,29.66,SSW,202,5.0,18.0,62,0.00,,,0.00,53,MyOwnSoftware,2013-04-28 17:14:00,
2013-04-28 18:15:00,48.9,36.5,29.66,SW,225,4.0,11.0,62,0.00,,,0.00,49,MyOwnSoftware,2013-04-28 17:15:00,
2013-04-28 18:16:00,49.1,37.1,29.66,SW,225,5.0,10.0,63,0.00,,,0.00,86,MyOwnSoftware,2013-04-28 17:16:00,
2013-04-28 18:17:00,48.8,37.6,29.66,WNW,292,4.0,8.0,65,0.00,,,0.00,65,MyOwnSoftware,2013-04-28 17:17:00,
2013-04-28 18:18:00,48.6,37.8,29.66,WNW,292,7.0,11.0,66,0.00,,,0.00,76,MyOwnSoftware,2013-04-28 17:18:00,
2013-04-28 18:19:00,48.3,38.2,29.66,NW,315,4.0,7.0,68,0.00,,,0.00,79,MyOwnSoftware,2013-04-28 17:19:00,
2013-04-28 18:20:00,48.0,38.7,29.66,West,270,4.0,6.0,70,0.00,,,0.00,67,MyOwnSoftware,2013-04-28 17:20:00,
2013-04-28 18:21:00,47.7,38.8,29.66,NNW,338,3.0,7.0,71,0.00,,,0.00,58,MyOwnSoftware,2013-04-28 17:21:00,
2013-04-28 18:22:00,47.6,39.0,29.66,NW,315,2.0,5.0,72,0.00,,,0.00,65,MyOwnSoftware,2013-04-28 17:22:00,
2013-04-28 18:23:00,47.3,38.7,29.66,WNW,292,2.0,5.0,72,0.00,,,0.00,74,MyOwnSoftware,2013-04-28 17:23:00,
2013-04-28 18:24:00,47.1,38.9,29.66,WNW,292,3.0,5.0,73,0.00,,,0.00,81,MyOwnSoftware,2013-04-28 17:24:00,
2013-04-28 18:25:00,47.0,39.5,29.66,North,0,2.0,4.0,75,0.00,,,0.00,84,MyOwnSoftware,2013-04-28 17:25:00,
2013-04-28 18:26:00,46.8,39.3,29.66,NW,315,2.0,5.0,75,0.00,,,0.00,109,MyOwnSoftware,2013-04-28 17:26:00,
2013-04-28 18:27:00,46.8,39.6,29.66,West,270,2.0,5.0,76,0.00,,,0.00,121,MyOwnSoftware,2013-04-28 17:27:00,
2013-04-28 18:28:00,46.8,39.6,29.66,WSW,248,1.0,4.0,76,0.00,,,0.00,100,MyOwnSoftware,2013-04-28 17:28:00,
2013-04-28 18:29:00,46.7,39.5,29.66,West,270,2.0,3.0,76,0.00,,,0.00,81,MyOwnSoftware,2013-04-28 17:29:00,
2013-04-28 18:30:00,46.7,39.5,29.66,West,270,3.0,6.0,76,0.00,,,0.00,77,MyOwnSoftware,2013-04-28 17:30:00,
2013-04-28 18:31:00,46.7,39.5,29.66,West,270,3.0,6.0,76,0.00,,,0.00,72,MyOwnSoftware,2013-04-28 17:31:00,
2013-04-28 18:32:00,46.7,39.2,29.66,West,270,4.0,13.0,75,0.00,,,0.00,90,MyOwnSoftware,2013-04-28 17:32:00,
2013-04-28 18:33:00,46.7,39.2,29.66,NW,315,1.0,3.0,75,0.00,,,0.00,88,MyOwnSoftware,2013-04-28 17:33:00,
2013-04-28 18:34:00,46.7,39.2,29.66,West,270,2.0,5.0,75,0.00,,,0.00,83,MyOwnSoftware,2013-04-28 17:34:00,
2013-04-28 18:35:00,46.7,39.0,29.66,WNW,299,1.0,-999.0,74,-99.99,,,0.04,83,weatherlink.com 1.10,2013-04-28 17:35:00,
2013-04-28 18:36:00,46.7,38.9,29.66,WNW,292,2.0,4.0,74,0.00,,,0.00,81,MyOwnSoftware,2013-04-28 17:36:00,
2013-04-28 18:37:00,46.7,38.9,29.66,WSW,248,3.0,6.0,74,0.00,,,0.00,86,MyOwnSoftware,2013-04-28 17:37:00,
2013-04-28 18:38:00,46.8,39.0,29.66,WNW,292,1.0,3.0,74,0.00,,,0.00,95,MyOwnSoftware,2013-04-28 17:38:00,
2013-04-28 18:39:00,46.8,39.0,29.66,WNW,292,1.0,2.0,74,0.00,,,0.00,84,MyOwnSoftware,2013-04-28 17:39:00,
2013-04-28 18:40:00,46.8,39.0,29.66,SW,225,2.0,4.0,74,0.00,,,0.00,99,MyOwnSoftware,2013-04-28 17:40:00,
2013-04-28 18:41:00,47.0,38.8,29.66,NW,315,2.0,3.0,73,0.00,,,0.00,110,MyOwnSoftware,2013-04-28 17:41:00,
2013-04-28 18:42:00,47.0,38.4,29.66,NNW,338,2.0,4.0,72,0.00,,,0.00,83,MyOwnSoftware,2013-04-28 17:42:00,
2013-04-28 18:43:00,47.1,37.8,29.66,South,180,5.0,8.0,70,0.00,,,0.00,77,MyOwnSoftware,2013-04-28 17:43:00,
2013-04-28 18:44:00,47.3,37.7,29.66,SSW,202,3.0,7.0,69,0.00,,,0.00,77,MyOwnSoftware,2013-04-28 17:44:00,
2013-04-28 18:45:00,47.3,36.9,29.66,SW,225,4.0,10.0,67,0.00,,,0.00,72,MyOwnSoftware,2013-04-28 17:45:00,
2013-04-28 18:46:00,46.7,38.9,29.66,WSW,248,3.0,6.0,74,0.00,,,0.00,86,MyOwnSoftware,2013-04-28 17:46:00,
2013-04-28 18:47:00,47.6,36.4,29.66,SSW,202,6.0,12.0,65,0.00,,,0.00,90,MyOwnSoftware,2013-04-28 17:47:00,
2013-04-28 18:48:00,47.7,36.5,29.66,SSW,202,7.0,10.0,65,0.00,,,0.00,107,MyOwnSoftware,2013-04-28 17:48:00,
2013-04-28 18:49:00,47.7,36.5,29.66,SW,225,6.0,14.0,65,0.00,,,0.00,100,MyOwnSoftware,2013-04-28 17:49:00,
2013-04-28 18:50:00,47.9,35.9,29.66,North,0,4.0,11.0,63,0.00,,,0.00,77,MyOwnSoftware,2013-04-28 17:50:00,
2013-04-28 18:51:00,47.9,35.9,29.66,SSW,202,9.0,16.0,63,0.00,,,0.00,88,MyOwnSoftware,2013-04-28 17:51:00,
2013-04-28 18:52:00,47.9,35.9,29.66,SSW,202,7.0,11.0,63,0.00,,,0.00,88,MyOwnSoftware,2013-04-28 17:52:00,
2013-04-28 18:53:00,47.9,35.9,29.66,SSW,202,8.0,12.0,63,0.00,,,0.00,69,MyOwnSoftware,2013-04-28 17:53:00,
2013-04-28 18:54:00,47.9,35.9,29.66,WSW,248,6.0,8.0,63,0.00,,,0.00,55,MyOwnSoftware,2013-04-28 17:54:00,
2013-04-28 18:55:00,47.9,35.9,29.66,SW,225,5.0,12.0,63,0.00,,,0.00,44,MyOwnSoftware,2013-04-28 17:55:00,
2013-04-28 18:56:00,47.6,36.4,29.66,SSW,202,6.0,12.0,65,0.00,,,0.00,90,MyOwnSoftware,2013-04-28 17:56:00,
2013-04-28 18:57:00,47.7,35.7,29.66,SW,225,6.0,12.0,63,0.00,,,0.00,48,MyOwnSoftware,2013-04-28 17:57:00,
2013-04-28 18:58:00,47.7,36.1,29.66,SSW,202,6.0,17.0,64,0.00,,,0.00,56,MyOwnSoftware,2013-04-28 17:58:00,
2013-04-28 18:59:00,47.6,36.0,29.66,SSW,202,5.0,12.0,64,0.00,,,0.00,70,MyOwnSoftware,2013-04-28 17:59:00,
2013-04-28 19:00:00,47.6,36.0,29.66,South,180,4.0,8.0,64,0.00,,,0.00,81,MyOwnSoftware,2013-04-28 18:00:00,
2013-04-28 19:01:00,47.6,36.0,29.66,SW,225,7.0,13.0,64,0.00,,,0.00,89,MyOwnSoftware,2013-04-28 18:01:00,
2013-04-28 19:02:00,47.6,36.4,29.66,West,270,5.0,10.0,65,0.00,,,0.00,77,MyOwnSoftware,2013-04-28 18:02:00,
2013-04-28 19:03:00,47.4,36.6,29.66,WNW,292,4.0,6.0,66,0.00,,,0.00,63,MyOwnSoftware,2013-04-28 18:03:00,
2013-04-28 19:04:00,47.4,36.2,29.66,SW,225,5.0,8.0,65,0.00,,,0.00,49,MyOwnSoftware,2013-04-28 18:04:00,
2013-04-28 19:05:00,47.4,36.0,29.66,SW,229,6.0,-999.0,64,-99.99,,,0.04,33,weatherlink.com 1.10,2013-04-28 18:05:00,
2013-04-28 19:06:00,47.4,35.8,29.66,SW,225,7.0,14.0,64,0.00,,,0.00,32,MyOwnSoftware,2013-04-28 18:06:00,
2013-04-28 19:07:00,47.4,35.4,29.66,SW,225,5.0,11.0,63,0.00,,,0.00,30,MyOwnSoftware,2013-04-28 18:07:00,
2013-04-28 19:08:00,47.3,35.4,29.66,SSE,158,6.0,8.0,63,0.00,,,0.00,28,MyOwnSoftware,2013-04-28 18:08:00,
2013-04-28 19:09:00,47.3,34.1,29.66,NE,45,5.0,12.0,60,0.00,,,0.00,30,MyOwnSoftware,2013-04-28 18:09:00,
2013-04-28 19:10:00,47.1,33.9,29.66,SSW,202,5.0,11.0,60,0.00,,,0.00,30,MyOwnSoftware,2013-04-28 18:10:00,
2013-04-28 19:11:00,47.1,33.5,29.66,South,180,8.0,14.0,59,0.00,,,0.00,30,MyOwnSoftware,2013-04-28 18:11:00,
2013-04-28 19:12:00,47.1,33.1,29.66,WNW,292,5.0,8.0,58,0.00,,,0.00,30,MyOwnSoftware,2013-04-28 18:12:00,
2013-04-28 19:13:00,47.0,33.0,29.66,SSW,202,4.0,7.0,58,0.00,,,0.00,28,MyOwnSoftware,2013-04-28 18:13:00,
2013-04-28 19:14:00,47.0,33.4,29.66,West,270,5.0,7.0,59,0.00,,,0.00,28,MyOwnSoftware,2013-04-28 18:14:00,
2013-04-28 19:15:00,47.0,33.4,29.66,WSW,248,6.0,13.0,59,0.00,,,0.00,30,MyOwnSoftware,2013-04-28 18:15:00,
2013-04-28 19:16:00,47.4,35.4,29.66,SW,225,5.0,11.0,63,0.00,,,0.00,30,MyOwnSoftware,2013-04-28 18:16:00,
2013-04-28 19:17:00,47.0,34.3,29.66,SSW,202,8.0,16.0,61,0.00,,,0.00,30,MyOwnSoftware,2013-04-28 18:17:00,
2013-04-28 19:18:00,46.8,34.1,29.66,SW,225,4.0,8.0,61,0.00,,,0.00,30,MyOwnSoftware,2013-04-28 18:18:00,
2013-04-28 19:19:00,46.8,34.1,29.66,SSE,158,4.0,7.0,61,0.00,,,0.00,30,MyOwnSoftware,2013-04-28 18:19:00,
2013-04-28 19:20:00,46.8,34.1,29.66,SW,225,4.0,8.0,61,0.00,,,0.00,35,MyOwnSoftware,2013-04-28 18:20:00,
2013-04-28 19:21:00,46.8,34.1,29.66,West,270,4.0,10.0,61,0.00,,,0.00,35,MyOwnSoftware,2013-04-28 18:21:00,
2013-04-28 19:22:00,46.7,34.0,29.66,West,270,5.0,13.0,61,0.00,,,0.00,35,MyOwnSoftware,2013-04-28 18:22:00,
2013-04-28 19:23:00,46.7,34.0,29.66,SSW,202,6.0,10.0,61,0.00,,,0.00,35,MyOwnSoftware,2013-04-28 18:23:00,
2013-04-28 19:24:00,46.7,33.6,29.66,North,0,4.0,12.0,60,0.00,,,0.00,28,MyOwnSoftware,2013-04-28 18:24:00,
2013-04-28 19:25:00,46.7,33.6,29.66,North,0,5.0,11.0,60,0.00,,,0.00,28,MyOwnSoftware,2013-04-28 18:25:00,
2013-04-28 19:26:00,46.7,33.6,29.66,North,0,4.0,11.0,60,0.00,,,0.00,28,MyOwnSoftware,2013-04-28 18:26:00,
2013-04-28 19:27:00,46.7,33.6,29.66,WNW,292,4.0,6.0,60,0.00,,,0.00,28,MyOwnSoftware,2013-04-28 18:27:00,
2013-04-28 19:28:00,46.5,33.4,29.66,NNE,22,2.0,6.0,60,0.00,,,0.00,28,MyOwnSoftware,2013-04-28 18:28:00,
2013-04-28 19:29:00,46.5,33.4,29.66,SSW,202,5.0,10.0,60,0.00,,,0.00,28,MyOwnSoftware,2013-04-28 18:29:00,
2013-04-28 19:30:00,46.5,33.4,29.65,NW,315,5.0,8.0,60,0.00,,,0.00,28,MyOwnSoftware,2013-04-28 18:30:00,
2013-04-28 19:31:00,46.5,33.4,29.65,West,270,6.0,11.0,60,0.00,,,0.00,28,MyOwnSoftware,2013-04-28 18:31:00,
2013-04-28 19:32:00,46.5,33.0,29.65,NW,315,5.0,7.0,59,0.00,,,0.00,26,MyOwnSoftware,2013-04-28 18:32:00,
2013-04-28 19:33:00,46.5,33.0,29.65,WSW,248,4.0,7.0,59,0.00,,,0.00,26,MyOwnSoftware,2013-04-28 18:33:00,
2013-04-28 19:34:00,46.5,33.0,29.65,SSW,202,5.0,8.0,59,0.00,,,0.00,26,MyOwnSoftware,2013-04-28 18:34:00,
2013-04-28 19:35:00,46.5,33.0,29.65,SSW,213,4.0,-999.0,59,-99.99,,,0.04,26,weatherlink.com 1.10,2013-04-28 18:35:00,
2013-04-28 19:36:00,46.5,33.4,29.65,WNW,292,4.0,7.0,60,0.00,,,0.00,25,MyOwnSoftware,2013-04-28 18:36:00,
2013-04-28 19:37:00,46.7,33.6,29.65,SW,225,4.0,7.0,60,0.00,,,0.00,23,MyOwnSoftware,2013-04-28 18:37:00,
2013-04-28 19:38:00,46.5,33.4,29.65,SSW,202,4.0,10.0,60,0.00,,,0.00,23,MyOwnSoftware,2013-04-28 18:38:00,
2013-04-28 19:39:00,46.5,33.4,29.65,SW,225,4.0,6.0,60,0.00,,,0.00,23,MyOwnSoftware,2013-04-28 18:39:00,
2013-04-28 19:40:00,46.5,33.8,29.65,SSW,202,5.0,7.0,61,0.00,,,0.00,23,MyOwnSoftware,2013-04-28 18:40:00,
2013-04-28 19:41:00,46.5,33.8,29.65,NW,315,2.0,4.0,61,0.00,,,0.00,23,MyOwnSoftware,2013-04-28 18:41:00,
2013-04-28 19:42:00,46.5,33.8,29.65,WSW,248,3.0,6.0,61,0.00,,,0.00,23,MyOwnSoftware,2013-04-28 18:42:00,
2013-04-28 19:43:00,46.5,33.8,29.65,WSW,248,4.0,8.0,61,0.00,,,0.00,23,MyOwnSoftware,2013-04-28 18:43:00,
2013-04-28 19:44:00,46.5,33.8,29.65,WSW,248,2.0,3.0,61,0.00,,,0.00,23,MyOwnSoftware,2013-04-28 18:44:00,
2013-04-28 19:45:00,46.5,34.2,29.66,SW,225,5.0,10.0,62,0.00,,,0.00,28,MyOwnSoftware,2013-04-28 18:45:00,
2013-04-28 19:46:00,46.7,33.6,29.65,SW,225,4.0,7.0,60,0.00,,,0.00,23,MyOwnSoftware,2013-04-28 18:46:00,
2013-04-28 19:47:00,46.5,34.2,29.66,SW,225,4.0,7.0,62,0.00,,,0.00,28,MyOwnSoftware,2013-04-28 18:47:00,
2013-04-28 19:48:00,46.4,34.5,29.66,SW,225,5.0,7.0,63,0.00,,,0.00,28,MyOwnSoftware,2013-04-28 18:48:00,
2013-04-28 19:49:00,46.4,34.5,29.66,SW,225,4.0,8.0,63,0.00,,,0.00,28,MyOwnSoftware,2013-04-28 18:49:00,
2013-04-28 19:50:00,46.4,34.5,29.66,SSW,202,4.0,8.0,63,0.00,,,0.00,28,MyOwnSoftware,2013-04-28 18:50:00,
2013-04-28 19:51:00,46.4,34.5,29.66,WSW,248,4.0,7.0,63,0.00,,,0.00,28,MyOwnSoftware,2013-04-28 18:51:00,
2013-04-28 19:52:00,46.4,34.5,29.66,SSW,202,4.0,6.0,63,0.00,,,0.00,28,MyOwnSoftware,2013-04-28 18:52:00,
2013-04-28 19:53:00,46.4,34.5,29.66,SW,225,4.0,10.0,63,0.00,,,0.00,19,MyOwnSoftware,2013-04-28 18:53:00,
2013-04-28 19:54:00,46.4,34.5,29.66,NW,315,4.0,8.0,63,0.00,,,0.00,19,MyOwnSoftware,2013-04-28 18:54:00,
2013-04-28 19:55:00,46.4,34.5,29.66,SW,225,6.0,11.0,63,0.00,,,0.00,19,MyOwnSoftware,2013-04-28 18:55:00,
2013-04-28 19:56:00,46.5,34.2,29.66,SW,225,4.0,7.0,62,0.00,,,0.00,28,MyOwnSoftware,2013-04-28 18:56:00,
2013-04-28 19:57:00,46.4,34.5,29.66,SSW,202,4.0,10.0,63,0.00,,,0.00,12,MyOwnSoftware,2013-04-28 18:57:00,
2013-04-28 19:58:00,46.4,34.5,29.66,SSW,202,7.0,14.0,63,0.00,,,0.00,12,MyOwnSoftware,2013-04-28 18:58:00,
2013-04-28 19:59:00,46.4,34.9,29.66,SW,225,6.0,12.0,64,0.00,,,0.00,12,MyOwnSoftware,2013-04-28 18:59:00,
2013-04-28 20:00:00,46.4,34.9,29.66,SW,225,6.0,10.0,64,0.00,,,0.00,12,MyOwnSoftware,2013-04-28 19:00:00,
2013-04-28 20:01:00,46.4,34.9,29.66,WSW,248,5.0,7.0,64,0.00,,,0.00,12,MyOwnSoftware,2013-04-28 19:01:00,
2013-04-28 20:02:00,46.4,35.3,29.66,SSW,202,6.0,11.0,65,0.00,,,0.00,11,MyOwnSoftware,2013-04-28 19:02:00,
2013-04-28 20:03:00,46.4,35.3,29.66,SW,225,10.0,19.0,65,0.00,,,0.00,11,MyOwnSoftware,2013-04-28 19:03:00,
2013-04-28 20:04:00,46.4,35.3,29.66,SW,225,6.0,9.0,65,0.00,,,0.00,11,MyOwnSoftware,2013-04-28 19:04:00,
2013-04-28 20:05:00,46.2,35.0,29.66,WSW,239,1.0,-999.0,66,-99.99,,,0.04,12,weatherlink.com 1.10,2013-04-28 19:05:00,
2013-04-28 20:06:00,46.2,35.9,29.66,West,270,3.0,7.0,67,0.00,,,0.00,12,MyOwnSoftware,2013-04-28 19:06:00,
2013-04-28 20:07:00,46.2,36.2,29.66,South,180,4.0,14.0,68,0.00,,,0.00,12,MyOwnSoftware,2013-04-28 19:07:00,
2013-04-28 20:08:00,46.2,36.6,29.66,WSW,248,3.0,8.0,69,0.00,,,0.00,12,MyOwnSoftware,2013-04-28 19:08:00,
2013-04-28 20:09:00,46.1,36.9,29.66,North,0,6.0,12.0,70,0.00,,,0.00,12,MyOwnSoftware,2013-04-28 19:09:00,
2013-04-28 20:10:00,46.1,37.2,29.66,WSW,248,6.0,8.0,71,0.00,,,0.00,14,MyOwnSoftware,2013-04-28 19:10:00,
2013-04-28 20:11:00,46.0,37.1,29.66,WSW,248,4.0,8.0,71,0.00,,,0.00,14,MyOwnSoftware,2013-04-28 19:11:00,
2013-04-28 20:12:00,46.0,37.5,29.66,SSW,202,6.0,9.0,72,0.00,,,0.00,14,MyOwnSoftware,2013-04-28 19:12:00,
2013-04-28 20:13:00,45.8,37.3,29.66,SW,225,5.0,9.0,72,0.00,,,0.00,14,MyOwnSoftware,2013-04-28 19:13:00,
2013-04-28 20:14:00,45.8,37.6,29.66,SSW,202,7.0,10.0,73,0.00,,,0.00,21,MyOwnSoftware,2013-04-28 19:14:00,
2013-04-28 20:15:00,45.7,37.5,29.66,SW,225,6.0,11.0,73,0.00,,,0.00,21,MyOwnSoftware,2013-04-28 19:15:00,
2013-04-28 20:16:00,46.2,36.2,29.66,South,180,4.0,14.0,68,0.00,,,0.00,12,MyOwnSoftware,2013-04-28 19:16:00,
2013-04-28 20:17:00,45.5,37.4,29.66,SSW,202,4.0,11.0,73,0.00,,,0.00,21,MyOwnSoftware,2013-04-28 19:17:00,
2013-04-28 20:18:00,45.4,37.6,29.66,SW,225,5.0,11.0,74,0.00,,,0.00,14,MyOwnSoftware,2013-04-28 19:18:00,
2013-04-28 20:19:00,45.4,37.6,29.66,SW,225,5.0,11.0,74,0.00,,,0.00,14,MyOwnSoftware,2013-04-28 19:19:00,
2013-04-28 20:20:00,45.2,37.4,29.66,North,0,2.0,6.0,74,0.00,,,0.00,14,MyOwnSoftware,2013-04-28 19:20:00,
2013-04-28 20:21:00,45.1,37.7,29.66,SSW,202,6.0,11.0,75,0.00,,,0.00,14,MyOwnSoftware,2013-04-28 19:21:00,
2013-04-28 20:22:00,45.1,37.7,29.66,WNW,292,4.0,7.0,75,0.00,,,0.00,11,MyOwnSoftware,2013-04-28 19:22:00,
2013-04-28 20:23:00,45.1,37.7,29.66,WNW,292,1.0,2.0,75,0.00,,,0.00,11,MyOwnSoftware,2013-04-28 19:23:00,
2013-04-28 20:24:00,44.9,37.5,29.66,SW,225,4.0,10.0,75,0.00,,,0.00,11,MyOwnSoftware,2013-04-28 19:24:00,
2013-04-28 20:25:00,44.9,37.5,29.66,North,0,2.0,6.0,75,0.00,,,0.00,11,MyOwnSoftware,2013-04-28 19:25:00,
2013-04-28 20:26:00,44.8,37.4,29.66,NNE,22,2.0,5.0,75,0.00,,,0.00,10,MyOwnSoftware,2013-04-28 19:26:00,
2013-04-28 20:27:00,44.8,37.7,29.66,WSW,248,5.0,12.0,76,0.00,,,0.00,9,MyOwnSoftware,2013-04-28 19:27:00,
2013-04-28 20:28:00,44.6,37.5,29.66,SW,225,4.0,7.0,76,0.00,,,0.00,9,MyOwnSoftware,2013-04-28 19:28:00,
2013-04-28 20:29:00,44.6,37.2,29.66,SSW,202,6.0,13.0,75,0.00,,,0.00,9,MyOwnSoftware,2013-04-28 19:29:00,
2013-04-28 20:30:00,44.6,37.5,29.67,SSW,202,4.0,7.0,76,0.00,,,0.00,9,MyOwnSoftware,2013-04-28 19:30:00,
2013-04-28 20:31:00,44.5,37.4,29.67,WSW,248,4.0,8.0,76,0.00,,,0.00,7,MyOwnSoftware,2013-04-28 19:31:00,
2013-04-28 20:32:00,44.5,37.4,29.67,SSW,202,6.0,12.0,76,0.00,,,0.00,7,MyOwnSoftware,2013-04-28 19:32:00,
2013-04-28 20:33:00,44.3,37.2,29.67,SSW,202,4.0,7.0,76,0.00,,,0.00,7,MyOwnSoftware,2013-04-28 19:33:00,
2013-04-28 20:34:00,44.3,37.2,29.67,WSW,248,3.0,10.0,76,0.00,,,0.00,7,MyOwnSoftware,2013-04-28 19:34:00,
2013-04-28 20:35:00,44.2,37.0,29.67,SW,224,6.0,-999.0,76,-99.99,,,0.04,7,weatherlink.com 1.10,2013-04-28 19:35:00,
2013-04-28 20:36:00,44.2,37.5,29.67,SW,225,6.0,12.0,77,0.00,,,0.00,7,MyOwnSoftware,2013-04-28 19:36:00,
2013-04-28 20:37:00,44.3,37.6,29.67,South,180,5.0,11.0,77,0.00,,,0.00,7,MyOwnSoftware,2013-04-28 19:37:00,
2013-04-28 20:38:00,44.2,37.5,29.67,SSW,202,5.0,6.0,77,0.00,,,0.00,7,MyOwnSoftware,2013-04-28 19:38:00,
2013-04-28 20:39:00,44.2,37.5,29.67,SSW,202,7.0,8.0,77,0.00,,,0.00,7,MyOwnSoftware,2013-04-28 19:39:00,
2013-04-28 20:40:00,44.1,37.4,29.67,West,270,6.0,10.0,77,0.00,,,0.00,5,MyOwnSoftware,2013-04-28 19:40:00,
2013-04-28 20:41:00,43.9,37.2,29.67,SW,225,5.0,7.0,77,0.00,,,0.00,5,MyOwnSoftware,2013-04-28 19:41:00,
2013-04-28 20:42:00,43.9,37.2,29.67,SW,225,6.0,10.0,77,0.00,,,0.00,5,MyOwnSoftware,2013-04-28 19:42:00,
2013-04-28 20:43:00,43.9,37.5,29.67,SW,225,5.0,10.0,78,0.00,,,0.00,5,MyOwnSoftware,2013-04-28 19:43:00,
2013-04-28 20:44:00,43.8,37.4,29.67,SSW,202,6.0,12.0,78,0.00,,,0.00,5,MyOwnSoftware,2013-04-28 19:44:00,
2013-04-28 20:45:00,43.8,37.4,29.67,WSW,248,6.0,9.0,78,0.00,,,0.00,5,MyOwnSoftware,2013-04-28 19:45:00,
2013-04-28 20:46:00,44.3,37.6,29.67,South,180,5.0,11.0,77,0.00,,,0.00,7,MyOwnSoftware,2013-04-28 19:46:00,
2013-04-28 20:47:00,43.6,37.5,29.67,West,270,3.0,5.0,79,0.00,,,0.00,0,MyOwnSoftware,2013-04-28 19:47:00,
2013-04-28 20:48:00,43.6,37.5,29.67,SSW,202,4.0,7.0,79,0.00,,,0.00,0,MyOwnSoftware,2013-04-28 19:48:00,
2013-04-28 20:49:00,43.6,37.5,29.67,SSW,202,5.0,8.0,79,0.00,,,0.00,0,MyOwnSoftware,2013-04-28 19:49:00,
2013-04-28 20:50:00,43.5,37.7,29.67,SSW,202,5.0,11.0,80,0.00,,,0.00,0,MyOwnSoftware,2013-04-28 19:50:00,
2013-04-28 20:51:00,43.5,37.7,29.67,SW,225,3.0,11.0,80,0.00,,,0.00,0,MyOwnSoftware,2013-04-28 19:51:00,
2013-04-28 20:52:00,43.5,38.1,29.67,SSW,202,5.0,11.0,81,0.00,,,0.00,0,MyOwnSoftware,2013-04-28 19:52:00,
2013-04-28 20:53:00,43.5,38.1,29.67,SSW,202,8.0,11.0,81,0.00,,,0.00,0,MyOwnSoftware,2013-04-28 19:53:00,
2013-04-28 20:54:00,43.3,38.2,29.67,South,180,4.0,8.0,82,0.00,,,0.00,0,MyOwnSoftware,2013-04-28 19:54:00,
2013-04-28 20:55:00,43.3,38.2,29.67,WNW,292,4.0,7.0,82,0.00,,,0.00,0,MyOwnSoftware,2013-04-28 19:55:00,
2013-04-28 20:56:00,43.6,37.5,29.67,West,270,3.0,5.0,79,0.00,,,0.00,0,MyOwnSoftware,2013-04-28 19:56:00,
2013-04-28 20:57:00,43.3,38.5,29.67,SSE,158,3.0,5.0,83,0.00,,,0.00,0,MyOwnSoftware,2013-04-28 19:57:00,
2013-04-28 20:58:00,43.3,38.5,29.67,SSW,202,4.0,8.0,83,0.00,,,0.00,0,MyOwnSoftware,2013-04-28 19:58:00,
2013-04-28 20:59:00,43.2,38.4,29.67,SSW,202,7.0,11.0,83,0.00,,,0.00,0,MyOwnSoftware,2013-04-28 19:59:00,
2013-04-28 21:00:00,43.2,38.7,29.67,West,270,3.0,6.0,84,0.00,,,0.00,0,MyOwnSoftware,2013-04-28 20:00:00,
2013-04-28 21:01:00,43.2,38.7,29.67,SSW,202,4.0,8.0,84,0.00,,,0.00,0,MyOwnSoftware,2013-04-28 20:01:00,
2013-04-28 21:02:00,43.2,38.7,29.67,WSW,248,4.0,8.0,84,0.00,,,0.00,0,MyOwnSoftware,2013-04-28 20:02:00,
2013-04-28 21:03:00,43.2,38.7,29.67,West,270,7.0,13.0,84,0.00,,,0.00,0,MyOwnSoftware,2013-04-28 20:03:00,
2013-04-28 21:04:00,43.2,38.7,29.67,SSW,202,5.0,11.0,84,0.00,,,0.00,0,MyOwnSoftware,2013-04-28 20:04:00,
2013-04-28 21:05:00,43.2,38.7,29.67,West,270,3.0,7.0,84,0.00,,,0.00,0,MyOwnSoftware,2013-04-28 20:05:00,
2013-04-28 21:06:00,43.2,39.0,29.67,West,268,5.0,-999.0,84,-99.99,,,0.04,0,weatherlink.com 1.10,2013-04-28 20:06:00,
2013-04-28 21:07:00,43.1,38.6,29.67,North,0,4.0,7.0,84,0.00,,,0.00,0,MyOwnSoftware,2013-04-28 20:07:00,
2013-04-28 21:08:00,43.1,38.6,29.67,North,0,4.0,7.0,84,0.00,,,0.00,0,MyOwnSoftware,2013-04-28 20:08:00,
2013-04-28 21:09:00,43.1,38.9,29.67,WNW,292,4.0,7.0,85,0.00,,,0.00,0,MyOwnSoftware,2013-04-28 20:09:00,
2013-04-28 21:10:00,42.9,38.7,29.67,SW,225,4.0,8.0,85,0.00,,,0.00,0,MyOwnSoftware,2013-04-28 20:10:00,
2013-04-28 21:11:00,42.9,38.7,29.67,West,270,5.0,7.0,85,0.00,,,0.00,0,MyOwnSoftware,2013-04-28 20:11:00,
2013-04-28 21:12:00,42.8,38.6,29.67,SSE,158,2.0,5.0,85,0.00,,,0.00,0,MyOwnSoftware,2013-04-28 20:12:00,
2013-04-28 21:13:00,42.8,38.6,29.67,SSW,202,6.0,12.0,85,0.00,,,0.00,0,MyOwnSoftware,2013-04-28 20:13:00,
2013-04-28 21:14:00,42.8,38.6,29.67,SW,225,5.0,7.0,85,0.00,,,0.00,0,MyOwnSoftware,2013-04-28 20:14:00,
2013-04-28 21:15:00,42.6,38.4,29.66,WSW,248,5.0,11.0,85,0.00,,,0.00,0,MyOwnSoftware,2013-04-28 20:15:00,
2013-04-28 21:16:00,42.6,38.4,29.66,West,270,6.0,11.0,85,0.00,,,0.00,0,MyOwnSoftware,2013-04-28 20:16:00,
2013-04-28 21:17:00,42.5,38.3,29.66,NNE,22,3.0,8.0,85,0.00,,,0.00,0,MyOwnSoftware,2013-04-28 20:17:00,
2013-04-28 21:18:00,42.5,38.3,29.66,SE,135,5.0,7.0,85,0.00,,,0.00,0,MyOwnSoftware,2013-04-28 20:18:00,
2013-04-28 21:19:00,42.5,38.3,29.66,WSW,248,4.0,6.0,85,0.00,,,0.00,0,MyOwnSoftware,2013-04-28 20:19:00,
2013-04-28 21:20:00,42.3,38.1,29.66,West,270,4.0,12.0,85,0.00,,,0.00,0,MyOwnSoftware,2013-04-28 20:20:00,
2013-04-28 21:21:00,42.3,38.0,29.66,South,188,7.0,-999.0,85,-99.99,,,0.04,0,weatherlink.com 1.10,2013-04-28 20:21:00,
2013-04-28 21:22:00,42.3,38.1,29.66,West,270,5.0,11.0,85,0.00,,,0.00,0,MyOwnSoftware,2013-04-28 20:22:00,
2013-04-28 21:23:00,42.2,38.0,29.66,SW,225,5.0,10.0,85,0.00,,,0.00,0,MyOwnSoftware,2013-04-28 20:23:00,
2013-04-28 21:24:00,42.2,38.0,29.66,SSW,202,5.0,8.0,85,0.00,,,0.00,0,MyOwnSoftware,2013-04-28 20:24:00,
2013-04-28 21:25:00,42.2,38.0,29.66,SW,225,6.0,11.0,85,0.00,,,0.00,0,MyOwnSoftware,2013-04-28 20:25:00,
2013-04-28 21:26:00,42.1,37.9,29.66,SW,225,4.0,8.0,85,0.00,,,0.00,0,MyOwnSoftware,2013-04-28 20:26:00,
2013-04-28 21:27:00,42.1,37.9,29.66,SSW,202,5.0,12.0,85,0.00,,,0.00,0,MyOwnSoftware,2013-04-28 20:27:00,
2013-04-28 21:28:00,42.1,37.9,29.66,SSW,202,4.0,8.0,85,0.00,,,0.00,0,MyOwnSoftware,2013-04-28 20:28:00,
2013-04-28 21:29:00,41.9,37.7,29.66,SSW,202,7.0,11.0,85,0.00,,,0.00,0,MyOwnSoftware,2013-04-28 20:29:00,
2013-04-28 21:30:00,41.9,37.7,29.67,North,0,6.0,12.0,85,0.00,,,0.00,0,MyOwnSoftware,2013-04-28 20:30:00,
2013-04-28 21:31:00,41.9,38.0,29.67,SSW,202,4.0,6.0,86,0.00,,,0.00,0,MyOwnSoftware,2013-04-28 20:31:00,
2013-04-28 21:32:00,41.8,37.9,29.67,SW,225,7.0,12.0,86,0.00,,,0.00,0,MyOwnSoftware,2013-04-28 20:32:00,
2013-04-28 21:33:00,41.8,37.9,29.67,WSW,248,6.0,11.0,86,0.00,,,0.00,0,MyOwnSoftware,2013-04-28 20:33:00,
2013-04-28 21:34:00,41.8,37.9,29.67,SSW,202,7.0,12.0,86,0.00,,,0.00,0,MyOwnSoftware,2013-04-28 20:34:00,
2013-04-28 21:35:00,41.8,37.9,29.67,SSW,202,5.0,12.0,86,0.00,,,0.00,0,MyOwnSoftware,2013-04-28 20:35:00,
2013-04-28 21:36:00,41.6,38.0,29.67,SSW,202,6.0,-999.0,86,-99.99,,,0.04,0,weatherlink.com 1.10,2013-04-28 20:36:00,
2013-04-28 21:37:00,41.6,37.7,29.67,South,180,6.0,10.0,86,0.00,,,0.00,0,MyOwnSoftware,2013-04-28 20:37:00,
2013-04-28 21:38:00,41.6,37.7,29.67,South,180,5.0,11.0,86,0.00,,,0.00,0,MyOwnSoftware,2013-04-28 20:38:00,
2013-04-28 21:39:00,41.6,38.0,29.67,SSW,202,5.0,8.0,87,0.00,,,0.00,0,MyOwnSoftware,2013-04-28 20:39:00,
2013-04-28 21:40:00,41.5,37.9,29.67,SSW,202,3.0,5.0,87,0.00,,,0.00,0,MyOwnSoftware,2013-04-28 20:40:00,
2013-04-28 21:41:00,41.5,37.9,29.67,WNW,292,3.0,6.0,87,0.00,,,0.00,0,MyOwnSoftware,2013-04-28 20:41:00,
2013-04-28 21:42:00,41.5,37.9,29.67,SSW,202,4.0,7.0,87,0.00,,,0.00,0,MyOwnSoftware,2013-04-28 20:42:00,
2013-04-28 21:43:00,41.5,37.9,29.67,SSE,158,4.0,8.0,87,0.00,,,0.00,0,MyOwnSoftware,2013-04-28 20:43:00,
2013-04-28 21:44:00,41.5,37.9,29.67,NW,315,3.0,6.0,87,0.00,,,0.00,0,MyOwnSoftware,2013-04-28 20:44:00,
2013-04-28 21:45:00,41.3,37.7,29.67,SSW,202,4.0,6.0,87,0.00,,,0.00,0,MyOwnSoftware,2013-04-28 20:45:00,
2013-04-28 21:46:00,41.6,37.7,29.67,South,180,6.0,10.0,86,0.00,,,0.00,0,MyOwnSoftware,2013-04-28 20:46:00,
2013-04-28 21:47:00,41.3,37.4,29.67,West,270,4.0,7.0,86,0.00,,,0.00,0,MyOwnSoftware,2013-04-28 20:47:00,
2013-04-28 21:48:00,41.3,37.4,29.67,South,180,3.0,6.0,86,0.00,,,0.00,0,MyOwnSoftware,2013-04-28 20:48:00,
2013-04-28 21:49:00,41.3,37.4,29.67,SW,225,3.0,8.0,86,0.00,,,0.00,0,MyOwnSoftware,2013-04-28 20:49:00,
2013-04-28 21:50:00,41.3,37.4,29.67,SSW,202,5.0,11.0,86,0.00,,,0.00,0,MyOwnSoftware,2013-04-28 20:50:00,
2013-04-28 21:51:00,41.3,37.0,29.67,ESE,121,2.0,-999.0,86,-99.99,,,0.04,0,weatherlink.com 1.10,2013-04-28 20:51:00,
2013-04-28 21:52:00,41.3,37.4,29.67,North,0,2.0,6.0,86,0.00,,,0.00,0,MyOwnSoftware,2013-04-28 20:52:00,
2013-04-28 21:53:00,41.3,37.4,29.67,SSW,202,6.0,11.0,86,0.00,,,0.00,0,MyOwnSoftware,2013-04-28 20:53:00,
2013-04-28 21:54:00,41.3,37.4,29.67,SW,225,5.0,13.0,86,0.00,,,0.00,0,MyOwnSoftware,2013-04-28 20:54:00,
2013-04-28 21:55:00,41.3,37.4,29.67,SSW,202,7.0,12.0,86,0.00,,,0.00,0,MyOwnSoftware,2013-04-28 20:55:00,
2013-04-28 21:56:00,41.3,37.4,29.67,West,270,4.0,7.0,86,0.00,,,0.00,0,MyOwnSoftware,2013-04-28 20:56:00,
2013-04-28 21:57:00,41.3,37.4,29.67,WNW,292,4.0,8.0,86,0.00,,,0.00,0,MyOwnSoftware,2013-04-28 20:57:00,
2013-04-28 21:58:00,41.3,37.4,29.67,South,180,2.0,6.0,86,0.00,,,0.00,0,MyOwnSoftware,2013-04-28 20:58:00,
2013-04-28 21:59:00,41.3,37.4,29.67,SW,225,3.0,8.0,86,0.00,,,0.00,0,MyOwnSoftware,2013-04-28 20:59:00,
2013-04-28 22:00:00,41.3,37.4,29.67,SSE,158,5.0,11.0,86,0.00,,,0.00,0,MyOwnSoftware,2013-04-28 21:00:00,
2013-04-28 22:01:00,41.3,37.4,29.67,WSW,248,2.0,5.0,86,0.00,,,0.00,0,MyOwnSoftware,2013-04-28 21:01:00,
2013-04-28 22:02:00,41.3,37.4,29.67,SSW,202,5.0,8.0,86,0.00,,,0.00,0,MyOwnSoftware,2013-04-28 21:02:00,
2013-04-28 22:03:00,41.2,37.3,29.67,SW,225,3.0,6.0,86,0.00,,,0.00,0,MyOwnSoftware,2013-04-28 21:03:00,
2013-04-28 22:04:00,41.2,37.3,29.67,SSW,202,5.0,11.0,86,0.00,,,0.00,0,MyOwnSoftware,2013-04-28 21:04:00,
2013-04-28 22:05:00,41.2,37.3,29.67,NW,315,4.0,7.0,86,0.00,,,0.00,0,MyOwnSoftware,2013-04-28 21:05:00,
2013-04-28 22:06:00,41.3,37.0,29.67,SW,234,2.0,-999.0,86,-99.99,,,0.04,0,weatherlink.com 1.10,2013-04-28 21:06:00,
2013-04-28 22:07:00,41.2,37.3,29.67,SW,225,3.0,7.0,86,0.00,,,0.00,0,MyOwnSoftware,2013-04-28 21:07:00,
2013-04-28 22:08:00,41.2,37.3,29.67,NW,315,3.0,6.0,86,0.00,,,0.00,0,MyOwnSoftware,2013-04-28 21:08:00,
2013-04-28 22:09:00,41.2,37.3,29.67,NNW,338,2.0,5.0,86,0.00,,,0.00,0,MyOwnSoftware,2013-04-28 21:09:00,
2013-04-28 22:10:00,41.2,37.3,29.67,NW,315,2.0,5.0,86,0.00,,,0.00,0,MyOwnSoftware,2013-04-28 21:10:00,
2013-04-28 22:11:00,41.2,37.3,29.67,SSW,202,4.0,7.0,86,0.00,,,0.00,0,MyOwnSoftware,2013-04-28 21:11:00,
2013-04-28 22:12:00,41.2,37.6,29.67,SW,225,4.0,8.0,87,0.00,,,0.00,0,MyOwnSoftware,2013-04-28 21:12:00,
2013-04-28 22:13:00,41.2,37.6,29.67,SW,225,2.0,4.0,87,0.00,,,0.00,0,MyOwnSoftware,2013-04-28 21:13:00,
2013-04-28 22:14:00,41.2,37.6,29.67,WNW,292,2.0,5.0,87,0.00,,,0.00,0,MyOwnSoftware,2013-04-28 21:14:00,
2013-04-28 22:15:00,41.2,37.6,29.66,SSW,202,5.0,11.0,87,0.00,,,0.00,0,MyOwnSoftware,2013-04-28 21:15:00,
2013-04-28 22:16:00,41.2,37.3,29.67,SW,225,3.0,7.0,86,0.00,,,0.00,0,MyOwnSoftware,2013-04-28 21:16:00,
2013-04-28 22:17:00,41.2,37.6,29.66,NW,315,3.0,5.0,87,0.00,,,0.00,0,MyOwnSoftware,2013-04-28 21:17:00,
2013-04-28 22:18:00,41.2,37.6,29.66,SW,225,7.0,13.0,87,0.00,,,0.00,0,MyOwnSoftware,2013-04-28 21:18:00,
2013-04-28 22:19:00,41.2,37.6,29.66,NW,315,3.0,7.0,87,0.00,,,0.00,0,MyOwnSoftware,2013-04-28 21:19:00,
2013-04-28 22:20:00,41.2,37.6,29.66,SSW,202,4.0,10.0,87,0.00,,,0.00,0,MyOwnSoftware,2013-04-28 21:20:00,
2013-04-28 22:21:00,41.2,38.0,29.66,SSE,168,7.0,-999.0,88,-99.99,,,0.04,0,weatherlink.com 1.10,2013-04-28 21:21:00,
2013-04-28 22:22:00,41.2,37.9,29.66,SSW,202,6.0,8.0,88,0.00,,,0.00,0,MyOwnSoftware,2013-04-28 21:22:00,
2013-04-28 22:23:00,41.2,37.9,29.66,North,0,3.0,5.0,88,0.00,,,0.00,0,MyOwnSoftware,2013-04-28 21:23:00,
2013-04-28 22:24:00,41.2,37.9,29.66,North,0,4.0,10.0,88,0.00,,,0.00,0,MyOwnSoftware,2013-04-28 21:24:00,
2013-04-28 22:25:00,41.2,37.9,29.66,SSW,202,4.0,7.0,88,0.00,,,0.00,0,MyOwnSoftware,2013-04-28 21:25:00,
2013-04-28 22:26:00,41.2,37.9,29.66,SSW,202,5.0,11.0,88,0.00,,,0.00,0,MyOwnSoftware,2013-04-28 21:26:00,
2013-04-28 22:27:00,41.2,37.9,29.66,WNW,292,5.0,7.0,88,0.00,,,0.00,0,MyOwnSoftware,2013-04-28 21:27:00,
2013-04-28 22:28:00,41.2,37.9,29.66,North,0,4.0,8.0,88,0.00,,,0.00,0,MyOwnSoftware,2013-04-28 21:28:00,
2013-04-28 22:29:00,41.2,37.9,29.66,NW,315,4.0,7.0,88,0.00,,,0.00,0,MyOwnSoftware,2013-04-28 21:29:00,
2013-04-28 22:30:00,41.2,37.9,29.66,SSW,202,4.0,8.0,88,0.00,,,0.00,0,MyOwnSoftware,2013-04-28 21:30:00,
2013-04-28 22:31:00,41.2,37.9,29.66,WNW,292,3.0,5.0,88,0.00,,,0.00,0,MyOwnSoftware,2013-04-28 21:31:00,
2013-04-28 22:32:00,41.2,37.9,29.66,WSW,248,3.0,8.0,88,0.00,,,0.00,0,MyOwnSoftware,2013-04-28 21:32:00,
2013-04-28 22:33:00,41.2,37.9,29.66,NE,45,2.0,3.0,88,0.00,,,0.00,0,MyOwnSoftware,2013-04-28 21:33:00,
2013-04-28 22:34:00,41.2,37.9,29.66,North,0,3.0,7.0,88,0.00,,,0.00,0,MyOwnSoftware,2013-04-28 21:34:00,
2013-04-28 22:35:00,41.2,38.2,29.66,SSW,202,4.0,8.0,89,0.00,,,0.00,0,MyOwnSoftware,2013-04-28 21:35:00,
2013-04-28 22:36:00,41.2,38.0,29.66,SSW,199,6.0,-999.0,89,-99.99,,,0.04,0,weatherlink.com 1.10,2013-04-28 21:36:00,
2013-04-28 22:37:00,41.2,38.2,29.66,WSW,248,3.0,7.0,89,0.00,,,0.00,0,MyOwnSoftware,2013-04-28 21:37:00,
2013-04-28 22:38:00,41.2,38.2,29.66,WNW,292,3.0,7.0,89,0.00,,,0.00,0,MyOwnSoftware,2013-04-28 21:38:00,
2013-04-28 22:39:00,41.2,38.2,29.66,SW,225,3.0,8.0,89,0.00,,,0.00,0,MyOwnSoftware,2013-04-28 21:39:00,
2013-04-28 22:40:00,41.2,38.2,29.66,SSW,202,5.0,11.0,89,0.00,,,0.00,0,MyOwnSoftware,2013-04-28 21:40:00,
2013-04-28 22:41:00,41.2,38.2,29.66,SSW,202,3.0,7.0,89,0.00,,,0.00,0,MyOwnSoftware,2013-04-28 21:41:00,
2013-04-28 22:42:00,41.2,38.2,29.66,West,270,2.0,5.0,89,0.00,,,0.00,0,MyOwnSoftware,2013-04-28 21:42:00,
2013-04-28 22:43:00,41.2,38.2,29.66,South,180,5.0,11.0,89,0.00,,,0.00,0,MyOwnSoftware,2013-04-28 21:43:00,
2013-04-28 22:44:00,41.2,38.2,29.66,ESE,112,3.0,5.0,89,0.00,,,0.00,0,MyOwnSoftware,2013-04-28 21:44:00,
2013-04-28 22:45:00,41.2,38.2,29.66,North,0,5.0,7.0,89,0.00,,,0.00,0,MyOwnSoftware,2013-04-28 21:45:00,
2013-04-28 22:46:00,41.2,38.2,29.66,WSW,248,3.0,7.0,89,0.00,,,0.00,0,MyOwnSoftware,2013-04-28 21:46:00,
2013-04-28 22:47:00,41.2,38.2,29.66,SSE,158,4.0,11.0,89,0.00,,,0.00,0,MyOwnSoftware,2013-04-28 21:47:00,
2013-04-28 22:48:00,41.2,38.2,29.66,SSE,158,5.0,11.0,89,0.00,,,0.00,0,MyOwnSoftware,2013-04-28 21:48:00,
2013-04-28 22:49:00,41.2,38.2,29.66,NNW,338,3.0,8.0,89,0.00,,,0.00,0,MyOwnSoftware,2013-04-28 21:49:00,
2013-04-28 22:50:00,41.2,38.2,29.66,SSW,202,5.0,8.0,89,0.00,,,0.00,0,MyOwnSoftware,2013-04-28 21:50:00,
2013-04-28 22:51:00,41.2,38.0,29.66,SW,236,3.0,-999.0,89,-99.99,,,0.04,0,weatherlink.com 1.10,2013-04-28 21:51:00,
2013-04-28 22:52:00,41.2,38.2,29.66,SSW,202,4.0,7.0,89,0.00,,,0.00,0,MyOwnSoftware,2013-04-28 21:52:00,
2013-04-28 22:53:00,41.2,38.2,29.66,South,180,4.0,7.0,89,0.00,,,0.00,0,MyOwnSoftware,2013-04-28 21:53:00,
2013-04-28 22:54:00,41.2,38.2,29.66,SSW,202,4.0,7.0,89,0.00,,,0.00,0,MyOwnSoftware,2013-04-28 21:54:00,
2013-04-28 22:55:00,41.2,38.2,29.66,West,270,4.0,8.0,89,0.00,,,0.00,0,MyOwnSoftware,2013-04-28 21:55:00,
2013-04-28 22:56:00,41.2,38.2,29.66,SSW,202,4.0,10.0,89,0.00,,,0.00,0,MyOwnSoftware,2013-04-28 21:56:00,
2013-04-28 22:57:00,41.2,37.9,29.66,South,180,5.0,8.0,88,0.00,,,0.00,0,MyOwnSoftware,2013-04-28 21:57:00,
2013-04-28 22:58:00,41.2,37.9,29.66,NW,315,3.0,7.0,88,0.00,,,0.00,0,MyOwnSoftware,2013-04-28 21:58:00,
2013-04-28 22:59:00,41.2,37.9,29.66,North,0,3.0,6.0,88,0.00,,,0.00,0,MyOwnSoftware,2013-04-28 21:59:00,
2013-04-28 23:00:00,41.2,37.9,29.66,SSW,202,5.0,10.0,88,0.00,,,0.00,0,MyOwnSoftware,2013-04-28 22:00:00,
2013-04-28 23:01:00,41.2,37.9,29.66,SSW,202,5.0,10.0,88,0.00,,,0.00,0,MyOwnSoftware,2013-04-28 22:01:00,
2013-04-28 23:02:00,41.2,37.6,29.66,SW,225,4.0,11.0,87,0.00,,,0.00,0,MyOwnSoftware,2013-04-28 22:02:00,
2013-04-28 23:03:00,41.3,37.7,29.66,SW,225,8.0,14.0,87,0.00,,,0.00,0,MyOwnSoftware,2013-04-28 22:03:00,
2013-04-28 23:04:00,41.3,37.7,29.66,WSW,248,4.0,10.0,87,0.00,,,0.00,0,MyOwnSoftware,2013-04-28 22:04:00,
2013-04-28 23:05:00,41.3,37.7,29.66,SW,225,6.0,11.0,87,0.00,,,0.00,0,MyOwnSoftware,2013-04-28 22:05:00,
2013-04-28 23:06:00,41.3,37.0,29.66,SW,220,3.0,-999.0,86,-99.99,,,0.04,0,weatherlink.com 1.10,2013-04-28 22:06:00,
2013-04-28 23:07:00,41.3,37.4,29.66,SSW,202,6.0,11.0,86,0.00,,,0.00,0,MyOwnSoftware,2013-04-28 22:07:00,
2013-04-28 23:08:00,41.3,37.4,29.66,SE,135,4.0,6.0,86,0.00,,,0.00,0,MyOwnSoftware,2013-04-28 22:08:00,
2013-04-28 23:09:00,41.5,37.6,29.66,SSW,202,5.0,10.0,86,0.00,,,0.00,0,MyOwnSoftware,2013-04-28 22:09:00,
2013-04-28 23:10:00,41.5,37.6,29.66,South,180,6.0,11.0,86,0.00,,,0.00,0,MyOwnSoftware,2013-04-28 22:10:00,
2013-04-28 23:11:00,41.5,37.6,29.66,WNW,292,4.0,7.0,86,0.00,,,0.00,0,MyOwnSoftware,2013-04-28 22:11:00,
2013-04-28 23:12:00,41.5,37.6,29.66,West,270,5.0,12.0,86,0.00,,,0.00,0,MyOwnSoftware,2013-04-28 22:12:00,
2013-04-28 23:13:00,41.5,37.6,29.66,South,180,6.0,11.0,86,0.00,,,0.00,0,MyOwnSoftware,2013-04-28 22:13:00,
2013-04-28 23:14:00,41.5,37.6,29.66,West,270,5.0,11.0,86,0.00,,,0.00,0,MyOwnSoftware,2013-04-28 22:14:00,
2013-04-28 23:15:00,41.5,37.6,29.66,SW,225,6.0,13.0,86,0.00,,,0.00,0,MyOwnSoftware,2013-04-28 22:15:00,
2013-04-28 23:16:00,41.3,37.4,29.66,SSW,202,6.0,11.0,86,0.00,,,0.00,0,MyOwnSoftware,2013-04-28 22:16:00,
2013-04-28 23:17:00,41.6,37.7,29.66,SSW,202,9.0,16.0,86,0.00,,,0.00,0,MyOwnSoftware,2013-04-28 22:17:00,
2013-04-28 23:18:00,41.6,37.7,29.66,NW,315,5.0,10.0,86,0.00,,,0.00,0,MyOwnSoftware,2013-04-28 22:18:00,
2013-04-28 23:19:00,41.6,37.7,29.66,WSW,248,6.0,11.0,86,0.00,,,0.00,0,MyOwnSoftware,2013-04-28 22:19:00,
2013-04-28 23:20:00,41.6,37.7,29.66,SSW,202,5.0,10.0,86,0.00,,,0.00,0,MyOwnSoftware,2013-04-28 22:20:00,
2013-04-28 23:21:00,41.6,38.0,29.66,NW,311,3.0,-999.0,86,-99.99,,,0.04,0,weatherlink.com 1.10,2013-04-28 22:21:00,
2013-04-28 23:22:00,41.6,37.7,29.66,NW,315,3.0,7.0,86,0.00,,,0.00,0,MyOwnSoftware,2013-04-28 22:22:00,
2013-04-28 23:23:00,41.6,37.7,29.66,WNW,292,2.0,5.0,86,0.00,,,0.00,0,MyOwnSoftware,2013-04-28 22:23:00,
2013-04-28 23:24:00,41.6,37.7,29.66,SSE,158,5.0,11.0,86,0.00,,,0.00,0,MyOwnSoftware,2013-04-28 22:24:00,
2013-04-28 23:25:00,41.6,37.7,29.66,SSW,202,5.0,7.0,86,0.00,,,0.00,0,MyOwnSoftware,2013-04-28 22:25:00,
2013-04-28 23:26:00,41.6,37.7,29.66,SW,225,3.0,5.0,86,0.00,,,0.00,0,MyOwnSoftware,2013-04-28 22:26:00,
2013-04-28 23:27:00,41.6,37.7,29.66,South,180,6.0,12.0,86,0.00,,,0.00,0,MyOwnSoftware,2013-04-28 22:27:00,
2013-04-28 23:28:00,41.6,37.7,29.66,SSW,202,6.0,11.0,86,0.00,,,0.00,0,MyOwnSoftware,2013-04-28 22:28:00,
2013-04-28 23:29:00,41.6,37.7,29.66,SSW,202,4.0,8.0,86,0.00,,,0.00,0,MyOwnSoftware,2013-04-28 22:29:00,
2013-04-28 23:30:00,41.6,37.7,29.66,SSW,202,4.0,11.0,86,0.00,,,0.00,0,MyOwnSoftware,2013-04-28 22:30:00,
2013-04-28 23:31:00,41.6,38.0,29.66,SW,225,5.0,8.0,87,0.00,,,0.00,0,MyOwnSoftware,2013-04-28 22:31:00,
2013-04-28 23:32:00,41.6,38.0,29.66,SW,225,4.0,6.0,87,0.00,,,0.00,0,MyOwnSoftware,2013-04-28 22:32:00,
2013-04-28 23:33:00,41.6,38.0,29.66,South,180,6.0,8.0,87,0.00,,,0.00,0,MyOwnSoftware,2013-04-28 22:33:00,
2013-04-28 23:34:00,41.6,38.0,29.66,SSW,202,7.0,17.0,87,0.00,,,0.00,0,MyOwnSoftware,2013-04-28 22:34:00,
2013-04-28 23:35:00,41.6,38.0,29.66,SW,225,3.0,7.0,87,0.00,,,0.00,0,MyOwnSoftware,2013-04-28 22:35:00,
2013-04-28 23:36:00,41.6,38.0,29.66,North,0,4.0,7.0,87,0.00,,,0.00,0,MyOwnSoftware,2013-04-28 22:36:00,
2013-04-28 23:37:00,41.6,38.0,29.66,West,263,3.0,-999.0,88,-99.99,,,0.04,0,weatherlink.com 1.10,2013-04-28 22:37:00,
2013-04-28 23:38:00,41.6,38.3,29.66,West,270,8.0,13.0,88,0.00,,,0.00,0,MyOwnSoftware,2013-04-28 22:38:00,
2013-04-28 23:39:00,41.6,38.3,29.66,SW,225,7.0,14.0,88,0.00,,,0.00,0,MyOwnSoftware,2013-04-28 22:39:00,
2013-04-28 23:40:00,41.6,38.3,29.66,South,180,6.0,10.0,88,0.00,,,0.00,0,MyOwnSoftware,2013-04-28 22:40:00,
2013-04-28 23:41:00,41.6,38.3,29.66,SSW,202,5.0,8.0,88,0.00,,,0.00,0,MyOwnSoftware,2013-04-28 22:41:00,
2013-04-28 23:42:00,41.5,38.2,29.66,North,0,5.0,10.0,88,0.00,,,0.00,0,MyOwnSoftware,2013-04-28 22:42:00,
2013-04-28 23:43:00,41.5,38.5,29.66,West,270,1.0,4.0,89,0.00,,,0.00,0,MyOwnSoftware,2013-04-28 22:43:00,
2013-04-28 23:44:00,41.5,38.5,29.66,NW,315,2.0,6.0,89,0.00,,,0.00,0,MyOwnSoftware,2013-04-28 22:44:00,
2013-04-28 23:45:00,41.5,38.5,29.66,South,180,5.0,12.0,89,0.00,,,0.00,0,MyOwnSoftware,2013-04-28 22:45:00,
2013-04-28 23:46:00,41.6,38.3,29.66,WSW,248,4.0,10.0,88,0.00,,,0.00,0,MyOwnSoftware,2013-04-28 22:46:00,
2013-04-28 23:47:00,41.5,38.5,29.66,WNW,292,4.0,6.0,89,0.00,,,0.00,0,MyOwnSoftware,2013-04-28 22:47:00,
2013-04-28 23:48:00,41.5,38.5,29.66,West,270,3.0,6.0,89,0.00,,,0.00,0,MyOwnSoftware,2013-04-28 22:48:00,
2013-04-28 23:49:00,41.5,38.5,29.66,SW,225,3.0,10.0,89,0.00,,,0.00,0,MyOwnSoftware,2013-04-28 22:49:00,
2013-04-28 23:50:00,41.5,38.5,29.66,SW,225,5.0,8.0,89,0.00,,,0.00,0,MyOwnSoftware,2013-04-28 22:50:00,
2013-04-28 23:51:00,41.5,38.5,29.66,WSW,248,6.0,12.0,89,0.00,,,0.00,0,MyOwnSoftware,2013-04-28 22:51:00,
2013-04-28 23:52:00,41.5,38.5,29.66,West,270,2.0,5.0,89,0.00,,,0.00,0,MyOwnSoftware,2013-04-28 22:52:00,
2013-04-28 23:53:00,41.5,38.5,29.66,NNW,338,3.0,6.0,89,0.00,,,0.00,0,MyOwnSoftware,2013-04-28 22:53:00,
2013-04-28 23:54:00,41.5,38.5,29.66,South,180,4.0,7.0,89,0.00,,,0.00,0,MyOwnSoftware,2013-04-28 22:54:00,
2013-04-28 23:55:00,41.5,38.5,29.66,WNW,292,3.0,7.0,89,0.00,,,0.00,0,MyOwnSoftware,2013-04-28 22:55:00,
2013-04-28 23:56:00,41.5,38.5,29.66,WNW,292,4.0,6.0,89,0.00,,,0.00,0,MyOwnSoftware,2013-04-28 22:56:00,
2013-04-28 23:57:00,41.5,38.5,29.66,WSW,248,2.0,6.0,89,0.00,,,0.00,0,MyOwnSoftware,2013-04-28 22:57:00,
2013-04-28 23:58:00,41.5,38.5,29.66,NW,315,4.0,11.0,89,0.00,,,0.00,0,MyOwnSoftware,2013-04-28 22:58:00,
2013-04-28 23:59:00,41.5,38.5,29.66,SW,225,2.0,3.0,89,0.00,,,0.00,0,MyOwnSoftware,2013-04-28 22:59:00,